GFSSGP_500_rhum_024.txt.gz
RH
64 81 78 94 98 98 93 83 83 79 87 88 84 82 78 76 77 88 81 100 100 99 87 83 85 60 34 24 23 24 23 20 16 14 12 16 19 23 25 20 18 13 20 45 54 57 52 64 60
79 70 98 96 93 96 90 83 81 86 84 80 77 80 71 69 77 86 88 96 83 81 73 76 77 33 23 23 28 23 18 18 14 12 16 20 22 24 24 21 19 15 20 23 37 53 53 65 66
67 76 98 93 90 89 86 81 82 93 93 85 74 69 77 68 82 98 80 68 72 45 48 64 48 24 23 25 26 22 19 18 16 16 18 25 30 34 34 30 25 22 22 23 25 29 40 57 54
99 97 95 84 68 65 73 74 81 79 78 78 76 74 73 67 64 75 56 49 48 32 35 46 25 21 21 22 23 23 27 33 26 20 30 40 39 39 38 35 32 30 28 26 23 21 22 33 46
78 77 92 52 55 50 36 62 75 73 70 70 71 69 68 67 52 39 36 33 29 27 38 24 18 17 22 24 27 34 43 42 26 38 50 46 43 45 56 65 62 55 48 44 41 35 39 51 59
88 71 84 67 68 58 40 27 34 62 66 65 65 66 68 56 44 35 34 35 31 26 26 17 14 19 25 30 36 39 44 35 47 52 49 47 50 56 60 53 46 39 41 41 46 48 50 53 42
85 82 73 44 42 32 11 30 32 60 63 63 58 59 62 59 45 32 26 26 27 28 24 14 17 25 30 36 39 44 48 43 43 46 51 48 47 33 16 14 13 15 30 39 22 22 29 15 9
84 77 84 75 70 52 24 21 52 26 40 55 55 54 51 54 29 27 23 19 18 28 22 15 23 29 30 34 35 35 36 36 28 18 13 7 4 7 18 29 13 11 18 18 10 24 26 11 11
78 74 69 62 68 60 42 9 7 6 31 52 51 40 47 39 27 32 30 24 19 26 16 19 27 30 27 25 24 23 23 20 18 29 22 22 16 19 16 12 7 7 11 13 15 11 16 6 9
74 76 65 43 53 62 79 34 9 9 6 14 18 32 33 31 31 34 34 24 20 24 20 22 26 29 27 23 22 14 11 8 39 51 47 41 35 30 32 25 20 10 8 7 8 7 8 7 7
71 67 64 41 43 54 62 62 19 12 7 6 7 6 20 30 31 35 35 31 20 23 22 23 25 27 24 19 15 10 23 29 49 42 39 51 43 31 20 19 19 12 9 9 8 6 6 7 7
63 74 64 44 21 44 40 59 36 21 37 6 4 4 4 8 29 32 30 31 19 24 21 21 20 26 27 20 20 13 17 34 49 56 47 29 22 20 16 14 17 25 24 21 17 8 6 6 6
62 78 71 39 21 25 45 56 16 62 80 73 73 31 4 4 8 22 29 23 17 27 19 20 12 23 25 24 28 19 17 31 36 37 38 35 33 25 27 27 25 29 32 28 21 13 7 6 6
67 62 64 47 34 30 54 62 34 49 87 92 91 78 9 5 8 10 8 14 16 28 16 21 11 22 23 27 24 24 28 33 40 41 39 28 38 32 36 25 23 30 21 15 10 6 6 5 6
68 77 64 55 38 36 55 61 58 83 87 99 96 78 14 5 9 8 11 12 21 15 18 14 10 25 24 23 25 17 16 31 35 50 32 24 28 30 27 28 26 22 21 19 18 11 7 6 5
52 72 67 50 42 33 51 52 75 85 86 98 97 74 5 5 8 10 12 15 22 16 21 8 13 19 18 20 21 17 14 13 25 38 24 25 28 31 30 27 18 11 11 11 10 10 9 7 6
20 44 64 54 46 33 56 61 80 76 85 90 98 54 7 8 8 12 10 20 17 22 15 11 18 16 6 6 11 16 16 14 28 29 21 35 24 30 39 23 9 9 10 8 8 9 8 7 7
11 18 45 50 50 41 41 56 69 85 88 83 99 82 11 7 8 10 12 16 10 24 14 11 12 7 5 9 12 14 14 32 26 18 27 32 22 19 14 10 9 12 9 9 10 11 12 15 15
17 24 41 53 58 46 32 51 74 79 94 74 95 95 16 5 9 8 11 7 5 15 17 14 8 13 10 12 20 33 35 18 10 10 20 12 12 7 7 9 16 13 9 9 10 18 36 40 44
8 18 41 59 65 51 35 34 67 73 90 94 100 99 72 4 8 9 10 6 9 10 10 4 3 2 4 47 50 34 24 16 7 7 8 8 7 7 10 15 18 15 8 12 25 38 37 39 34
4 6 34 56 70 73 63 33 35 70 82 76 72 96 51 5 5 6 5 7 5 6 5 5 4 4 3 26 35 11 11 6 6 7 8 8 8 11 14 15 15 13 10 18 38 40 39 34 33
2 5 22 51 72 74 69 28 28 50 65 85 47 54 25 4 4 3 2 2 3 3 3 3 3 4 3 5 16 11 6 10 10 8 9 9 11 11 15 16 16 10 14 33 41 41 30 35 34
2 4 15 44 60 69 63 33 23 31 52 72 72 39 8 4 3 3 3 2 2 2 3 4 4 4 3 3 3 6 14 17 25 21 14 13 11 11 12 13 15 10 21 26 41 32 40 37 37
2 3 10 25 50 33 20 27 15 22 45 64 85 56 9 8 5 4 3 3 2 2 3 3 3 3 3 2 2 3 3 8 16 14 16 21 17 12 9 11 13 14 22 27 34 27 38 46 42
3 2 4 13 22 2 20 22 6 16 38 69 77 55 64 37 10 23 61 70 39 6 7 8 10 11 11 9 8 6 5 5 4 8 11 16 13 10 9 10 12 17 24 22 22 22 33 48 58
4 3 2 2 2 3 13 5 4 16 34 71 69 90 94 56 36 26 79 75 51 51 52 32 15 16 14 20 24 16 16 14 9 4 6 7 9 11 19 15 12 16 24 21 18 22 28 49 56
7 5 3 3 2 2 3 2 5 10 28 58 68 83 86 57 49 63 76 78 80 80 84 58 27 24 28 31 37 38 29 30 22 14 8 6 7 13 23 20 13 16 25 21 22 29 45 54 62
10 8 7 4 3 3 2 2 2 4 15 50 64 75 70 88 95 94 67 67 71 88 84 43 47 24 28 34 37 42 42 33 32 34 41 38 28 27 32 21 13 16 21 24 29 38 51 48 52
12 10 8 6 5 4 4 3 2 2 4 22 59 71 72 80 77 85 81 75 64 69 64 65 47 34 22 32 29 21 17 18 20 20 22 37 50 43 35 22 14 20 26 28 34 43 56 52 51
17 14 11 9 6 6 5 4 3 3 3 10 46 63 59 70 64 62 80 92 78 60 73 71 57 35 28 40 37 36 24 14 12 11 13 21 45 43 32 20 20 22 29 34 36 57 48 54 58

GFSSGP_500_rhum_027.txt.gz
RH
68 78 78 92 87 92 89 84 86 89 85 84 88 79 75 76 98 95 99 94 97 97 92 98 90 45 31 28 23 19 13 14 13 13 17 23 26 23 19 16 16 22 39 51 52 49 58 67 72
69 76 95 91 90 88 83 76 82 84 85 83 80 74 72 93 86 86 94 98 97 94 89 92 75 28 26 23 16 16 16 14 12 19 24 26 26 24 22 19 18 22 37 36 45 51 61 58 74
69 92 97 91 86 86 79 78 85 81 76 76 81 70 69 79 78 94 90 85 92 63 70 77 47 24 21 19 19 20 19 15 18 23 29 32 33 29 27 23 23 23 21 22 29 36 57 52 60
99 98 95 88 78 81 77 78 85 84 86 75 78 78 74 80 76 79 59 71 58 41 51 43 27 23 18 22 24 28 32 19 21 34 37 37 38 38 41 32 28 27 24 23 21 20 28 42 59
96 98 87 75 70 61 76 87 86 80 76 72 75 69 71 79 58 41 34 48 34 33 48 28 22 20 22 26 34 44 37 21 37 41 37 42 48 60 59 56 49 49 44 44 42 50 52 51 59
83 86 72 78 67 51 53 77 82 67 71 69 66 69 67 59 42 32 31 30 28 31 24 16 19 24 27 35 40 37 31 44 43 43 44 50 50 44 40 37 37 38 43 42 42 45 25 12 10
73 68 59 51 30 14 19 42 60 60 63 61 65 63 56 49 41 34 34 29 29 29 18 14 23 28 35 38 42 41 39 44 50 48 40 27 14 14 17 18 35 31 16 27 22 11 10 11 6
93 80 79 50 34 19 31 29 33 52 54 52 58 63 60 52 41 29 22 23 26 29 14 19 26 31 34 41 40 36 37 29 16 10 10 7 14 17 7 18 18 15 10 18 21 10 9 17 14
81 84 78 57 32 19 14 19 8 28 42 46 42 40 55 36 34 30 27 25 20 22 14 23 28 26 25 26 30 30 18 18 15 8 11 17 22 14 7 7 10 10 14 9 20 14 7 7 9
84 74 60 52 37 16 8 8 6 9 40 42 38 35 36 35 28 33 35 21 18 18 18 27 29 21 21 18 14 10 23 31 33 46 32 30 30 21 22 10 9 8 8 6 6 6 6 7 8
91 73 53 49 44 26 8 7 5 5 5 7 8 18 29 28 30 34 37 28 18 20 19 27 29 23 19 12 14 11 42 61 48 39 35 35 33 24 21 14 11 10 12 9 6 6 6 7 8
86 74 54 38 48 40 20 8 4 7 27 31 19 4 11 31 29 30 32 31 17 21 20 23 27 21 17 12 10 22 30 43 42 40 34 29 22 15 15 23 28 33 31 24 11 8 6 7 8
77 78 62 35 38 48 59 16 7 12 35 52 25 9 4 12 21 36 32 32 21 22 20 19 24 24 19 20 12 21 36 43 48 36 28 22 24 24 21 31 26 19 11 11 9 32 7 5 6
29 54 62 31 32 47 64 30 19 33 25 51 39 14 6 6 7 21 25 20 17 23 18 12 23 24 23 26 16 19 31 30 35 35 31 38 33 35 23 20 24 21 21 17 12 12 7 5 5
23 27 58 48 44 50 66 52 75 63 55 50 40 14 5 6 10 10 9 13 20 26 22 13 21 22 24 21 20 22 31 38 39 35 25 30 31 28 26 27 18 11 11 13 11 12 18 6 5
23 13 47 61 45 53 63 65 88 78 70 47 33 20 6 4 8 9 12 14 26 18 19 14 18 22 22 20 14 14 23 25 47 28 23 27 25 29 27 19 11 7 9 14 11 22 17 8 6
15 12 52 67 56 45 62 68 86 83 79 46 39 28 7 6 8 11 12 16 23 16 23 8 16 20 16 17 14 13 14 14 35 22 22 34 27 29 21 8 7 11 8 9 15 10 11 11 10
10 16 53 71 60 42 52 66 86 85 70 53 46 43 12 8 8 11 12 19 16 22 8 9 12 15 10 9 13 14 14 19 29 18 29 29 20 16 8 9 13 15 9 10 11 18 34 39 36
13 29 63 81 66 41 53 68 77 90 68 65 76 60 32 7 9 10 12 13 12 25 18 13 12 6 5 7 10 13 13 26 20 16 25 13 9 7 8 12 18 17 9 11 20 28 32 27 29
7 19 31 68 56 37 38 57 69 83 71 40 38 56 48 8 9 8 12 12 7 22 17 13 11 10 7 12 21 30 35 18 10 11 9 7 7 9 12 17 14 15 9 14 23 23 26 33 33
2 6 26 34 48 37 35 34 62 75 88 80 96 44 68 12 9 8 9 6 6 14 17 14 8 7 7 37 50 30 26 16 6 7 7 9 10 12 14 17 13 12 10 16 19 19 28 30 30
2 4 14 37 46 45 28 30 55 70 77 71 91 31 16 6 6 8 6 6 7 6 8 7 6 4 4 6 22 23 8 7 6 7 8 10 10 11 12 12 12 10 11 21 22 20 31 35 32
2 3 7 22 48 46 33 22 34 55 67 78 80 64 5 4 3 4 4 5 5 3 3 3 3 3 4 4 7 18 12 8 14 8 9 10 11 12 11 10 10 9 14 22 26 20 38 39 39
3 2 4 11 23 16 19 15 21 38 52 64 84 93 7 3 3 3 2 2 2 2 3 3 3 3 3 3 3 3 7 12 14 20 19 16 19 17 12 9 10 10 11 22 21 20 36 38 37
3 2 2 4 5 2 15 16 5 27 37 65 76 93 21 4 3 3 3 4 2 2 2 3 3 3 3 2 2 2 3 3 12 16 19 19 20 17 12 13 14 12 14 19 16 20 22 34 46
5 3 2 2 2 3 4 3 4 20 26 48 80 92 56 9 6 18 52 31 11 5 5 8 11 9 10 10 9 6 6 5 4 5 12 15 14 11 12 17 18 15 13 15 20 22 30 33 40
8 6 4 3 3 2 2 2 3 9 29 34 67 76 37 6 8 41 47 29 27 28 48 27 40 38 23 22 21 23 19 14 12 6 6 6 6 7 9 16 21 19 15 14 20 28 33 42 40
11 11 8 6 4 4 4 3 2 4 14 39 78 64 68 37 12 14 24 41 45 58 72 55 42 32 26 20 23 31 38 38 36 28 24 13 11 13 14 18 25 21 15 14 21 30 43 51 54
12 10 9 8 8 6 5 4 4 3 5 20 64 64 90 84 56 80 76 89 94 90 76 76 42 43 33 27 32 35 35 38 40 36 35 39 36 37 37 32 30 24 19 16 23 35 42 55 55
17 15 15 13 10 8 7 6 5 4 3 5 27 61 74 83 84 100 100 99 96 97 93 61 61 53 45 38 33 32 27 21 19 18 17 20 24 30 48 48 35 27 19 20 24 32 46 51 52

GFSSGP_500_rhum_030.txt.gz
RH
67 75 82 85 93 88 89 86 81 77 75 70 66 69 80 84 85 83 85 87 91 99 98 92 76 50 36 25 16 13 13 13 16 16 23 25 20 17 14 24 39 45 47 49 54 64 72 77 52
59 60 78 80 89 97 85 88 88 84 80 76 70 70 70 71 92 86 94 91 95 85 80 89 58 31 26 17 15 15 12 12 16 20 24 22 21 19 18 20 24 36 42 49 55 61 62 67 77
72 90 88 95 90 92 83 87 87 81 80 76 70 68 68 78 79 85 90 93 88 82 86 83 40 23 20 18 18 17 13 14 18 26 29 29 26 23 21 20 22 21 22 27 33 53 58 56 66
92 99 95 99 96 83 84 90 84 78 75 73 77 70 73 82 90 84 71 69 50 59 67 46 23 19 22 22 26 27 17 16 30 34 37 38 40 33 29 27 34 24 22 22 22 26 37 58 75
97 97 94 89 91 86 85 94 88 83 78 70 72 70 74 84 72 46 52 45 40 44 45 29 20 22 24 30 40 36 19 31 34 40 47 58 56 50 50 54 44 43 44 45 52 53 45 45 41
95 87 86 94 62 66 82 85 76 69 70 70 68 67 74 71 52 35 28 29 29 36 23 22 23 26 29 36 36 24 38 39 40 45 46 43 38 35 36 38 41 39 38 37 18 10 8 6 7
80 71 62 60 48 32 61 72 71 65 64 63 66 62 55 51 41 32 30 27 28 26 14 20 26 30 34 37 33 38 44 48 37 22 16 12 18 23 32 31 18 27 19 10 10 13 17 14 23
63 62 53 48 28 15 20 40 47 51 55 53 62 62 51 45 42 33 22 27 29 22 14 23 28 33 38 40 36 40 29 12 10 8 9 7 8 25 25 14 12 20 21 15 7 8 8 19 17
85 56 56 46 28 27 27 27 22 36 47 44 56 54 56 46 32 24 24 21 24 17 18 26 27 32 36 34 33 15 8 5 5 15 24 22 14 12 14 11 22 10 20 16 14 7 7 7 9
89 83 81 56 31 16 14 7 18 32 48 45 42 52 43 29 28 32 27 21 20 14 22 26 24 22 26 30 17 19 13 9 14 17 12 10 12 9 9 8 16 8 6 5 5 7 8 8 7
83 98 74 53 42 14 8 5 5 38 46 30 35 34 39 32 33 36 34 20 17 16 24 26 25 20 16 10 16 26 27 42 33 30 31 28 24 18 11 10 11 13 10 8 6 6 8 8 9
88 71 61 51 46 20 8 8 4 6 10 6 8 26 30 31 32 36 35 28 16 20 23 25 25 19 12 12 21 51 45 40 41 34 30 20 17 17 21 25 29 29 28 17 13 22 20 7 8
86 77 59 52 52 36 19 7 7 7 8 7 3 3 12 23 28 32 33 31 19 22 22 24 22 17 12 13 22 38 37 35 33 26 21 16 13 18 30 26 19 12 11 10 34 31 18 19 6
83 79 60 49 44 41 40 14 17 20 9 6 4 4 3 6 17 32 32 27 22 22 20 23 22 17 18 12 21 32 36 32 28 26 23 26 29 23 28 25 20 19 18 16 33 30 16 5 5
63 73 72 57 44 40 52 42 51 50 43 24 6 5 3 4 7 16 15 19 18 23 18 21 23 22 24 20 18 32 28 33 31 29 33 30 30 24 23 41 12 9 17 39 27 36 20 6 5
21 28 33 75 52 53 54 75 87 66 54 39 10 5 4 7 8 8 10 13 19 20 20 14 21 22 24 21 15 25 33 36 39 22 28 24 26 26 24 51 11 16 24 26 28 28 20 10 12
14 19 24 70 66 80 59 69 85 81 59 49 16 7 5 5 8 9 11 14 25 17 20 14 20 20 21 16 14 21 26 31 47 22 29 26 30 32 16 9 20 10 8 27 19 17 28 36 35
11 15 21 66 69 68 72 68 84 86 66 54 20 6 7 6 9 11 12 16 20 13 15 12 16 15 17 18 14 13 13 16 32 21 30 23 15 8 7 18 27 10 8 16 29 32 33 29 27
10 15 22 65 70 63 70 79 74 90 75 61 38 5 6 8 10 11 12 17 15 19 10 7 13 16 13 16 18 14 14 17 26 18 26 14 8 7 12 14 25 12 8 36 24 20 13 25 24
4 12 20 44 71 66 54 84 81 83 80 84 60 7 6 8 10 11 12 18 16 20 10 12 15 14 4 5 7 12 12 25 19 14 16 7 9 12 16 28 44 25 7 18 29 23 21 25 34
2 6 20 23 72 60 59 55 80 82 82 82 62 19 11 8 9 10 12 12 12 24 16 13 15 7 6 13 20 26 33 27 9 8 7 9 11 12 12 38 14 15 9 16 17 12 25 25 26
2 4 18 27 46 59 54 43 60 62 83 56 55 84 54 16 9 8 11 9 6 20 15 12 11 11 11 22 41 37 24 19 9 6 8 10 11 11 12 18 10 9 5 14 24 11 21 30 31
2 2 6 23 33 57 51 36 42 56 66 53 75 82 39 38 7 7 9 6 6 11 13 7 6 4 3 7 18 25 15 8 6 6 8 10 10 12 11 11 9 9 5 10 9 10 14 17 28
3 2 3 9 25 23 20 23 17 34 44 63 77 85 49 14 6 6 6 5 6 4 4 3 2 3 3 5 8 12 14 9 10 13 12 14 14 15 15 13 11 12 6 9 7 12 15 17 30
2 2 2 3 5 3 11 13 8 26 47 66 76 78 49 29 4 4 4 5 5 4 3 3 3 3 4 4 3 3 3 6 12 13 16 18 15 16 18 14 15 17 9 11 10 12 19 20 22
3 2 2 2 2 4 3 3 6 16 29 57 62 81 54 18 3 3 3 2 2 2 2 3 3 3 3 3 3 2 2 3 3 4 10 15 16 12 13 13 16 22 15 11 10 15 20 23 24
6 4 3 3 2 3 4 2 3 9 25 35 46 68 34 17 4 2 3 3 2 2 3 4 4 5 5 5 4 4 5 4 4 4 5 6 6 7 8 12 11 22 22 11 10 17 19 23 31
12 10 7 5 4 3 3 3 3 5 17 31 48 55 50 29 6 4 14 16 11 9 10 6 7 12 25 25 21 18 19 21 18 13 9 7 8 11 10 10 12 21 29 13 12 15 19 19 26
13 13 8 8 6 5 5 7 4 3 9 27 34 47 57 65 17 5 22 22 37 34 33 34 26 18 26 26 22 22 27 32 37 40 41 37 32 34 34 29 25 26 32 26 12 16 17 19 24
18 16 13 11 8 7 7 17 5 4 4 20 34 48 60 70 59 52 24 28 39 38 41 48 66 43 35 36 32 24 21 28 32 37 40 38 34 29 31 34 37 40 40 33 15 16 19 20 24

GFSSGP_500_rhum_033.txt.gz
RH
68 79 83 85 90 94 89 95 84 81 76 75 87 92 90 93 90 93 85 94 97 97 91 81 47 30 24 18 12 12 10 10 17 22 24 19 15 24 40 44 50 60 56 54 63 66 74 61 38
66 71 86 83 98 85 86 81 86 81 77 71 77 85 92 84 83 78 86 86 91 96 96 74 30 24 18 14 13 10 8 12 16 20 21 19 17 16 22 31 45 48 48 52 66 64 69 67 72
81 70 81 89 82 96 82 86 86 79 78 78 73 84 78 73 81 80 83 86 82 89 89 66 28 20 15 16 15 11 10 16 21 24 25 23 19 18 20 26 30 30 38 41 52 57 48 50 68
90 78 81 98 95 98 82 87 86 81 76 72 66 72 73 69 74 82 83 81 63 87 73 38 20 19 19 22 24 15 13 25 30 32 31 31 26 23 28 37 22 21 21 20 24 36 55 61 47
88 82 94 97 97 91 93 88 84 79 73 72 66 63 70 73 78 70 67 46 74 55 43 23 28 23 24 31 35 16 23 32 38 48 54 48 45 44 50 38 40 39 46 49 41 22 12 8 14
74 87 95 97 85 79 85 88 84 83 77 69 65 60 66 72 56 45 39 27 33 42 24 18 24 24 30 36 30 23 34 37 45 45 39 33 37 37 38 37 37 36 21 11 9 7 12 13 14
76 98 97 86 91 50 66 74 77 65 66 63 60 59 57 55 39 30 26 22 29 26 14 20 24 31 33 31 31 39 41 43 24 14 15 22 27 24 21 24 18 11 9 10 17 15 22 28 14
71 96 66 69 97 82 30 58 66 52 52 54 54 61 52 42 34 32 22 22 30 16 14 23 28 34 35 34 40 43 30 11 6 6 12 25 24 15 12 21 22 18 10 7 7 8 7 11 12
43 87 96 92 74 70 18 27 39 40 45 47 49 58 49 42 35 20 19 24 25 14 20 26 30 36 37 36 30 11 7 8 8 6 13 36 20 26 17 16 11 21 14 10 6 6 7 7 7
46 97 84 99 81 89 32 26 20 30 32 38 42 45 55 45 26 24 22 22 21 15 24 26 26 32 32 22 8 4 6 14 14 10 14 67 10 10 9 17 8 6 6 6 6 7 8 9 8
57 97 97 83 40 77 56 37 8 14 27 38 36 38 48 33 26 29 20 18 17 16 25 26 21 25 28 12 15 7 13 14 14 19 48 19 14 20 29 12 16 18 16 17 50 16 8 7 8
72 82 94 83 42 36 79 84 58 40 34 36 27 33 41 31 30 30 28 18 18 17 25 25 19 20 14 18 24 30 32 28 25 28 25 18 19 20 51 31 27 24 15 21 32 17 22 13 6
67 76 74 53 52 37 24 85 100 13 11 9 8 17 27 33 30 28 30 24 17 18 24 25 18 12 8 24 46 41 33 36 28 23 14 13 21 26 31 21 15 15 14 16 35 25 19 10 5
88 83 73 58 60 44 24 74 21 42 7 6 5 3 7 20 27 27 28 26 18 19 22 24 17 12 13 20 41 37 32 26 19 17 16 16 22 30 28 22 18 16 20 26 38 34 12 4 4
56 68 80 58 57 53 44 66 45 64 14 10 7 3 2 3 14 24 19 21 21 20 20 23 16 15 11 18 29 36 31 26 26 25 26 30 24 21 55 28 12 9 39 24 31 22 15 8 6
25 63 75 62 57 53 53 94 53 50 24 28 17 6 3 2 3 6 16 16 18 19 17 22 20 18 18 15 32 32 29 33 25 30 27 28 25 24 53 38 10 9 25 24 24 20 20 25 25
17 39 64 92 66 68 64 88 97 76 46 35 28 9 4 3 5 7 8 12 16 20 13 21 21 21 23 13 24 27 31 35 32 23 23 25 27 27 10 30 35 8 10 21 25 26 27 25 17
11 16 85 92 95 81 85 74 95 97 96 57 51 20 6 3 6 6 8 12 17 20 15 14 19 20 18 14 18 27 29 29 34 19 31 24 16 7 10 42 12 8 14 28 22 17 17 18 24
12 74 76 83 90 92 90 95 78 98 92 79 58 40 8 4 7 9 10 12 21 15 16 12 16 18 20 17 13 13 12 15 24 17 25 18 7 8 36 15 22 13 16 16 25 15 22 27 33
4 42 72 81 87 97 96 96 96 97 99 90 75 61 35 5 7 10 12 14 16 12 14 12 12 15 14 13 11 12 13 16 22 18 16 8 9 12 13 53 18 18 30 28 13 18 26 28 38
2 3 49 70 82 86 97 95 97 96 100 88 82 56 51 9 9 10 11 16 16 17 10 7 10 15 11 4 5 12 12 20 17 10 7 8 12 11 28 28 9 10 6 46 12 11 24 26 24
2 2 9 64 76 75 84 86 88 82 94 96 80 60 41 14 9 10 11 12 12 20 12 13 8 10 4 10 12 17 18 16 6 6 7 9 11 10 12 21 10 10 8 38 22 8 14 23 27
2 3 4 14 62 75 74 81 78 87 84 90 84 67 44 22 9 10 10 11 12 15 14 9 6 6 8 16 32 24 22 18 12 7 8 9 22 11 11 9 19 8 5 12 16 13 13 15 22
3 3 2 6 20 36 49 60 62 68 78 93 91 73 50 23 21 11 9 10 9 8 10 6 7 9 17 31 34 22 14 10 10 9 10 11 13 13 14 13 13 21 6 9 8 10 12 14 20
4 2 3 6 5 5 25 19 25 67 69 79 90 92 70 48 17 7 8 8 4 4 10 6 5 5 8 15 16 15 13 8 10 11 13 13 15 15 17 18 24 18 15 6 9 8 11 14 20
4 3 2 2 4 11 7 12 8 32 71 72 87 91 87 64 31 4 6 7 4 5 5 4 3 3 3 4 4 4 5 6 8 9 10 11 12 12 16 15 13 13 22 14 7 9 10 13 17
8 4 3 33 34 28 26 22 14 47 55 32 63 72 90 78 46 4 4 4 5 5 4 3 3 3 3 2 2 3 3 4 3 3 4 5 7 7 7 9 9 11 14 24 11 8 12 13 20
13 10 7 13 36 35 33 34 35 11 7 23 22 38 65 76 54 6 3 3 3 3 2 2 3 3 2 3 4 4 5 6 6 6 6 6 7 9 10 9 10 12 14 24 27 10 10 9 16
12 12 11 10 8 35 41 33 32 39 8 12 23 31 57 53 51 17 2 3 2 2 2 2 2 2 3 6 12 24 23 20 18 20 22 20 16 16 16 22 26 28 28 26 32 22 10 10 14
16 14 11 8 8 11 35 35 33 32 8 11 24 35 39 41 53 59 6 9 10 5 4 4 9 9 10 15 31 28 22 18 17 24 24 25 31 30 31 31 31 33 35 38 39 37 12 12 12

GFSSGP_500_rhum_036.txt.gz
RH
67 78 84 90 90 97 97 84 98 91 94 84 91 83 97 97 99 98 92 96 97 90 72 38 30 24 17 12 10 10 8 11 17 19 19 16 19 30 37 48 49 51 51 51 61 68 67 50 42
57 78 85 97 93 98 97 70 89 76 80 71 82 92 88 94 86 84 95 89 97 84 73 30 26 18 14 15 10 8 7 13 16 20 19 16 16 24 30 36 40 39 37 49 49 46 51 55 82
51 60 78 92 96 99 79 83 78 80 75 72 76 85 88 80 81 79 80 79 74 75 69 29 20 18 24 18 11 7 11 18 20 22 20 17 17 19 25 28 28 29 29 30 36 40 53 65 65
57 76 82 98 98 88 87 91 80 80 77 74 66 71 70 83 82 80 82 80 69 64 51 21 15 18 22 22 16 9 20 24 28 28 26 22 21 24 28 20 19 19 23 33 45 36 14 18 29
85 95 98 94 95 86 91 87 86 79 71 71 64 57 59 66 72 74 75 67 65 44 40 20 26 21 27 32 19 14 27 34 40 42 37 37 41 35 30 32 37 45 39 16 7 9 12 15 22
87 97 97 87 84 79 94 90 79 79 69 66 61 56 58 54 56 50 61 32 38 37 20 16 24 25 34 34 15 27 32 43 46 30 34 38 37 36 36 30 15 10 11 12 15 26 25 11 18
71 81 88 98 95 66 75 81 80 79 68 66 58 55 57 50 41 39 30 28 38 21 14 18 23 28 34 21 30 33 39 36 21 19 25 27 24 24 18 11 9 8 9 8 11 11 12 8 10
91 97 97 97 100 94 34 68 64 60 53 53 53 54 54 47 37 28 28 23 23 13 14 23 28 30 30 32 38 39 27 12 12 23 20 14 18 23 23 20 14 10 6 6 6 6 7 7 7
78 96 89 99 95 98 39 18 24 26 28 32 41 44 48 45 36 30 19 27 16 12 21 26 29 34 32 38 32 19 9 5 12 24 19 32 32 17 10 15 11 6 5 5 6 8 7 7 10
63 89 97 94 98 96 99 34 28 35 25 18 33 38 44 47 40 20 17 18 13 16 24 26 30 30 33 23 8 9 7 6 13 58 31 55 30 14 11 9 7 7 7 10 12 9 23 10 8
46 78 70 66 75 89 96 40 15 9 8 11 23 38 37 50 39 21 21 17 12 18 22 21 26 27 17 6 5 11 10 10 12 66 52 92 59 27 17 22 24 19 24 53 52 22 9 7 8
58 88 77 73 42 63 98 91 63 23 28 22 27 27 32 44 31 24 22 18 14 18 21 17 21 24 10 8 6 14 14 17 22 21 56 83 42 72 76 33 16 34 34 57 30 20 10 5 6
66 69 95 94 70 44 80 86 97 72 7 11 25 18 18 38 33 28 27 22 15 17 20 17 17 16 13 22 30 30 27 24 24 16 12 64 28 44 20 24 32 18 36 76 35 26 10 7 6
84 95 98 83 98 68 41 67 80 72 9 5 4 4 5 14 31 30 30 26 16 17 22 18 12 6 18 35 42 36 35 26 19 11 11 19 25 26 23 15 11 13 34 33 30 18 16 6 5
84 93 86 94 92 96 52 95 84 97 65 13 9 4 3 3 6 23 25 26 21 17 21 20 13 9 14 35 37 34 26 17 16 19 25 25 22 30 47 25 11 21 28 26 24 22 16 13 14
26 59 72 86 97 77 48 67 88 46 43 30 22 13 5 3 2 5 10 17 22 18 17 20 15 12 12 24 32 27 21 22 24 25 27 26 23 25 40 26 21 13 22 19 19 15 24 29 28
14 21 29 92 73 66 44 81 92 92 96 45 32 34 11 5 3 3 4 10 16 19 16 19 16 15 12 24 28 23 24 21 19 22 20 24 24 17 18 59 18 15 23 24 20 10 12 14 18
8 10 39 90 93 76 79 71 93 69 66 69 43 40 29 6 4 5 5 6 10 18 16 18 18 18 13 22 24 24 27 28 21 21 26 17 9 6 18 32 18 12 24 24 19 16 21 22 23
10 21 28 90 84 95 64 86 83 75 91 98 47 40 50 45 13 5 5 4 11 18 14 16 16 20 17 12 22 25 19 22 17 15 18 8 5 8 22 53 32 18 30 21 15 22 24 31 35
4 16 76 73 93 86 95 72 98 67 45 90 95 50 49 49 21 6 8 9 11 21 15 11 16 18 19 12 15 14 11 14 14 12 10 5 6 14 58 24 19 16 26 26 13 14 22 22 36
2 3 33 74 81 94 94 94 93 88 90 78 70 85 43 48 27 6 10 11 13 19 14 13 12 14 17 15 10 10 12 15 14 8 6 7 10 9 66 26 23 22 29 44 13 8 17 22 22
2 2 9 79 72 77 94 85 76 98 88 94 84 76 37 55 41 7 9 11 14 14 11 10 8 11 9 11 11 10 10 11 8 5 6 10 9 9 37 15 8 16 17 34 21 10 14 15 22
2 5 3 58 75 71 72 78 79 83 69 90 98 78 72 49 53 10 9 11 13 14 15 7 7 8 6 3 4 8 11 11 7 6 8 10 11 11 10 12 24 20 5 26 14 10 12 10 21
3 6 20 10 64 64 66 77 74 74 75 71 78 87 81 62 46 21 10 10 11 11 16 13 14 7 4 6 8 16 15 10 7 9 10 11 18 16 13 14 20 28 17 12 12 18 9 9 17
4 4 24 29 12 10 40 65 45 72 86 91 94 89 96 68 44 32 9 8 10 9 9 14 9 5 5 12 25 14 7 6 10 9 10 12 12 14 14 15 21 14 16 12 5 7 8 9 16
6 4 2 4 7 21 18 13 7 43 68 85 90 96 94 72 59 21 8 7 8 8 5 8 11 8 8 16 30 19 6 7 8 9 10 10 10 11 14 14 15 12 14 19 11 5 8 8 12
13 6 6 12 34 34 32 26 21 28 44 68 71 75 89 76 75 35 40 5 7 6 3 7 7 5 4 7 12 12 10 9 8 7 6 6 6 8 8 8 10 10 11 13 23 13 7 10 9
14 22 12 18 34 39 37 33 31 25 16 39 67 72 84 85 74 51 53 6 6 5 4 4 3 2 2 3 4 3 3 3 3 3 4 4 4 5 6 8 9 10 12 15 21 27 13 10 10
20 41 25 17 13 42 44 33 34 35 34 40 55 44 80 85 72 56 52 32 4 4 5 4 3 2 2 3 2 3 4 8 21 20 16 17 16 16 13 13 12 17 24 29 29 29 31 11 12
28 20 18 13 13 33 40 40 38 36 36 35 16 30 59 90 98 76 47 46 3 3 3 2 2 2 2 2 3 5 13 24 20 15 16 20 23 29 28 29 24 28 30 30 33 32 36 30 10

GFSSGP_500_rhum_039.txt.gz
RH
74 88 86 93 96 94 97 94 96 98 87 74 96 81 87 84 98 90 84 88 77 61 42 28 23 16 12 9 9 14 12 15 19 18 18 14 27 43 43 42 45 46 48 54 55 60 61 61 49
72 84 87 90 97 97 93 98 98 80 80 81 94 96 92 84 89 85 93 82 79 65 44 23 19 19 16 10 8 8 12 16 19 20 17 18 32 28 32 37 37 34 43 46 42 45 56 63 72
60 76 81 88 96 90 93 76 80 79 83 89 100 88 89 75 78 78 85 80 70 59 34 16 21 25 20 11 7 9 17 20 21 20 17 16 21 26 28 27 26 22 26 34 43 37 28 30 45
57 72 82 87 98 96 89 72 84 76 69 74 80 79 70 63 75 77 84 75 56 40 26 15 18 23 22 15 8 17 23 26 27 22 19 19 21 22 19 19 20 30 40 14 9 15 18 22 29
68 86 96 97 96 89 86 83 76 74 74 71 60 62 61 56 65 72 78 66 37 33 21 27 23 26 30 22 11 26 32 36 35 34 32 32 28 25 29 40 38 13 6 15 22 12 9 18 38
77 86 89 97 91 98 87 67 72 74 77 67 63 58 58 50 52 50 55 37 31 26 15 23 24 29 35 16 19 30 40 38 30 36 37 35 38 38 23 11 10 12 13 15 13 9 8 15 27
93 94 96 95 91 81 96 91 71 82 68 67 64 56 53 48 45 40 37 29 28 15 16 22 23 32 25 17 28 31 30 19 26 26 26 23 19 16 10 8 6 6 6 7 8 6 7 13 16
89 93 89 95 97 97 43 96 75 46 55 56 56 52 52 51 42 32 26 19 18 11 18 23 26 29 23 29 29 20 13 20 20 18 19 16 16 15 16 12 7 6 6 6 6 7 9 12 21
98 97 94 95 94 98 60 59 43 46 39 34 39 50 47 47 43 34 27 21 13 14 20 25 29 31 31 34 15 7 14 21 15 17 18 13 10 17 10 6 5 6 8 9 10 22 10 9 10
76 96 96 96 94 97 97 94 31 20 33 27 28 41 45 39 45 41 21 22 11 16 20 24 30 29 32 12 6 5 12 21 20 36 71 23 18 18 17 18 24 17 34 56 10 19 8 24 10
57 80 81 95 85 91 92 94 21 8 9 9 14 22 32 35 47 42 19 18 11 16 17 24 26 29 15 6 8 5 9 21 72 66 45 49 36 37 22 19 26 45 73 56 26 12 6 7 8
51 76 85 84 52 84 89 100 78 8 17 8 12 22 25 29 42 36 22 20 13 16 16 20 24 14 5 6 10 10 10 15 34 42 60 54 72 44 34 28 43 32 55 40 21 12 5 6 7
53 75 97 93 73 61 60 89 94 48 13 4 9 14 6 12 31 32 26 24 14 17 17 16 20 9 7 7 16 13 18 24 24 28 66 43 50 25 24 14 23 27 84 37 30 14 10 4 4
53 71 100 97 77 61 68 51 60 51 16 11 6 5 4 4 9 24 29 27 20 16 17 14 15 10 18 24 29 29 26 22 10 12 22 48 35 32 32 20 19 33 30 29 31 24 13 12 7
46 72 96 96 98 93 97 47 74 39 77 31 20 17 6 2 2 7 17 25 25 16 17 15 9 8 28 38 34 33 26 13 15 21 24 20 28 49 45 30 18 25 24 19 16 21 23 23 20
41 49 75 78 99 86 87 79 36 34 59 40 38 29 18 4 2 2 4 11 21 18 17 17 11 8 23 39 36 26 17 18 20 23 24 22 20 39 58 57 23 14 22 21 14 10 10 14 16
9 18 31 65 92 99 88 76 66 92 65 90 68 35 26 5 4 3 2 3 8 18 17 18 14 11 15 31 29 20 19 20 20 18 22 23 18 18 52 19 19 23 17 14 12 22 21 14 16
4 8 13 50 67 84 68 61 93 85 66 80 86 64 46 42 28 2 4 4 6 14 17 18 15 13 12 27 24 21 21 19 19 21 21 10 6 14 37 45 24 30 27 15 20 23 29 33 16
8 16 15 23 76 88 65 58 97 82 84 61 74 73 73 49 38 3 4 4 6 12 16 17 16 16 13 25 26 23 26 26 16 20 21 9 6 24 52 30 33 22 29 14 17 18 26 36 22
3 6 9 26 70 100 69 75 100 86 76 66 63 93 81 56 50 14 5 6 3 12 16 13 16 17 15 18 24 23 18 20 15 14 12 6 8 29 42 26 20 31 44 18 9 18 17 28 38
2 2 4 12 76 99 96 84 97 97 99 94 84 80 56 63 51 33 6 8 10 14 18 11 14 17 14 10 17 20 12 14 14 11 7 5 8 41 42 18 22 18 37 28 8 10 14 21 21
2 2 3 12 81 88 95 90 85 99 97 89 99 46 54 99 55 40 7 10 10 15 19 13 10 12 12 9 11 11 11 12 10 8 6 8 8 35 22 10 12 16 20 23 12 9 11 16 24
2 3 3 7 73 82 97 91 84 86 96 80 91 49 65 61 56 38 13 9 11 14 14 12 10 9 9 11 9 9 10 10 8 5 5 9 9 9 12 10 21 14 10 25 9 8 8 8 16
3 4 6 16 64 75 81 87 75 67 61 80 77 55 67 58 57 58 12 10 11 11 11 11 8 6 6 7 8 8 9 8 6 6 7 10 15 19 11 13 23 22 15 9 6 12 6 7 13
5 7 10 8 45 24 60 78 60 85 79 68 66 79 80 59 29 43 38 12 10 11 11 15 8 11 8 6 3 5 12 7 8 11 11 11 12 14 14 13 17 13 16 11 6 5 6 6 11
6 4 3 4 5 12 26 16 18 62 79 83 88 91 82 74 61 34 38 10 6 11 9 9 14 15 8 4 7 14 13 6 8 10 10 11 11 10 12 12 13 13 14 15 14 8 5 8 8
12 9 8 10 9 11 8 9 21 29 45 65 64 97 84 76 57 28 38 17 5 8 8 8 10 6 6 6 11 31 14 8 8 8 8 8 8 9 9 9 10 10 14 16 19 20 11 6 10
14 36 20 14 18 29 13 20 6 16 14 40 57 81 81 75 63 19 43 28 6 6 7 4 5 7 7 8 15 21 13 10 7 5 4 3 4 4 4 6 8 10 13 15 19 23 27 18 8
24 42 30 24 18 23 19 31 37 38 34 31 30 76 75 80 69 17 44 63 50 4 6 4 6 7 5 4 8 6 3 2 3 5 13 16 14 14 11 8 10 12 13 19 27 27 28 31 19
49 30 26 24 15 11 24 36 44 40 33 35 35 34 69 72 75 23 36 58 70 8 4 5 4 4 2 2 3 2 2 4 17 20 17 13 14 17 21 26 23 20 18 18 16 17 22 26 28

GFSSGP_500_rhum_042.txt.gz
RH
75 77 83 85 88 93 95 99 87 97 91 94 87 83 91 84 81 85 81 72 62 44 32 23 17 14 9 8 11 12 16 19 20 18 15 31 47 51 44 49 49 48 53 49 50 52 58 71 48
67 76 84 93 94 96 98 97 95 88 84 92 82 88 86 87 79 86 87 74 62 42 24 18 18 15 10 7 8 13 17 20 20 17 18 32 36 42 40 38 35 47 50 43 45 53 57 56 75
58 79 96 96 98 94 97 94 100 86 82 73 80 91 74 85 82 84 77 73 58 33 18 21 25 20 11 6 11 15 19 21 20 17 18 27 27 32 33 29 27 27 38 30 20 22 22 28 50
46 76 91 94 95 97 81 88 81 82 76 71 74 70 70 82 80 84 82 68 46 26 15 18 24 22 16 8 16 21 26 25 19 17 18 20 22 18 18 18 33 21 9 13 12 13 24 42 45
41 59 99 97 97 90 94 82 81 85 79 72 62 59 58 69 78 78 77 52 40 25 23 20 26 28 20 10 24 32 33 30 24 22 27 28 20 22 32 16 7 15 23 20 8 12 27 45 64
50 78 90 98 96 83 86 77 88 76 70 69 64 58 59 60 63 58 54 35 33 17 24 25 26 32 17 15 30 35 35 36 35 33 32 32 29 15 9 10 12 12 10 7 7 14 23 42 64
88 90 98 93 99 96 86 81 79 74 75 68 67 60 61 61 50 42 34 29 27 15 19 23 27 28 15 27 29 23 25 28 28 25 17 15 10 9 6 5 5 5 6 6 8 12 29 43 62
90 97 94 97 93 85 79 82 95 78 67 58 55 56 52 58 44 36 27 27 19 14 20 24 28 20 24 28 18 14 21 22 20 14 8 10 14 11 7 5 7 6 7 12 10 9 17 20 54
82 82 85 89 90 87 74 68 88 86 40 46 53 49 48 49 44 33 25 24 13 18 23 26 28 26 28 16 8 17 16 17 17 14 10 13 11 7 6 5 8 21 9 18 16 19 9 15 48
84 95 93 89 94 95 97 73 35 37 15 34 36 37 46 47 44 38 20 26 12 19 26 28 31 27 21 7 11 13 16 25 37 43 21 16 18 18 22 24 23 42 27 13 7 9 9 8 19
72 72 72 77 93 80 63 78 18 10 14 14 20 32 41 45 48 37 17 26 12 19 24 30 27 19 6 5 10 14 40 60 50 46 46 35 28 18 31 41 59 69 44 20 8 5 8 9 8
55 64 52 57 91 100 83 58 82 18 12 13 24 32 26 42 42 22 22 18 13 19 21 24 26 7 7 5 6 17 38 47 56 46 56 46 38 30 40 23 62 61 46 28 16 7 5 6 8
42 49 59 68 65 54 88 76 78 39 5 5 9 23 20 33 38 26 24 21 14 20 18 23 13 5 8 8 8 10 20 31 36 65 43 45 21 27 19 31 45 30 26 32 24 10 6 4 7
51 62 61 95 81 44 52 57 54 24 35 12 12 7 7 17 29 31 30 25 16 19 17 21 10 7 9 14 12 19 23 16 17 34 45 26 38 40 28 30 27 25 22 21 22 17 19 15 5
38 47 37 67 67 69 42 26 48 64 69 31 26 24 10 4 16 27 31 29 24 18 18 19 9 16 17 29 25 23 16 11 16 21 21 38 50 62 33 15 22 26 22 18 12 17 17 17 22
13 20 12 30 86 87 69 29 39 54 78 53 35 32 22 6 4 5 18 31 27 18 19 15 9 21 32 32 30 23 14 17 24 24 18 17 55 52 20 23 19 18 18 18 13 24 7 7 16
12 8 11 49 89 98 98 82 53 32 50 60 57 34 15 6 5 4 4 17 28 20 19 17 8 13 33 35 26 15 19 21 18 21 22 15 28 33 26 21 24 21 14 20 25 25 18 8 8
4 4 10 25 75 65 92 89 71 37 49 62 73 67 44 44 32 4 4 4 16 21 18 19 12 10 16 31 23 18 18 18 18 19 16 6 19 42 48 34 31 20 20 26 22 32 24 12 12
12 10 6 33 37 94 57 78 80 62 44 64 76 62 61 37 37 7 4 4 5 19 18 20 15 12 17 30 22 20 18 18 18 13 8 6 26 47 27 22 26 43 15 17 18 28 23 20 22
4 8 8 38 32 48 74 99 93 81 43 46 36 93 79 41 32 9 5 5 5 9 18 18 16 14 15 25 19 22 23 18 14 11 6 7 27 42 20 28 32 44 23 10 11 14 25 31 38
3 3 8 10 41 34 85 96 96 93 82 55 52 76 82 71 71 20 8 8 4 5 17 17 17 16 14 20 20 22 19 17 12 10 6 6 24 51 17 17 16 28 31 11 7 9 13 18 29
2 3 4 12 35 28 84 86 98 93 88 56 56 72 60 50 73 40 10 10 9 10 18 13 15 17 12 17 21 21 13 12 11 9 6 8 17 42 13 12 13 14 25 17 8 10 9 10 13
3 3 4 11 31 75 86 83 91 83 75 49 48 68 82 63 65 60 8 10 11 11 19 13 12 13 12 8 13 13 11 12 14 8 4 8 10 24 10 18 16 14 19 16 13 11 8 10 14
6 5 4 10 52 66 78 83 63 82 68 65 62 79 65 62 76 71 24 9 12 12 15 14 12 9 11 9 9 8 10 11 10 5 5 9 9 12 11 12 23 18 13 9 5 8 6 9 13
10 7 6 15 52 46 40 79 28 48 68 68 68 83 68 58 80 91 76 17 12 11 13 10 11 10 9 9 9 8 9 10 7 6 7 10 13 19 12 12 20 13 15 12 8 5 5 8 10
14 8 4 3 7 10 10 27 17 54 86 71 82 76 76 75 72 66 93 54 15 11 12 14 9 7 7 8 6 5 6 10 8 8 10 11 12 12 12 12 13 14 14 15 15 11 7 6 10
20 7 8 5 7 5 12 8 22 37 45 61 36 94 62 80 74 69 90 55 9 10 11 11 15 10 14 9 5 4 10 13 9 8 9 10 11 11 10 9 11 11 12 16 18 20 20 14 6
15 18 13 8 8 8 5 5 6 18 22 26 47 42 26 43 69 71 59 68 39 10 10 9 9 14 12 8 5 15 19 6 6 9 9 9 8 7 6 6 7 8 10 12 16 21 23 24 20
22 23 23 25 13 10 6 3 6 15 20 30 43 59 36 22 48 52 63 70 79 8 8 8 8 7 7 5 7 22 28 13 9 9 5 4 4 4 5 6 5 6 10 12 14 21 28 29 30
59 28 48 36 14 11 6 19 22 11 20 23 31 62 52 20 45 37 85 74 74 16 6 7 4 5 8 7 7 10 10 10 5 3 12 19 17 17 17 16 16 14 13 15 18 20 24 28 27

GFSSGP_500_rhum_045.txt.gz
RH
87 88 87 85 96 89 96 96 100 98 89 84 86 82 85 84 91 84 73 62 51 35 35 26 16 11 8 9 11 15 17 17 16 16 25 46 49 45 45 38 38 43 43 41 44 54 71 74 46
91 87 93 99 96 96 97 98 99 98 97 95 97 84 83 82 86 90 85 71 52 30 23 18 15 11 8 10 14 19 21 20 20 21 27 30 37 34 31 30 40 41 40 57 51 54 45 62 83
81 77 85 97 98 96 98 98 92 84 84 78 80 80 82 82 85 89 78 72 48 22 21 23 20 13 8 10 16 21 22 21 17 27 25 30 29 31 29 26 27 33 17 27 22 32 26 34 67
62 68 82 84 98 92 97 93 78 77 84 75 69 64 70 85 89 87 77 64 40 17 21 25 23 16 8 15 18 23 23 20 17 17 22 24 20 17 17 30 16 11 15 10 16 36 51 63 61
49 62 70 88 93 97 91 89 78 81 69 66 61 59 68 89 89 80 70 52 34 19 19 24 25 18 9 21 25 30 27 21 19 21 22 21 20 28 24 9 18 18 8 13 30 42 55 62 73
51 67 94 92 95 95 96 96 98 95 85 75 67 71 65 71 84 68 53 40 29 24 25 26 30 20 13 29 36 32 32 30 30 30 30 30 26 9 9 15 12 8 7 23 33 52 59 70 74
66 82 90 88 98 85 98 96 96 89 70 78 83 72 64 63 59 46 35 35 23 18 24 26 33 15 23 36 34 30 37 35 33 32 18 11 10 9 12 6 6 6 8 12 26 36 51 70 63
91 95 88 94 98 93 90 99 84 76 75 69 66 64 65 55 50 40 26 34 16 18 22 26 29 17 30 33 20 31 32 24 15 11 11 12 8 9 20 8 8 14 11 10 13 46 56 53 50
99 84 88 94 95 90 92 95 88 71 47 59 60 63 54 46 41 31 25 26 13 21 24 28 22 28 30 17 21 25 20 11 13 15 12 7 5 5 6 18 30 12 18 18 20 27 45 46 47
95 84 86 93 100 96 91 84 78 44 38 46 43 45 51 46 39 34 22 24 15 23 27 29 27 30 17 14 20 18 17 16 19 16 15 16 16 20 20 24 43 23 9 7 8 8 8 14 36
71 74 78 82 99 97 84 44 25 17 12 26 29 40 44 49 44 34 18 24 16 23 28 33 31 20 8 17 14 22 37 56 24 40 32 23 20 36 40 56 56 39 16 6 7 8 8 7 10
72 71 74 69 82 70 78 30 41 22 15 12 27 32 32 47 38 22 22 15 20 22 28 30 29 6 8 15 26 62 54 60 56 64 51 43 32 34 22 67 60 40 26 11 7 6 7 8 7
45 59 89 76 79 69 73 61 52 12 11 14 17 14 19 42 30 24 22 21 19 20 26 29 11 6 6 17 39 47 54 62 65 58 64 22 24 22 32 42 33 32 37 31 14 11 4 6 8
48 47 60 74 85 81 88 55 26 15 11 12 9 5 7 28 30 29 27 21 16 20 24 25 6 8 6 10 19 26 34 48 44 42 28 36 37 27 31 28 26 20 19 22 18 20 14 4 6
30 35 67 74 63 59 84 50 34 26 23 22 20 12 4 7 23 22 27 28 19 20 20 18 5 8 10 10 20 20 14 17 34 35 44 52 50 24 15 22 26 22 26 20 10 13 22 19 4
18 15 32 53 53 38 45 42 43 52 40 31 32 32 8 4 5 7 18 27 26 19 18 21 11 12 22 21 22 14 12 22 26 22 22 55 53 21 24 23 28 19 16 24 23 9 9 23 22
13 11 13 31 37 38 49 35 31 41 56 56 41 40 17 5 4 4 5 20 25 18 19 18 14 19 32 32 21 14 19 22 21 22 22 24 36 28 24 25 23 24 30 22 26 16 7 11 30
3 5 11 31 46 60 31 64 38 33 58 71 50 56 50 43 28 4 3 8 14 19 19 12 12 32 36 30 17 20 21 17 20 24 20 16 38 54 33 28 15 18 16 26 23 13 9 10 21
4 5 9 30 81 94 53 46 60 41 38 53 69 75 56 42 42 14 4 3 6 17 18 16 8 13 27 33 23 21 20 20 21 18 7 13 48 31 21 38 32 14 27 20 27 16 17 22 32
3 3 5 18 52 44 51 29 77 47 50 55 64 71 73 79 78 53 4 4 4 9 17 18 12 11 19 26 19 18 17 19 23 18 7 19 45 24 32 35 44 22 18 11 17 29 29 28 35
3 2 4 14 63 42 57 36 31 59 43 49 55 94 88 80 82 74 26 6 4 6 16 18 15 12 21 22 19 22 22 17 15 12 6 13 48 20 18 15 27 29 23 8 11 12 17 26 29
4 3 4 13 75 38 64 62 36 84 26 36 77 81 89 98 82 75 52 10 5 5 16 15 16 14 18 21 20 24 20 11 10 9 5 9 43 19 12 13 12 28 30 8 7 7 9 13 14
7 4 4 10 40 78 55 43 92 58 20 45 57 79 78 91 80 92 72 12 9 4 15 13 15 13 13 20 20 18 14 12 10 9 5 9 23 25 11 21 18 13 16 11 11 5 5 7 12
11 6 4 14 36 50 38 42 39 29 13 48 56 76 81 68 80 98 92 30 12 11 17 12 12 13 13 16 19 17 12 11 10 7 6 8 10 12 12 16 20 16 11 8 5 5 4 6 8
18 9 6 8 36 4 10 33 10 8 21 36 51 60 56 71 88 98 98 74 12 12 17 17 9 11 13 10 10 12 10 12 9 5 5 8 11 18 13 13 17 14 15 13 11 7 5 5 8
24 15 6 4 4 5 7 7 3 8 25 38 62 64 65 73 88 93 99 92 26 12 16 17 12 10 9 11 12 9 9 10 9 6 6 10 12 14 13 13 13 14 14 15 17 19 12 6 7
32 15 14 7 4 6 4 9 4 14 30 66 51 52 52 78 94 97 97 92 45 13 12 13 12 9 7 8 9 10 9 9 10 8 9 10 11 12 11 12 12 11 11 12 16 19 22 24 16
50 32 24 11 6 4 3 8 3 13 24 33 44 35 27 63 93 97 97 92 86 16 11 13 14 8 7 7 7 6 4 7 11 8 9 10 10 11 10 9 9 8 8 10 12 15 18 25 25
52 30 22 28 8 4 3 3 3 5 30 33 37 26 36 42 72 92 90 97 90 34 10 10 12 12 8 11 8 4 5 14 9 7 10 9 8 7 5 4 4 4 6 8 10 12 19 27 29
71 48 34 23 10 7 4 2 3 5 18 51 48 39 30 46 42 64 75 90 96 52 9 10 9 9 12 11 8 6 22 12 10 11 9 6 4 9 14 14 12 8 6 9 12 15 23 27 31

GFSSGP_500_rhum_048.txt.gz
RH
69 75 84 87 94 87 92 88 91 96 93 89 84 81 71 77 74 77 66 56 40 35 33 25 19 10 9 13 16 20 20 20 21 39 53 49 56 57 39 49 42 44 44 44 51 58 72 76 42
68 77 88 97 98 80 96 88 98 94 84 89 88 76 75 77 77 79 70 61 43 26 19 16 16 8 9 13 16 18 18 22 20 42 51 56 50 37 30 39 39 68 79 57 46 39 42 77 73
68 76 95 99 97 95 98 94 98 88 82 88 80 78 81 83 77 81 68 57 38 23 21 22 18 7 12 17 27 21 22 18 29 34 42 34 35 33 22 30 26 38 17 14 27 37 44 59 79
50 69 82 94 97 100 98 97 95 94 88 89 74 74 84 85 88 78 69 53 29 20 23 25 20 7 16 22 27 23 18 20 25 36 30 33 19 21 26 11 18 11 9 22 33 41 61 52 71
41 55 68 86 98 94 94 90 90 96 79 79 78 67 69 82 84 78 64 44 23 19 22 25 21 9 21 28 29 24 19 33 24 31 20 21 30 18 15 19 8 14 28 46 54 66 64 63 50
36 50 87 99 99 96 93 86 95 89 87 80 78 68 69 69 79 73 43 35 23 22 23 28 24 11 27 33 30 27 24 32 37 29 27 27 15 16 12 8 11 12 28 32 52 60 69 72 52
46 66 88 99 96 94 96 95 96 95 95 84 73 67 67 65 75 61 34 33 22 25 23 31 25 17 33 36 26 34 33 32 32 28 11 10 12 7 6 8 9 17 27 46 55 57 64 73 74
78 90 91 89 95 95 96 96 94 93 80 74 72 67 58 52 68 60 30 30 16 22 23 34 19 27 34 23 28 31 21 19 11 10 6 7 16 9 25 31 21 22 38 43 51 52 48 50 59
80 88 87 98 97 95 97 96 81 77 73 48 52 54 52 44 46 48 35 21 16 22 25 32 18 31 24 19 27 20 11 9 12 11 10 5 7 8 35 27 14 26 34 18 35 47 48 42 54
86 78 91 89 95 97 96 86 78 91 51 38 34 41 46 41 37 38 29 16 20 25 29 26 26 27 15 21 22 13 13 14 14 15 12 13 14 14 27 34 22 9 14 8 8 14 38 47 56
91 97 91 86 100 95 89 83 62 43 38 24 29 44 40 44 42 31 25 15 20 27 30 27 31 17 14 18 17 16 20 21 26 25 20 20 29 43 61 50 34 17 6 7 8 7 9 29 47
63 82 82 98 91 95 61 34 33 11 15 17 26 33 37 44 31 23 21 14 22 26 32 32 32 10 15 17 23 56 28 52 46 48 35 36 34 27 66 48 34 17 10 6 6 8 8 11 29
50 72 80 78 94 71 68 26 9 7 9 17 12 18 35 36 24 23 21 15 21 26 29 30 12 11 14 43 52 58 61 68 50 48 27 27 22 35 46 35 36 35 24 20 10 5 8 7 10
57 56 68 72 88 80 75 29 6 3 6 5 6 11 23 26 26 23 24 17 21 23 27 15 6 12 15 56 46 66 72 58 43 50 40 45 29 40 32 38 27 22 18 20 19 8 5 7 7
39 42 51 59 76 87 72 42 9 10 12 10 5 5 13 19 26 25 26 17 20 20 24 7 7 6 16 27 27 41 47 47 40 48 58 75 38 18 26 25 23 28 20 14 16 16 13 4 7
29 26 44 55 50 83 77 45 24 19 22 22 20 8 4 3 12 25 27 26 18 18 19 6 8 7 9 18 20 18 22 31 29 31 53 62 43 33 26 25 22 32 30 30 19 7 18 14 4
25 19 35 46 70 67 88 46 30 36 30 28 24 13 6 4 3 6 19 26 22 19 16 7 8 13 11 18 16 12 22 24 20 19 32 41 33 30 28 25 27 25 37 30 23 6 12 30 23
22 17 23 35 63 65 70 49 39 46 44 33 28 23 19 30 27 4 4 14 25 18 17 12 10 25 29 20 14 16 22 25 21 19 22 32 47 32 28 21 25 26 32 19 13 8 15 29 30
10 16 25 40 42 48 66 70 35 41 59 47 35 37 35 43 49 18 4 2 14 18 18 11 18 29 33 26 16 20 18 19 17 13 10 44 32 23 42 17 30 21 25 20 13 14 19 26 30
3 4 10 38 33 23 41 71 42 40 55 63 56 54 51 64 71 33 4 3 4 17 18 13 21 38 36 26 17 17 16 18 11 9 9 43 30 33 39 45 17 23 17 32 27 24 26 29 32
4 2 4 22 54 30 31 69 72 54 36 33 41 53 44 59 76 59 9 5 3 14 16 19 9 25 31 26 17 17 18 18 15 9 10 39 26 20 17 31 33 38 26 20 12 20 28 25 24
7 4 4 9 45 46 35 28 72 58 52 37 33 41 63 53 86 71 31 8 5 5 17 17 14 10 20 23 18 20 19 14 10 7 8 30 34 12 14 15 27 30 29 8 11 9 12 15 15
12 7 4 7 20 42 35 23 23 32 46 47 26 30 63 66 71 79 46 13 9 4 13 16 17 13 18 20 20 19 14 11 10 7 6 20 37 13 17 18 14 19 24 40 8 5 8 11 14
28 13 6 7 14 24 18 18 4 13 10 38 31 48 73 67 83 88 72 24 11 5 5 16 16 14 16 21 18 17 15 12 9 8 6 11 24 16 13 20 17 12 10 8 15 4 5 6 7
33 19 8 6 11 2 8 28 2 7 29 38 48 68 77 74 81 80 88 55 12 10 5 15 15 16 14 20 19 18 13 12 8 6 5 9 10 12 12 18 14 14 16 15 13 8 6 5 6
45 23 13 6 4 3 8 10 8 7 28 43 63 77 78 82 78 85 93 99 25 12 14 17 14 16 17 15 20 21 14 11 10 6 5 8 15 18 13 13 14 14 14 15 17 20 20 15 8
58 35 21 13 5 3 3 6 6 10 19 39 72 78 68 73 84 92 94 84 64 15 13 18 16 12 16 18 14 11 13 10 11 6 6 9 13 14 13 12 11 12 13 12 13 15 20 25 24
54 50 38 22 11 4 3 3 4 4 9 24 68 73 59 66 70 84 96 96 79 28 14 16 17 12 12 14 12 11 10 10 10 7 9 10 11 11 11 10 8 10 10 10 10 12 14 20 28
63 67 47 40 20 8 4 3 5 3 6 18 48 67 60 58 66 79 88 93 96 60 15 13 13 12 10 8 9 10 10 10 9 9 10 10 10 10 9 9 9 9 9 8 8 10 12 19 25
88 78 59 40 20 12 10 5 3 6 7 17 40 77 68 56 72 98 92 80 93 65 22 12 13 12 10 7 7 7 7 6 10 10 9 10 10 9 8 6 4 4 4 4 6 10 12 21 28

GFSSGP_500_rhum_051.txt.gz
RH
71 70 79 88 94 88 90 95 90 90 80 84 83 77 74 69 63 67 58 50 38 40 41 26 18 11 13 16 18 18 19 32 44 57 61 72 56 51 52 48 49 47 41 47 54 65 77 43 45
70 72 90 94 95 88 89 88 91 89 82 83 85 74 78 67 66 68 57 48 35 23 22 20 14 12 14 19 20 19 21 27 54 63 62 66 43 36 47 68 65 63 57 47 40 34 55 67 72
71 78 95 98 93 86 88 86 96 93 82 79 74 68 76 76 72 71 56 45 31 21 20 23 16 12 16 20 21 21 26 29 51 55 50 53 44 24 42 44 21 10 14 26 38 47 46 85 81
57 71 82 80 96 96 98 96 99 94 90 81 75 75 76 79 79 68 56 36 24 24 25 24 10 12 25 26 22 22 22 37 43 45 44 33 31 20 28 16 23 36 50 60 71 62 61 82 54
40 43 58 68 98 96 93 96 96 96 86 79 77 76 80 80 77 67 49 29 18 24 26 24 9 17 32 26 21 20 30 31 33 33 27 29 14 18 12 17 27 34 45 59 70 65 74 76 38
35 32 46 92 100 95 88 92 97 89 90 76 70 69 69 69 68 59 36 26 20 21 26 26 10 24 35 24 23 30 34 35 35 36 16 16 18 8 13 14 27 47 55 62 66 64 49 63 51
32 37 52 94 89 98 88 89 96 91 94 80 71 62 60 58 62 38 33 24 21 24 25 28 14 29 28 25 28 31 32 35 33 18 20 10 6 15 19 29 39 49 52 55 70 64 60 61 40
39 66 78 96 100 97 92 98 96 95 88 83 70 57 54 49 52 39 35 18 21 24 26 29 22 29 18 27 28 25 15 16 10 6 12 10 16 30 32 44 46 37 44 48 58 68 71 62 47
50 77 83 86 91 95 94 96 97 89 87 69 62 54 50 37 33 41 31 16 22 24 30 23 21 22 18 23 17 12 9 10 7 7 15 12 14 26 21 29 36 22 23 44 48 44 42 57 49
64 81 79 88 99 95 96 94 86 86 76 59 43 40 39 35 30 29 24 15 23 27 32 18 27 15 19 16 9 10 11 9 11 8 6 8 21 26 27 24 10 19 9 9 34 45 52 62 58
71 81 94 86 96 98 96 83 94 88 51 42 28 32 30 38 33 23 21 15 23 29 30 21 26 13 18 12 11 14 14 19 18 17 19 24 43 51 52 30 12 6 7 9 8 22 43 49 50
79 86 92 86 96 98 84 93 84 44 34 20 17 30 31 41 26 22 16 22 26 30 28 29 21 14 16 12 15 30 40 32 35 29 37 32 33 53 37 30 16 7 5 7 8 9 22 38 46
67 82 89 90 94 93 64 40 45 17 13 14 22 20 38 25 21 19 14 21 27 33 32 30 13 15 17 34 38 44 51 43 36 26 26 24 37 59 39 33 23 18 12 5 6 7 8 15 28
59 64 70 72 92 94 71 44 17 13 7 8 9 12 33 23 23 21 16 23 26 31 30 16 10 15 36 48 51 57 54 50 51 34 38 30 38 33 37 24 22 24 21 19 5 7 7 6 10
42 56 84 77 84 83 77 65 10 8 5 6 3 7 25 25 23 22 17 20 24 29 23 6 12 18 55 41 54 59 37 28 42 50 50 28 19 25 25 18 27 17 11 16 16 5 6 7 7
30 36 65 77 85 85 92 76 22 8 8 7 6 3 15 19 22 23 19 16 20 28 14 6 11 14 43 27 34 33 39 38 42 59 53 31 28 27 23 22 30 23 20 12 8 18 5 4 6
30 24 41 53 73 78 86 87 33 15 15 15 12 6 3 10 17 20 24 18 18 22 10 7 6 15 19 23 20 21 20 22 28 45 34 34 33 26 27 44 30 29 28 22 6 16 24 12 5
31 26 31 34 52 70 84 98 46 23 23 25 20 11 4 4 5 8 20 22 16 18 9 7 8 8 10 20 11 20 19 16 18 29 33 36 29 22 20 36 28 20 21 8 5 14 27 29 22
9 29 36 44 44 80 79 95 72 54 41 30 24 13 20 26 15 4 6 19 16 16 15 6 13 12 16 20 13 22 22 16 17 22 38 26 29 24 24 20 22 24 24 22 10 18 26 31 27
4 4 29 47 32 50 86 85 75 55 57 40 32 31 33 27 22 6 3 8 18 16 15 12 14 29 28 20 14 19 17 17 12 19 35 24 34 34 15 20 19 42 22 18 19 27 32 31 24
5 3 13 56 46 30 54 84 88 70 48 46 43 33 29 33 26 12 3 3 14 16 17 13 17 30 32 22 15 17 17 18 9 13 34 22 26 28 29 28 40 28 20 12 18 24 25 24 20
10 5 4 30 56 38 31 39 60 73 61 51 52 42 35 33 29 24 5 4 4 19 16 15 14 31 34 29 17 21 21 16 7 11 34 23 16 18 21 30 28 34 11 20 10 11 13 15 16
21 11 6 12 41 64 25 22 40 70 58 48 44 46 47 48 38 27 16 6 4 10 16 17 9 28 20 29 19 19 17 12 7 7 23 36 12 13 11 18 22 18 32 27 10 12 10 14 17
39 23 12 7 10 33 20 16 14 43 76 79 61 51 52 53 55 36 22 8 6 4 13 15 14 10 10 26 19 19 17 14 10 6 9 43 16 14 18 15 12 12 9 30 6 8 8 9 12
47 33 27 14 7 2 6 18 4 24 79 77 74 64 65 68 65 48 27 16 9 6 5 14 15 14 12 19 22 20 17 15 10 7 6 17 31 14 11 13 14 14 14 13 9 6 5 5 8
39 44 26 20 10 4 4 3 5 10 23 50 68 77 74 64 54 65 37 18 11 7 4 11 15 16 14 16 26 20 18 14 12 9 6 8 16 12 10 13 12 13 15 16 18 21 19 11 8
36 43 42 42 20 8 4 4 3 8 13 30 59 73 91 80 68 62 56 21 12 11 4 8 16 17 15 15 22 20 19 16 13 12 7 8 8 14 12 11 12 13 13 12 13 16 22 24 22
35 48 71 57 29 11 7 5 3 4 15 26 51 68 84 86 87 65 51 42 10 14 10 12 16 14 17 17 17 21 21 21 15 12 6 7 11 17 11 10 10 11 12 11 10 12 13 19 25
44 56 72 66 38 15 11 6 4 3 12 30 48 73 79 87 96 72 60 48 22 21 12 14 18 14 14 15 15 17 17 14 11 11 8 7 10 11 10 9 10 10 11 11 9 9 11 13 22
58 58 66 79 47 26 20 9 5 3 5 25 44 65 84 91 96 89 81 83 53 19 14 12 15 18 11 13 14 13 11 11 9 10 8 9 10 10 9 10 10 10 10 8 6 7 10 12 22

GFSSGP_500_rhum_057.txt.gz
RH
29 41 51 60 74 77 84 94 99 94 91 84 86 79 80 72 90 86 49 46 49 33 30 17 19 18 14 15 22 41 50 55 52 41 43 46 48 48 54 77 56 46 56 52 56 59 39 32 50
77 75 92 95 91 84 79 90 94 97 92 86 86 83 79 74 80 58 44 34 35 25 22 16 21 23 17 16 22 37 50 53 69 73 36 38 55 65 71 41 76 80 57 56 64 68 76 58 74
78 82 84 85 93 93 98 89 98 98 94 91 85 83 82 76 69 61 43 25 23 18 18 17 24 20 18 20 25 49 53 54 59 58 38 33 55 38 19 22 28 32 31 30 38 48 80 64 82
66 67 97 79 85 87 94 97 96 99 91 94 83 83 78 72 79 63 44 19 20 20 21 10 21 26 26 25 22 40 46 49 47 51 37 31 28 28 36 39 56 61 63 60 46 77 72 59 41
35 67 66 67 76 94 95 98 97 97 93 84 81 80 80 76 80 73 48 18 22 23 19 8 30 28 21 21 28 32 38 40 38 33 29 23 27 34 56 59 62 65 71 61 75 61 33 31 29
45 48 58 71 88 94 96 99 98 96 88 88 79 70 77 79 80 73 53 18 21 24 20 11 32 31 22 21 23 35 40 32 30 27 24 20 29 46 50 48 58 56 65 80 41 34 45 45 45
50 60 54 59 86 94 85 98 98 94 87 80 76 73 74 77 77 60 43 19 20 24 22 13 33 34 22 29 25 32 28 30 22 21 19 21 33 42 41 44 57 53 64 66 55 50 39 34 35
57 55 65 89 99 98 80 91 96 91 93 71 69 72 67 68 69 43 36 20 20 25 24 14 32 28 24 36 30 36 34 23 26 14 30 32 44 39 25 44 52 47 55 66 55 34 34 36 37
45 51 98 94 100 99 89 87 97 91 88 68 56 63 59 63 55 39 30 20 22 26 25 23 25 25 27 37 38 31 23 25 7 18 32 26 34 28 13 34 44 60 59 63 64 52 45 47 41
46 54 97 80 100 100 88 89 97 95 85 76 67 59 56 55 48 32 19 19 20 27 23 26 20 28 29 37 29 20 15 15 20 16 33 30 29 22 14 10 24 44 45 46 51 48 50 48 45
42 60 76 80 81 86 98 93 98 89 90 76 58 53 50 44 40 27 14 16 20 27 19 22 20 20 12 10 10 7 6 9 6 11 19 38 55 27 9 7 8 18 39 45 47 56 52 49 42
50 80 71 85 92 92 87 98 93 86 88 70 63 55 46 35 35 26 13 19 23 24 21 17 19 12 9 8 9 10 12 14 18 26 39 47 33 27 10 9 6 8 16 33 41 77 38 40 51
56 76 77 78 95 85 91 95 98 83 89 61 48 39 38 32 31 25 13 17 23 22 23 14 16 9 10 13 19 22 21 26 34 30 45 56 36 21 15 12 11 6 8 14 24 35 36 26 24
41 62 78 68 85 97 82 97 90 84 64 51 34 31 30 35 34 20 15 19 22 23 20 12 13 10 14 30 29 33 25 26 25 28 40 35 30 31 27 30 26 13 6 6 9 15 21 23 22
34 44 62 89 77 95 68 83 72 93 46 32 19 26 32 30 30 19 14 18 21 24 15 11 11 11 18 46 44 38 32 24 27 27 31 25 27 27 24 23 17 19 7 6 7 7 9 9 7
32 34 43 60 70 93 74 90 58 34 20 16 13 24 27 30 24 19 15 14 18 25 12 11 16 27 35 32 50 39 41 35 27 18 18 19 28 26 25 20 16 8 13 8 5 7 7 7 7
26 33 40 53 86 82 76 78 98 21 10 9 9 12 18 26 19 21 17 14 16 23 8 11 22 33 43 49 46 33 36 52 35 26 22 19 41 49 35 28 26 13 10 14 7 4 5 5 5
13 32 44 60 70 67 97 89 96 54 7 6 6 5 12 20 22 23 18 14 15 16 5 10 34 24 36 38 40 35 42 57 32 29 25 26 74 31 36 34 28 15 8 17 22 12 7 7 10
24 59 46 95 74 73 79 100 97 62 9 8 6 4 10 18 17 18 20 15 15 9 5 8 27 28 21 21 29 29 30 38 33 33 22 23 60 38 47 26 14 8 14 21 26 27 19 15 19
6 6 38 86 79 95 70 99 99 84 22 12 11 8 7 8 8 8 16 17 14 11 6 7 10 18 18 17 18 17 19 25 31 29 23 23 42 47 53 24 10 7 10 18 24 27 22 23 16
12 6 6 61 72 53 84 94 82 93 49 14 19 18 13 11 6 6 6 15 14 12 7 5 8 11 16 12 15 16 16 21 28 23 26 17 20 51 35 37 29 30 29 28 26 24 22 16 14
15 16 6 8 93 95 63 82 69 70 80 21 26 28 14 25 26 22 9 3 17 14 9 7 5 8 12 14 12 17 15 17 23 23 26 21 25 34 38 20 17 18 30 19 22 16 16 13 14
8 20 15 6 12 60 84 98 100 97 91 54 35 50 31 29 35 26 21 4 5 12 12 9 12 15 15 15 12 15 13 13 22 26 27 22 21 24 46 25 25 18 9 17 32 12 12 13 14
7 14 20 13 6 8 28 87 88 90 77 97 55 57 58 46 42 37 31 24 3 5 10 10 11 22 25 19 13 13 12 10 10 26 22 18 19 19 14 25 42 38 24 24 26 20 8 14 12
8 10 22 23 16 5 4 39 80 92 96 80 87 56 59 62 55 44 36 30 21 3 5 10 10 15 26 26 20 14 11 10 9 16 29 14 14 13 13 15 21 15 16 18 28 22 36 6 5
9 12 20 30 31 12 6 13 28 76 90 90 97 95 66 69 62 50 42 38 36 28 3 6 11 11 18 28 28 15 14 14 8 6 15 29 10 11 12 12 12 12 9 7 23 20 7 8 5
10 20 11 71 65 49 38 12 14 33 83 76 93 97 93 58 57 56 50 46 42 37 9 3 9 13 11 23 27 22 14 14 13 6 5 12 26 10 11 11 12 11 11 11 15 18 18 27 7
9 46 36 54 76 63 55 46 34 19 19 70 83 81 38 98 68 60 57 50 48 45 26 9 3 9 12 12 24 21 14 15 15 9 5 4 13 24 13 11 10 11 11 10 11 12 14 15 15
7 8 74 97 68 72 74 53 58 50 34 13 26 35 25 85 66 66 66 60 60 44 42 18 8 4 9 12 11 11 19 15 14 10 7 5 5 16 14 9 10 11 11 10 9 9 11 11 12
14 75 36 98 100 73 80 66 63 61 59 39 14 25 28 37 86 83 78 66 62 53 53 27 11 5 4 12 13 10 15 17 14 12 9 6 4 7 9 9 10 10 10 10 10 8 7 9 11

GFSSGP_500_rhum_060.txt.gz
RH
11 36 52 49 63 60 60 98 97 88 81 80 77 74 81 79 98 95 45 33 37 27 18 22 22 22 13 21 41 43 45 40 35 34 34 39 40 49 74 80 53 54 61 50 55 57 38 39 59
49 52 75 96 87 78 63 97 96 93 84 79 79 77 81 85 90 55 41 27 26 21 14 19 23 16 14 20 32 42 42 55 48 24 38 50 52 41 26 32 74 49 43 45 56 59 78 69 83
80 87 85 83 88 97 92 94 96 96 95 81 82 77 76 69 64 58 43 21 19 17 13 22 22 17 21 22 33 42 40 51 41 29 32 37 22 28 35 38 42 42 32 32 37 69 76 75 83
74 68 86 77 74 98 92 96 82 90 91 89 81 82 73 69 74 60 43 19 17 20 14 16 24 20 22 28 36 43 50 46 43 31 27 27 35 41 50 56 63 66 63 45 65 66 73 63 39
37 70 73 76 86 73 90 90 92 92 87 83 81 84 70 72 75 67 47 19 20 21 12 20 27 24 22 26 28 36 36 37 28 28 21 33 48 47 51 54 55 66 54 67 52 32 28 26 33
39 62 62 73 74 83 94 92 99 98 82 79 87 84 71 70 71 62 40 18 20 22 12 26 30 25 26 22 26 34 31 27 27 25 24 35 46 42 52 52 62 71 62 36 38 41 38 41 33
49 65 51 65 94 94 99 100 100 99 85 82 75 76 65 70 64 55 26 18 20 23 14 25 30 18 24 24 27 32 27 20 19 18 23 41 33 40 52 48 62 57 54 56 53 38 34 34 34
44 67 55 78 97 82 83 99 100 99 96 79 79 66 66 62 60 47 24 18 20 24 16 24 30 17 30 25 26 26 24 21 17 24 31 42 24 42 44 48 57 65 52 38 35 33 34 31 29
39 55 72 99 79 98 88 97 99 94 95 77 69 65 58 58 50 36 24 17 20 24 17 25 24 19 33 30 33 27 22 12 20 29 36 39 13 17 39 49 49 62 50 34 35 39 40 34 32
40 71 92 95 98 99 98 89 85 70 96 57 62 65 56 50 43 32 22 14 21 23 22 21 20 23 31 36 29 23 22 6 21 26 27 24 21 10 12 41 44 44 49 53 51 49 62 39 47
29 55 79 74 91 93 100 92 89 97 91 68 72 64 58 45 37 36 24 13 14 22 19 16 22 24 32 31 21 18 16 18 16 27 28 32 19 7 15 21 30 38 42 46 49 51 58 36 47
34 42 66 86 72 80 84 96 100 96 96 89 65 58 54 44 37 30 22 14 17 20 13 14 17 12 16 14 8 22 15 7 13 26 36 29 19 42 93 18 45 32 38 80 42 37 55 84 37
40 41 66 66 92 86 84 95 96 96 97 78 57 45 45 39 36 28 21 13 17 19 11 13 10 7 7 7 8 39 29 17 20 30 37 52 20 36 33 45 60 15 23 34 31 28 26 29 20
36 46 78 73 69 80 98 79 89 98 69 57 34 37 32 33 34 29 21 13 18 20 10 11 6 9 8 14 22 21 22 31 29 44 47 74 30 20 21 25 15 67 16 15 19 19 21 17 16
24 34 51 68 76 78 80 98 93 100 78 70 32 23 20 30 32 30 18 13 16 20 9 9 6 9 12 28 29 27 24 25 27 30 26 24 42 48 26 31 18 6 18 7 9 12 12 9 7
22 34 40 65 81 85 91 95 95 93 95 46 17 16 19 29 29 26 17 13 14 20 9 8 9 14 28 46 38 33 27 25 24 27 21 21 20 36 73 22 20 11 7 6 7 7 7 7 7
23 28 31 45 45 59 82 79 71 82 60 28 9 10 15 21 24 18 18 15 13 17 10 8 16 23 27 40 44 38 29 26 19 19 18 18 33 29 40 88 38 14 27 5 5 6 7 6 5
15 25 34 46 54 72 97 77 80 97 65 8 8 9 8 14 23 19 19 16 13 14 9 7 24 33 38 39 33 27 35 38 23 20 20 32 53 26 27 31 12 13 16 16 6 4 5 6 11
6 45 52 58 98 79 100 82 99 80 77 85 6 5 5 8 17 16 15 15 13 16 7 7 29 23 33 42 32 32 50 37 27 21 46 53 28 39 34 19 10 13 18 24 21 19 16 16 16
5 10 41 69 94 77 90 87 98 98 65 29 8 7 5 8 12 14 11 12 13 16 5 7 26 19 18 23 29 29 35 32 30 19 34 44 42 43 21 10 7 20 21 17 26 23 20 18 14
13 6 14 58 93 92 65 76 79 96 59 52 34 10 9 10 9 11 6 8 12 14 6 5 10 23 16 16 21 21 24 24 24 24 26 33 50 30 25 18 14 21 27 22 24 21 25 14 14
9 15 7 18 86 96 83 49 95 51 98 97 84 14 17 12 16 24 21 4 10 12 7 5 7 10 14 13 16 16 17 19 20 22 18 26 44 37 29 27 31 31 24 24 18 19 18 14 13
5 14 16 8 7 65 68 99 76 75 68 96 69 17 23 18 25 31 27 20 3 7 9 6 5 8 11 14 11 15 15 18 20 21 17 23 37 34 15 14 26 40 23 25 15 10 21 18 11
8 7 8 14 9 8 16 75 84 93 73 57 79 56 31 30 29 39 31 29 26 5 7 7 6 7 11 13 12 14 13 17 18 15 16 22 25 37 35 33 33 24 24 31 36 16 8 14 13
9 8 9 14 16 5 5 11 20 90 54 78 60 98 54 41 34 40 31 30 25 17 3 8 8 10 16 14 13 12 12 12 16 15 19 16 17 17 13 26 37 28 26 29 32 28 25 4 4
11 10 12 15 8 5 8 7 3 18 90 98 100 92 90 54 43 42 35 33 26 30 21 4 10 10 17 22 16 11 11 11 11 19 19 18 15 13 12 10 12 19 21 14 32 19 8 7 4
11 48 10 20 52 30 50 22 12 8 42 100 98 89 88 79 52 59 52 38 36 28 29 24 5 11 10 16 27 21 11 11 11 8 17 24 13 10 9 9 10 9 9 12 24 24 23 30 13
25 14 78 46 39 35 63 54 49 31 13 71 58 86 66 85 87 96 73 54 45 30 25 30 8 4 10 10 19 28 25 12 12 9 6 12 26 11 14 10 10 8 8 9 14 13 14 18 14
66 15 30 98 90 28 62 52 53 50 48 37 35 30 32 84 97 90 94 84 60 43 26 28 30 5 4 11 11 19 28 20 12 10 7 5 8 28 16 13 11 9 9 7 10 10 13 11 14
86 37 45 87 78 84 67 64 48 57 58 58 48 92 97 87 82 95 95 42 70 53 32 29 31 32 7 4 11 11 23 21 16 12 9 6 4 6 22 18 12 9 9 8 10 9 8 8 9

GFSSGP_500_rhum_063.txt.gz
RH
12 14 48 48 55 71 71 97 98 84 72 80 77 76 76 85 92 55 34 20 22 19 22 27 32 28 32 43 50 53 54 47 45 40 35 37 42 61 73 68 49 64 56 53 60 59 43 46 53
27 44 61 89 98 86 81 93 98 85 82 82 77 78 73 74 66 53 36 18 17 16 19 23 17 18 21 34 40 43 39 34 30 40 49 47 32 24 25 49 62 45 43 42 44 63 54 74 60
77 73 79 89 84 97 89 96 97 88 86 86 85 98 80 66 63 54 35 16 16 16 20 23 18 21 20 30 37 37 52 36 29 34 26 32 38 42 47 47 47 44 29 36 67 77 53 72 41
72 74 81 79 90 98 89 96 97 99 86 89 87 82 74 64 65 56 30 16 18 20 13 23 18 20 26 39 44 44 41 32 26 30 39 50 45 48 52 57 64 59 42 67 55 73 59 38 42
57 71 74 68 98 98 93 97 93 88 88 99 86 84 74 69 65 61 29 16 19 20 12 25 22 20 24 28 34 37 29 26 26 32 44 40 44 52 50 59 54 47 64 33 32 55 32 40 56
36 64 67 71 79 97 94 86 89 96 93 94 88 79 76 68 68 54 27 16 19 22 13 29 26 25 25 28 34 28 24 22 21 36 35 39 48 56 65 64 54 34 33 37 32 36 37 36 39
39 70 60 88 96 99 98 96 96 97 92 92 84 76 74 69 66 50 25 16 18 22 15 28 16 20 21 28 30 22 19 16 19 38 28 39 46 53 56 45 48 54 39 32 29 29 30 29 28
39 73 72 72 66 94 90 96 97 96 98 96 81 74 75 61 59 45 23 15 17 23 14 26 16 24 23 24 23 17 15 19 29 46 30 41 41 51 58 55 41 33 30 31 34 33 32 28 38
37 69 90 98 79 98 86 89 94 90 97 89 78 81 70 59 42 40 25 14 16 22 13 18 14 28 25 27 23 20 14 27 31 35 19 19 37 39 46 54 41 31 32 35 38 36 32 35 44
35 66 73 85 83 90 75 75 71 85 89 88 72 76 68 48 35 34 26 12 16 20 16 13 15 30 28 29 20 18 6 25 26 28 26 25 18 38 41 42 43 46 44 49 47 47 46 74 40
29 65 86 83 84 86 92 94 80 76 79 91 71 77 63 55 43 38 28 13 15 20 14 12 16 27 29 21 20 14 14 15 23 36 24 14 12 19 29 38 36 41 40 50 50 53 52 84 37
31 34 39 80 52 66 90 88 77 94 89 72 73 70 51 49 41 36 26 14 15 20 10 12 13 26 25 18 16 17 24 7 23 29 36 40 41 67 40 34 34 51 83 38 47 95 40 41 30
36 33 46 73 98 77 77 78 70 83 96 94 69 51 46 43 34 34 26 14 15 18 7 8 6 14 14 8 28 82 8 13 18 26 34 46 46 49 43 37 25 34 34 24 24 28 30 34 22
30 69 75 91 99 98 81 87 79 86 90 67 52 46 38 30 30 33 25 14 15 18 6 6 6 6 6 8 14 24 16 17 31 38 43 70 30 42 53 26 90 19 23 36 20 16 12 14 23
24 32 52 76 88 100 97 74 96 97 89 61 41 38 26 22 32 32 23 14 13 17 7 5 7 21 13 22 23 20 26 28 35 37 32 55 56 24 39 18 20 13 19 10 15 13 12 6 8
18 28 39 61 74 97 92 82 98 98 91 70 24 24 21 24 34 33 18 14 13 17 10 5 8 12 19 31 30 24 23 23 24 25 22 24 42 40 32 29 20 11 7 6 7 7 7 7 9
19 23 38 56 60 95 81 80 79 81 91 78 21 14 18 24 31 23 19 16 14 16 15 6 9 16 35 42 34 34 24 24 20 18 16 17 16 53 40 76 19 14 6 5 6 6 6 6 10
11 25 38 41 43 54 98 64 75 97 97 86 45 22 11 13 23 20 18 16 15 14 16 7 17 22 28 34 37 30 27 26 24 19 16 22 39 25 42 48 21 21 8 4 5 7 10 12 14
4 16 26 53 81 68 84 81 93 84 83 85 26 11 12 8 16 15 15 15 15 15 16 7 20 32 35 37 29 28 36 38 24 20 36 50 27 28 29 19 15 32 18 14 16 16 16 15 15
5 5 17 39 73 69 74 88 87 92 92 85 94 12 9 6 15 14 13 15 13 16 16 7 20 26 22 32 29 35 42 23 24 39 57 25 30 24 17 14 12 16 25 20 21 19 17 14 14
11 5 10 32 78 89 79 82 97 92 88 85 97 43 18 5 11 12 10 12 13 14 14 6 15 23 14 19 26 30 26 28 21 33 38 39 31 8 6 10 20 21 18 18 18 23 14 15 15
11 10 8 18 61 84 92 92 52 69 94 95 82 67 14 6 10 22 16 6 16 11 8 5 7 29 18 13 18 23 22 20 28 32 32 46 26 22 22 23 25 20 19 14 18 20 13 13 14
6 13 11 21 34 28 44 98 78 76 68 97 91 48 18 22 12 18 21 15 9 10 10 5 6 9 15 13 14 16 16 17 17 17 34 38 32 25 21 39 36 18 26 24 12 15 18 16 11
7 10 11 12 11 8 28 59 52 62 82 75 94 78 31 18 28 27 28 24 26 15 8 7 5 8 10 12 11 14 14 15 14 15 28 37 22 15 21 21 18 22 26 30 32 11 12 12 12
9 8 9 8 8 5 13 47 21 32 43 43 83 90 55 25 24 28 35 31 33 28 13 10 8 4 8 11 12 12 13 13 12 13 20 25 35 37 43 39 34 24 19 22 29 25 23 4 5
9 10 8 7 4 7 14 13 9 15 26 38 16 35 50 45 32 30 37 41 38 33 16 4 11 8 7 12 13 10 11 13 10 14 17 15 17 14 14 17 26 20 20 15 23 13 10 5 4
14 17 10 11 7 13 13 13 17 21 32 72 48 18 66 77 56 40 42 48 46 38 34 34 7 12 10 14 17 10 10 10 13 17 19 18 15 14 13 10 13 10 11 14 17 26 29 22 7
8 11 35 17 11 12 8 8 20 48 53 54 67 40 39 94 81 76 48 63 53 47 41 36 31 7 10 10 19 21 11 9 9 12 18 19 17 14 11 10 11 10 7 11 12 12 18 18 13
46 24 25 31 20 25 19 9 24 73 61 49 47 52 58 60 42 70 92 66 54 36 39 43 38 22 4 10 10 17 23 18 10 8 10 15 21 18 11 13 10 10 8 8 11 9 12 11 14
26 24 43 43 23 22 27 6 52 73 77 79 65 45 57 60 52 21 18 39 51 87 37 38 38 34 16 3 9 10 17 24 20 11 8 6 8 14 22 20 16 13 9 8 8 10 9 8 8

GFSSGP_500_rhum_069.txt.gz
RH
26 14 52 67 84 88 65 82 97 96 80 72 71 91 95 75 48 32 22 18 26 30 35 34 40 48 51 51 43 40 41 42 38 37 42 50 63 74 68 53 60 54 54 57 52 38 58 54 84
15 28 62 80 92 98 93 85 97 94 79 77 77 81 84 61 37 24 20 17 24 21 26 32 39 43 43 39 34 33 33 46 50 46 35 32 28 34 62 73 41 41 54 56 62 74 67 50 79
26 58 71 79 86 97 97 94 92 93 70 81 93 84 75 59 33 19 19 17 23 22 18 20 35 40 41 54 49 32 36 35 36 40 45 47 55 50 44 44 44 39 54 67 74 68 43 70 88
82 76 81 72 92 87 85 96 93 88 93 94 97 91 76 63 33 19 21 17 20 22 21 23 36 41 43 55 44 38 40 48 50 53 58 56 55 55 58 52 42 63 64 67 59 42 49 79 86
81 65 71 94 91 94 90 86 96 96 92 97 93 82 80 69 44 19 21 17 16 25 23 26 37 52 53 50 45 30 48 43 47 58 64 59 59 59 52 53 40 62 45 37 47 58 68 74 87
60 55 67 86 98 96 97 96 95 93 96 95 94 88 77 76 43 20 21 20 15 27 24 28 31 38 39 35 30 31 38 38 53 62 60 60 57 55 40 25 25 37 42 47 38 49 61 58 63
40 50 63 87 88 96 98 96 98 97 95 98 89 90 85 81 46 21 20 22 14 27 28 27 31 39 46 32 23 32 36 43 49 59 55 44 35 37 36 36 31 27 27 28 40 46 53 60 66
46 52 67 76 89 89 96 96 99 99 92 96 96 94 83 85 52 25 19 23 16 26 21 24 28 34 26 21 17 37 40 44 40 49 55 42 43 42 28 29 31 32 30 28 35 39 45 52 53
46 55 66 66 85 87 76 88 96 98 97 83 91 88 61 68 50 27 20 22 18 24 22 24 27 29 22 16 23 44 39 22 38 37 44 49 46 32 30 33 35 34 31 31 37 37 42 34 35
41 47 70 79 83 92 84 100 98 90 94 89 95 95 65 47 45 30 20 21 22 18 24 26 25 24 20 16 26 40 51 23 21 32 33 36 42 44 45 40 38 42 43 42 41 28 37 31 26
66 62 50 78 83 80 79 95 99 96 97 94 97 86 66 53 50 34 20 19 24 20 19 29 28 25 19 11 22 30 30 25 13 18 25 27 31 33 33 36 37 44 53 59 56 49 28 28 21
52 46 40 61 68 67 97 94 99 98 98 95 94 88 61 53 39 36 18 21 25 21 16 30 31 23 18 8 17 16 37 46 24 34 62 48 28 30 45 39 26 36 63 54 31 25 26 24 24
34 38 32 61 58 51 94 98 98 99 96 95 94 96 64 44 42 35 19 18 26 21 20 28 31 20 20 14 20 8 22 37 47 34 41 34 37 36 33 32 17 13 23 26 25 22 24 23 22
22 28 32 44 38 43 78 86 90 99 98 97 96 96 65 37 34 29 17 17 26 17 21 28 26 19 16 57 23 11 16 29 42 82 52 49 51 22 45 24 22 13 11 8 13 14 24 31 30
15 18 32 50 36 64 83 87 100 87 93 98 94 94 59 29 30 26 15 16 25 15 15 25 18 11 27 27 19 18 25 42 50 58 54 36 41 30 18 16 17 10 8 8 8 8 17 31 38
22 22 25 37 43 65 84 100 77 100 98 99 95 77 51 26 26 24 14 16 23 16 13 12 10 9 38 23 25 31 28 33 34 30 50 52 36 40 30 33 10 7 7 7 7 8 12 20 29
19 26 28 35 61 61 66 97 87 96 92 85 84 49 28 23 24 23 14 17 21 18 11 8 8 16 27 24 25 24 27 27 29 25 26 29 48 48 64 23 10 6 6 6 7 8 9 15 19
10 30 35 35 58 48 60 84 97 87 94 82 81 49 22 27 20 20 14 17 22 20 10 11 27 30 34 38 35 32 27 20 21 19 28 26 26 41 59 32 16 5 4 8 12 14 12 13 14
4 23 35 39 34 36 39 75 79 83 85 72 92 46 32 22 20 18 13 16 23 23 13 8 10 34 46 46 39 37 30 20 20 19 33 44 28 41 25 31 16 11 13 14 14 14 14 14 14
4 10 43 43 40 26 33 49 82 82 90 92 50 66 31 21 19 18 14 14 18 23 15 10 9 25 38 40 29 30 38 23 22 40 54 47 26 38 14 24 25 19 19 18 15 14 14 15 16
8 6 38 54 40 26 28 27 53 74 88 97 83 46 44 19 19 15 17 13 13 18 17 12 12 20 32 41 34 41 50 33 26 71 37 33 34 19 13 18 17 22 25 19 13 14 15 15 18
14 10 28 38 41 33 23 28 57 67 76 84 83 72 57 30 32 28 14 13 12 14 15 13 21 30 40 46 35 38 33 30 32 39 42 26 11 9 29 18 17 19 22 17 13 13 13 15 17
21 12 45 52 26 25 21 19 77 89 94 71 66 64 37 57 12 24 20 14 13 13 13 11 22 27 35 32 32 32 29 30 36 38 38 17 11 19 25 25 22 20 16 16 18 20 13 13 16
14 17 14 58 41 19 20 15 51 97 96 79 55 66 71 38 11 18 20 13 13 12 9 7 20 23 28 24 21 26 28 31 30 36 37 38 28 34 38 31 32 34 34 22 11 14 16 9 13
10 10 15 20 36 27 29 25 35 95 84 100 79 64 56 52 36 12 19 14 10 14 9 6 8 28 22 19 17 18 21 26 24 35 36 33 26 27 28 22 26 27 30 34 26 20 6 11 10
9 10 10 12 19 46 46 59 44 51 82 68 35 40 87 57 49 19 14 21 20 17 13 10 6 9 30 26 17 15 17 22 23 30 34 27 18 24 31 39 30 23 22 26 19 14 5 6 7
13 11 10 10 13 24 53 63 67 71 60 49 43 14 51 53 59 46 27 21 22 21 10 10 9 6 8 22 26 15 15 19 21 25 30 32 35 40 48 44 25 16 15 18 22 35 17 5 5
17 18 15 10 14 19 21 56 65 55 45 42 29 25 12 35 53 59 65 28 23 28 24 10 8 8 7 9 13 17 15 16 18 20 25 26 27 24 19 15 17 12 12 16 18 25 21 9 5
20 21 19 23 21 19 21 18 26 30 26 32 23 18 21 18 33 36 61 70 32 38 38 25 10 9 10 6 8 11 15 15 15 17 20 22 20 17 16 14 10 10 9 13 10 9 12 16 12
16 18 24 25 29 32 23 16 15 20 22 20 42 24 12 17 27 40 57 73 64 43 45 44 35 40 20 12 7 7 9 14 14 14 15 19 23 21 17 14 12 11 11 10 10 10 11 9 8

GFSSGP_500_rhum_072.txt.gz
RH
27 18 41 72 86 95 100 86 98 86 76 78 78 82 56 44 29 22 19 28 38 35 38 49 52 56 46 44 45 46 45 43 39 40 43 50 63 67 58 53 57 50 51 50 47 60 65 78 79
20 22 64 76 87 89 94 91 98 90 75 78 79 66 52 39 21 18 19 26 26 26 37 47 43 41 42 39 37 37 46 53 51 44 39 36 33 49 85 61 48 48 54 71 58 69 43 71 91
31 59 73 83 89 96 97 93 95 84 82 93 86 68 55 35 18 18 18 25 20 20 34 41 36 48 49 36 32 36 42 43 48 53 53 53 58 44 62 44 33 64 75 72 70 48 76 92 96
62 75 76 83 86 96 98 97 97 85 92 96 80 72 60 38 19 19 17 24 21 21 26 38 37 44 45 34 39 44 46 45 55 59 59 55 61 64 54 51 63 73 85 48 49 71 87 88 83
64 66 76 75 78 89 90 97 96 97 98 97 90 79 65 38 20 20 15 23 21 23 28 42 45 42 42 37 39 50 44 59 69 62 61 66 64 56 53 57 66 58 45 53 78 73 95 64 68
62 54 70 78 80 97 94 96 94 97 97 96 93 82 74 42 21 20 16 23 23 25 26 38 39 34 32 28 46 38 50 65 60 59 58 54 44 36 34 47 41 39 38 52 63 65 69 66 64
45 52 63 79 78 89 97 97 97 97 98 97 90 78 73 45 24 19 19 19 27 23 27 34 34 37 35 33 47 39 52 62 53 47 41 41 44 38 34 34 27 29 43 52 50 60 60 58 63
45 44 56 70 86 91 88 96 99 97 98 96 76 71 68 48 27 20 22 17 26 26 25 31 42 41 28 27 44 41 46 56 56 42 47 45 41 41 42 37 30 29 38 43 46 49 44 50 59
49 52 53 74 77 80 85 90 97 97 98 94 67 85 47 36 28 21 22 17 26 21 22 28 28 22 17 29 46 33 43 42 53 57 63 42 32 32 36 38 34 30 36 42 44 35 30 26 35
52 51 55 73 81 77 98 98 98 98 96 81 81 95 51 32 28 20 20 21 21 21 23 25 25 16 19 29 45 23 22 36 36 39 42 47 49 48 43 42 45 58 48 34 32 32 22 20 21
43 52 51 53 61 68 82 90 98 93 96 96 78 94 44 40 30 20 19 23 16 18 24 25 24 16 20 25 37 27 19 18 30 32 31 28 34 42 48 45 52 52 42 54 38 32 25 21 21
42 50 53 76 82 73 93 88 96 100 98 95 86 66 40 38 28 18 20 20 19 16 26 26 26 18 10 20 28 41 26 17 59 58 38 29 37 52 51 44 58 58 34 29 32 29 25 21 20
38 51 46 47 72 78 67 97 96 98 92 95 80 71 63 29 25 17 16 19 19 15 24 29 28 18 9 14 16 32 36 42 31 50 48 48 31 37 31 27 39 32 22 23 26 27 24 25 25
29 32 37 37 51 46 82 91 92 99 84 98 92 82 67 36 24 16 16 20 16 16 20 30 25 18 14 15 10 17 29 46 85 46 58 53 37 42 23 25 23 18 16 15 25 29 36 30 31
19 21 29 41 45 62 73 75 80 70 80 96 97 94 69 40 22 15 13 18 13 15 23 29 19 18 44 26 14 25 31 41 50 54 36 47 36 22 20 15 13 12 12 8 15 38 38 40 31
17 20 25 34 40 63 80 78 79 93 96 96 97 87 54 36 26 17 15 15 11 13 22 27 18 29 24 18 27 30 38 36 38 47 55 45 43 32 30 16 9 8 7 8 10 18 28 27 14
19 22 30 43 48 68 80 77 76 98 98 97 96 82 46 33 29 17 14 15 9 9 19 14 9 27 23 26 29 28 29 27 24 23 38 51 59 62 36 10 7 8 7 8 9 12 19 19 10
15 22 33 43 46 47 78 79 81 85 86 89 92 71 32 30 33 18 12 14 10 7 9 6 13 31 25 26 23 23 23 21 25 18 35 36 40 56 44 26 8 5 6 8 12 12 12 14 10
7 17 34 40 52 75 77 64 77 79 72 73 81 79 24 27 31 20 10 13 12 8 9 14 22 31 33 43 35 23 20 17 17 17 40 54 42 32 38 16 6 8 12 13 13 14 14 15 13
4 8 31 39 40 47 54 59 71 67 66 68 66 72 24 17 27 20 11 10 13 9 9 19 20 43 44 41 35 26 22 20 19 44 54 42 45 45 26 20 16 17 16 15 15 15 15 15 17
5 5 18 30 23 26 32 52 74 78 60 56 69 70 55 27 28 22 16 13 12 10 9 13 18 32 35 32 29 34 29 22 35 64 57 37 30 39 30 32 23 21 18 17 14 15 16 17 16
12 7 12 23 17 18 24 37 48 85 80 77 91 79 48 30 24 23 16 14 14 16 9 13 20 25 31 32 33 35 24 19 53 34 40 37 20 21 29 28 30 26 21 16 14 13 14 18 19
20 12 11 13 14 13 23 25 38 73 73 84 87 81 53 69 28 34 23 16 14 14 13 13 18 27 33 39 31 32 29 27 40 42 31 15 12 37 40 23 23 21 23 16 17 13 14 18 18
24 16 12 10 13 14 13 18 27 84 94 76 85 78 68 67 47 44 18 14 16 13 13 13 20 24 29 30 29 31 28 34 37 43 23 10 21 29 27 28 27 25 18 17 20 17 12 16 16
11 23 20 34 32 23 25 15 17 54 96 74 60 58 74 74 21 20 20 16 16 14 15 13 18 21 21 20 24 28 28 34 32 38 25 20 31 34 27 31 36 37 37 27 17 13 11 10 14
12 12 21 23 33 31 30 24 14 22 98 91 63 60 64 62 58 28 22 16 15 16 16 14 10 24 17 15 18 21 26 27 27 36 35 26 32 37 22 25 27 26 32 30 23 8 6 6 9
14 15 15 16 22 24 36 24 16 26 51 74 56 47 78 85 61 62 23 17 15 17 17 16 9 17 26 16 15 18 18 22 25 33 33 30 21 25 32 30 20 16 27 17 24 25 5 5 5
16 18 19 18 21 15 18 22 19 18 40 75 77 46 55 93 76 64 28 16 21 19 19 18 15 10 18 30 25 16 18 18 22 28 33 32 21 33 39 32 20 17 31 21 24 24 15 5 5
18 20 19 25 20 20 15 15 14 11 18 28 40 43 38 64 76 64 57 25 22 23 22 20 17 16 8 10 20 25 17 16 17 21 27 30 27 33 26 16 25 18 28 24 26 17 14 13 6
22 23 21 22 22 21 22 16 12 9 10 19 20 22 38 37 57 67 52 44 30 26 28 26 17 9 14 9 8 10 14 15 15 17 20 23 26 22 17 16 14 11 13 18 9 9 12 10 10

GFSSGP_500_rhum_075.txt.gz
RH
27 17 54 73 86 93 98 97 97 88 83 83 74 50 34 23 18 21 31 35 37 41 50 47 46 36 34 35 37 41 42 41 45 47 51 59 67 61 55 53 58 52 49 49 59 66 64 70 78
24 34 68 79 88 95 89 87 96 80 75 85 68 42 25 19 18 22 28 36 31 42 50 46 40 32 32 33 39 48 44 39 36 41 44 39 35 74 73 68 54 62 70 64 71 50 74 91 94
20 64 65 83 91 97 89 95 99 82 85 88 69 46 23 18 18 21 20 25 36 44 43 44 44 40 32 35 39 46 49 55 65 70 86 71 57 81 75 35 62 80 74 74 52 74 92 96 96
57 65 64 70 86 100 95 94 86 80 77 76 70 53 26 18 18 19 21 19 24 40 38 38 47 35 38 41 45 46 54 63 66 69 74 65 68 57 54 48 76 82 56 53 80 93 89 96 86
66 52 64 77 84 96 89 95 75 85 86 71 66 53 29 18 18 17 20 21 23 38 38 40 44 37 35 45 38 57 66 62 60 65 58 58 57 52 61 73 70 49 67 79 93 73 92 94 67
57 47 69 80 91 94 91 99 96 96 89 81 75 62 33 19 18 16 22 21 26 36 43 39 37 32 38 34 47 60 55 54 52 44 40 38 38 40 34 38 39 47 66 73 84 86 80 78 70
49 43 64 87 76 87 92 97 98 95 97 94 79 64 32 20 19 17 23 21 26 28 32 28 28 30 40 35 48 59 50 42 39 45 43 34 39 36 30 30 39 50 51 63 72 77 75 71 60
44 46 58 64 75 79 89 97 99 92 98 98 78 57 33 20 20 19 20 24 23 28 31 35 27 29 38 35 40 54 48 42 42 38 34 42 37 37 35 35 40 42 47 51 43 51 62 67 46
47 50 55 68 69 81 83 99 96 99 95 87 76 70 24 20 18 20 17 23 25 26 30 35 23 25 39 25 30 39 56 54 52 32 30 33 40 40 35 33 39 48 44 46 36 29 30 43 51
50 51 50 65 68 86 100 97 97 96 92 85 88 67 34 21 16 18 17 21 20 22 26 23 15 23 38 19 22 34 33 38 42 39 37 40 46 45 46 59 49 43 38 33 31 22 22 29 31
47 55 51 53 75 72 91 98 99 93 88 87 79 61 46 23 14 15 20 15 18 22 23 22 14 22 37 35 20 23 31 31 28 31 33 37 43 50 54 58 50 44 51 32 31 23 20 23 25
45 45 55 67 84 76 84 90 92 97 97 80 72 38 39 24 15 14 21 15 17 23 22 22 15 21 24 27 20 13 42 55 39 30 42 38 35 36 49 52 47 32 30 30 25 23 21 22 28
40 42 56 64 86 85 74 64 94 89 97 95 73 56 36 24 17 12 17 16 15 24 23 22 15 12 18 34 35 26 35 37 38 43 38 40 25 23 26 27 21 24 26 27 24 25 26 27 27
38 38 50 47 48 77 53 78 88 98 87 99 78 71 47 28 19 12 15 17 14 23 27 24 16 9 13 23 27 32 39 64 50 46 38 44 37 26 25 19 12 11 21 28 34 31 28 26 16
33 34 35 36 40 43 65 84 82 89 86 93 87 76 58 32 24 13 12 13 12 18 28 24 16 11 16 11 16 24 48 51 39 46 38 22 23 22 19 18 16 9 9 26 36 37 27 15 11
24 24 24 28 37 48 55 83 84 76 81 88 88 85 59 40 25 15 12 13 12 18 28 22 18 19 31 13 22 28 34 42 40 43 28 35 34 25 16 11 12 9 8 13 26 32 15 8 9
20 18 20 26 39 57 64 82 89 74 84 85 99 93 53 30 29 19 12 10 10 20 27 18 19 35 20 22 29 34 27 31 38 40 45 54 55 33 10 8 7 8 8 9 16 19 13 7 5
21 21 27 32 41 76 74 78 87 84 99 97 95 78 43 24 26 26 13 13 9 16 22 14 14 26 23 29 28 27 22 28 26 34 40 42 54 54 14 6 6 7 10 11 12 14 12 7 7
20 21 30 30 38 49 58 81 82 86 86 89 81 44 34 19 22 24 15 14 9 14 14 8 21 24 23 23 20 21 18 19 29 30 35 38 38 36 31 11 6 9 13 14 13 13 14 7 8
7 16 25 28 30 43 62 87 79 88 85 89 68 72 48 16 19 25 17 14 10 8 9 8 27 26 27 39 32 23 18 16 17 44 51 42 40 31 14 8 12 14 14 14 14 14 15 11 7
4 7 17 23 23 41 84 84 82 85 94 95 86 81 43 25 22 22 16 13 14 9 11 10 28 33 38 40 34 25 20 17 21 44 52 44 57 25 19 16 18 16 15 15 14 16 16 16 9
5 4 7 13 18 28 44 54 78 83 76 84 92 72 53 31 27 20 16 12 13 12 10 20 21 38 38 36 28 23 20 20 54 57 36 33 38 29 26 22 22 19 15 14 14 14 17 18 16
14 8 5 5 8 17 39 42 66 94 93 100 100 97 83 40 28 24 20 15 11 13 9 13 16 30 33 26 25 25 22 27 58 47 36 37 24 23 25 34 22 21 15 14 12 12 16 18 16
21 17 10 6 4 11 26 36 41 51 86 78 77 84 82 92 34 20 19 18 11 10 10 11 17 22 31 29 28 27 28 32 42 41 22 13 34 26 24 28 20 20 18 17 14 9 12 14 14
19 21 16 13 8 9 11 40 42 42 91 83 84 81 77 68 46 22 26 24 16 13 12 11 14 20 29 35 30 31 29 32 38 39 18 13 26 31 27 27 40 31 18 14 13 11 8 12 18
13 21 19 14 11 12 9 15 26 36 83 97 98 76 62 71 59 51 43 28 20 16 16 17 13 19 28 38 32 32 28 31 35 39 28 28 32 28 26 30 37 41 31 23 18 6 8 9 12
12 12 19 20 16 19 20 19 19 20 33 58 86 78 82 84 66 25 24 22 21 18 18 23 19 16 23 33 31 28 31 27 32 35 34 35 36 35 22 26 26 25 36 26 18 5 17 19 12
15 14 17 15 16 21 21 21 19 21 23 98 95 76 98 88 80 72 27 20 22 21 18 19 17 15 19 23 27 22 23 22 26 31 37 35 29 28 28 31 19 31 30 19 27 18 4 5 5
14 16 16 24 16 15 13 12 14 18 27 45 92 75 85 97 98 99 78 22 21 24 16 17 17 9 14 25 21 17 18 16 19 25 33 35 27 25 38 42 26 24 39 25 23 25 12 5 4
15 16 15 19 21 14 12 11 10 9 14 30 94 91 76 70 98 97 96 58 15 34 29 31 15 11 8 15 27 25 15 15 15 20 26 32 32 26 36 33 18 24 34 20 30 22 11 22 11

GFSSGP_500_rhum_078.txt.gz
RH
27 20 63 73 83 96 99 98 90 72 77 81 59 30 20 18 21 33 35 34 41 47 52 42 39 38 37 33 38 42 47 42 44 47 52 62 58 54 54 58 55 49 49 54 60 60 61 64 76
23 50 70 81 90 97 92 94 88 79 80 84 42 20 17 18 21 29 35 36 44 45 43 37 38 38 38 41 48 45 43 46 45 45 41 35 76 83 62 64 65 63 69 70 70 63 83 94 82
25 65 72 73 79 98 89 99 87 78 85 70 45 19 16 17 20 23 27 35 42 42 42 38 33 34 38 44 45 47 58 64 63 80 67 52 72 78 36 62 86 73 87 68 69 92 95 94 88
56 61 62 75 84 99 92 97 84 79 78 62 41 21 17 17 18 18 27 38 40 37 42 38 37 41 46 44 54 66 69 67 70 70 62 64 64 57 52 65 82 66 61 80 87 98 93 82 67
63 56 75 90 98 98 92 89 73 77 78 62 37 22 17 18 18 19 19 30 36 34 41 38 34 44 40 54 63 58 60 61 62 59 57 59 53 54 71 76 49 62 75 86 82 93 94 62 46
51 59 78 85 91 90 87 82 86 85 74 60 39 22 17 17 17 19 21 28 37 34 38 35 35 36 43 57 51 55 49 45 47 42 41 37 35 50 47 41 59 72 79 76 83 83 75 65 61
51 60 77 80 82 95 89 90 94 86 70 68 42 23 17 19 17 21 22 27 42 37 33 29 39 42 44 56 48 41 40 47 37 36 39 33 30 32 34 48 53 57 68 80 83 73 69 53 39
51 54 71 77 88 97 98 96 98 96 95 75 44 24 18 18 17 23 23 26 31 28 27 28 44 36 33 49 43 45 48 39 34 38 34 33 31 32 40 39 44 51 65 66 64 67 64 44 29
44 56 66 79 85 84 94 92 88 98 98 78 50 27 16 16 17 21 23 25 29 32 33 24 39 34 29 38 48 40 42 36 43 38 41 37 33 35 40 44 43 51 41 29 32 52 52 54 31
57 65 59 74 86 82 96 96 94 98 98 71 71 33 20 12 16 17 23 24 26 29 30 18 36 24 21 27 42 42 48 43 36 36 35 38 45 54 43 44 39 35 38 26 35 24 33 44 35
53 67 57 64 83 92 89 82 75 89 86 73 61 37 26 13 14 16 16 21 20 25 18 15 31 32 20 25 26 27 26 31 36 41 38 39 45 54 51 46 53 32 28 26 21 23 25 27 30
56 60 56 73 84 93 93 89 83 94 86 70 61 24 27 16 11 16 14 18 20 21 19 14 23 40 24 15 26 42 27 26 34 43 40 30 40 44 42 34 26 27 24 22 21 22 26 29 34
46 52 54 78 90 98 84 87 92 95 76 77 64 36 21 21 12 15 14 16 21 20 18 13 19 25 26 12 30 46 38 29 34 38 39 26 21 20 18 24 25 25 23 22 23 24 27 26 27
43 48 51 57 93 69 58 84 94 96 96 88 66 45 29 24 14 15 15 12 21 22 20 14 13 19 36 31 26 30 39 40 38 47 50 30 19 14 11 11 19 27 29 26 24 20 20 16 18
40 40 55 55 47 50 49 78 85 89 95 92 73 53 39 25 16 11 11 10 20 24 22 18 10 14 21 28 35 48 53 49 36 24 22 29 23 15 10 9 9 20 33 32 22 15 12 12 14
37 37 46 45 41 40 42 86 84 74 80 89 78 65 48 25 23 14 14 10 15 25 23 19 13 15 10 15 26 54 49 35 42 40 31 22 22 18 11 8 9 12 26 32 18 9 10 11 11
27 42 34 32 38 41 39 85 83 73 77 85 87 79 58 24 25 17 14 11 12 23 21 15 16 20 13 16 29 35 41 45 48 30 36 32 28 19 11 7 8 9 13 18 14 6 8 11 12
23 38 24 25 34 43 57 78 93 82 94 99 96 90 53 22 22 22 14 14 11 20 24 16 16 36 21 20 34 33 30 35 37 49 50 48 50 26 8 7 8 10 11 13 14 8 6 6 14
22 28 29 26 34 49 85 86 85 98 92 98 99 91 51 27 18 23 15 15 10 20 25 18 22 22 20 28 28 26 25 36 21 41 28 45 45 29 12 6 8 11 12 12 13 10 7 6 4
29 29 28 31 28 40 62 75 86 98 97 97 97 80 37 14 20 24 16 15 9 14 22 16 20 21 20 23 22 22 20 21 24 36 45 35 32 26 22 6 10 13 14 14 14 14 7 7 7
16 30 33 42 32 30 40 65 98 99 98 92 94 69 53 20 24 26 21 14 14 10 21 10 18 25 24 36 28 20 18 17 17 42 42 37 29 24 13 11 14 15 14 14 15 15 13 7 7
5 12 16 28 34 60 47 96 96 99 95 97 93 88 79 30 23 26 24 15 16 9 14 9 21 28 28 43 36 23 20 19 38 45 36 43 43 25 27 17 18 16 14 13 13 15 15 11 6
7 4 6 13 27 24 50 98 87 96 96 97 98 96 83 30 22 29 26 16 17 13 8 8 15 33 40 41 32 25 23 21 50 55 32 33 40 42 33 21 19 20 13 13 11 13 16 16 10
11 6 5 4 13 24 73 92 71 84 86 100 95 97 86 55 25 21 27 18 16 16 8 15 21 30 39 36 27 26 28 21 50 47 32 24 30 33 41 33 22 27 15 13 17 12 14 17 14
16 14 9 7 6 40 61 68 55 71 84 96 98 97 98 85 55 16 23 20 16 15 14 9 18 18 28 31 28 32 32 23 42 41 38 24 26 25 38 32 42 19 25 23 16 22 12 18 14
14 19 45 42 38 62 22 64 22 45 53 80 88 92 99 100 86 61 21 23 18 17 16 16 10 13 20 27 33 32 34 26 36 42 24 11 30 35 26 31 48 40 25 15 11 20 9 27 28
19 20 78 86 77 71 29 18 27 38 44 82 97 91 98 94 87 83 28 37 24 17 17 17 21 13 14 23 30 30 34 28 33 35 24 15 26 26 30 33 34 44 39 32 20 7 16 17 16
15 24 30 28 66 76 67 15 11 27 39 47 77 96 94 73 94 86 63 51 27 19 16 15 18 22 16 20 26 27 30 29 28 33 30 23 29 32 26 25 23 33 29 28 26 10 23 30 11
16 18 20 56 64 67 84 48 15 19 24 24 27 72 92 84 77 69 45 30 25 22 16 15 17 21 17 18 22 21 22 27 25 29 32 30 30 31 22 28 31 42 28 19 23 24 6 9 17
21 14 18 35 30 39 72 62 14 20 28 29 99 98 89 96 100 90 83 68 33 24 20 16 16 17 15 14 21 18 16 19 22 23 27 30 32 27 22 30 37 36 39 34 25 31 15 21 11

GFSSGP_500_rhum_081.txt.gz
RH
25 30 64 80 89 96 98 98 82 78 73 76 51 20 17 20 54 32 32 38 40 37 33 30 33 37 33 35 41 74 42 41 41 40 42 46 43 50 53 57 50 50 56 72 72 69 68 66 74
21 60 71 84 85 98 92 97 86 73 77 66 35 18 18 25 30 28 35 42 36 31 33 36 38 38 41 48 47 47 44 46 52 52 68 68 70 64 64 58 64 75 76 82 74 76 90 94 91
32 66 72 76 88 98 94 98 89 76 74 41 27 18 18 19 25 24 33 39 38 34 33 32 34 38 44 53 47 64 62 60 74 67 34 40 82 50 54 78 73 90 77 81 92 90 97 91 68
64 63 76 92 98 94 98 95 84 80 59 35 20 17 15 18 21 26 34 33 39 36 34 38 42 46 48 70 63 69 66 67 76 66 68 79 75 58 52 78 76 66 87 83 92 76 82 100 52
56 67 82 98 98 97 97 92 75 69 56 33 20 16 15 18 17 24 33 31 34 36 33 36 42 42 60 59 58 59 63 63 57 68 64 53 53 65 74 63 60 76 80 89 94 96 56 49 67
60 71 90 90 91 94 94 79 75 70 56 33 21 15 16 18 19 20 31 32 36 36 32 41 46 53 54 60 45 48 51 45 42 38 40 50 55 46 50 67 71 78 77 80 72 63 60 60 62
66 74 84 86 93 96 90 74 81 75 56 40 22 16 15 18 18 21 32 34 33 32 30 40 51 55 49 43 45 43 33 34 36 30 30 31 33 41 52 57 64 72 81 76 66 61 48 46 37
66 72 83 83 96 97 95 94 98 71 70 38 20 14 14 18 20 22 30 41 30 28 31 38 38 50 48 47 45 39 36 38 35 31 28 31 36 38 46 53 62 68 76 76 69 55 40 33 29
57 78 80 83 91 99 98 96 97 86 73 42 32 15 13 15 21 23 26 34 27 26 30 38 34 42 48 39 41 35 42 42 45 42 37 40 36 37 43 46 54 34 36 51 55 55 54 29 26
66 71 80 94 85 90 100 94 95 96 87 51 30 18 14 14 18 21 25 31 31 32 26 36 27 29 40 47 45 43 49 49 36 37 43 49 43 37 37 39 36 28 32 32 29 36 49 39 25
65 78 59 75 77 93 82 98 94 96 98 65 35 21 16 14 15 20 23 25 29 28 21 38 21 26 31 32 42 45 33 35 39 39 44 51 51 46 51 45 35 26 23 23 25 27 28 31 32
62 78 61 70 77 97 92 82 74 98 94 74 41 23 19 15 14 16 22 23 22 18 16 34 30 20 26 25 24 25 26 30 35 29 38 44 43 38 35 37 34 26 22 22 24 28 32 35 34
50 67 60 78 92 84 84 85 99 99 92 69 40 29 19 15 14 14 16 20 21 16 14 22 37 24 15 35 41 29 29 33 31 25 24 23 21 26 29 30 28 24 24 23 24 24 24 26 27
53 62 87 89 99 82 69 89 94 94 90 71 45 29 23 16 13 13 13 18 21 18 12 18 20 26 14 27 43 34 35 36 44 25 19 16 15 13 20 26 27 25 26 25 22 48 19 16 18
71 49 54 62 65 75 61 82 91 98 94 90 62 38 28 23 13 11 11 16 21 20 14 12 13 30 33 26 31 38 42 39 37 28 21 13 11 11 12 16 28 33 28 19 14 13 13 12 13
44 46 59 68 52 46 56 96 96 87 92 94 84 48 36 27 17 12 12 11 20 22 19 11 10 12 26 32 40 62 46 49 34 25 20 17 11 9 10 10 17 33 31 13 10 12 12 10 8
41 94 100 59 46 47 43 90 97 79 87 90 96 60 43 29 23 14 14 11 18 22 23 15 9 13 10 16 36 56 46 42 38 34 39 27 16 8 8 12 10 18 23 12 9 10 10 9 9
39 95 98 93 44 36 43 80 76 75 83 90 95 77 61 31 26 17 14 13 11 24 23 19 13 15 15 14 24 39 44 45 40 38 50 51 33 8 7 8 9 23 14 14 7 7 14 14 15
96 92 95 97 49 29 44 93 66 74 86 97 92 83 69 39 27 20 14 15 10 16 25 19 16 32 23 15 29 36 32 36 38 48 40 51 54 15 6 8 10 14 12 15 10 5 5 6 10
52 96 95 63 98 30 97 91 52 67 100 95 96 98 67 32 24 24 16 16 12 15 25 18 18 25 18 27 28 25 25 34 25 35 28 35 33 22 9 8 12 14 14 13 12 10 6 4 5
38 98 96 52 22 29 71 73 49 60 95 95 97 97 72 62 33 29 24 15 15 11 24 18 16 26 21 26 21 21 19 19 23 36 42 31 21 16 8 12 18 14 14 14 14 12 7 7 7
26 68 98 92 39 70 36 88 38 63 84 91 94 92 50 39 25 26 27 15 17 11 16 22 13 26 22 26 30 28 28 22 16 34 43 30 15 15 13 14 15 13 15 15 15 15 15 6 7
68 78 95 97 33 95 90 90 72 37 58 82 97 95 68 61 26 27 29 18 14 14 9 19 10 23 26 27 42 33 22 15 13 28 41 38 24 28 22 16 15 16 12 12 13 16 16 11 6
59 96 92 88 58 78 86 87 84 95 66 64 94 82 86 81 51 32 22 16 14 16 12 13 11 17 28 30 40 32 27 20 17 31 41 39 38 34 30 20 18 25 13 11 11 13 16 14 10
71 97 96 76 72 70 71 94 76 99 65 69 88 90 97 73 70 31 28 19 14 13 17 10 9 10 29 37 35 25 28 20 17 41 40 24 31 30 38 33 22 22 17 20 15 15 12 15 13
18 48 84 80 68 59 66 92 79 74 57 75 85 93 80 84 98 76 32 25 18 14 14 16 10 18 20 35 32 23 29 30 17 39 37 33 20 26 29 30 39 18 19 20 21 17 10 23 13
29 23 71 64 61 48 75 79 84 66 45 68 82 82 92 96 97 90 59 36 22 19 16 18 18 11 19 19 30 30 27 29 23 33 34 24 15 33 33 25 40 36 26 16 25 17 15 20 28
47 48 79 75 75 53 70 68 66 28 37 50 52 54 78 83 86 74 69 64 35 22 17 16 17 18 12 12 18 25 30 26 24 29 34 19 14 25 33 27 25 36 34 26 13 10 17 11 15
24 28 89 74 72 58 95 94 57 26 29 44 44 44 60 70 57 74 97 64 36 32 20 16 15 17 18 12 13 19 28 29 22 23 32 31 18 25 24 24 20 31 23 23 28 16 21 22 17
58 83 69 88 74 75 70 93 68 41 19 34 41 41 48 54 90 81 96 91 83 52 29 21 17 14 15 13 12 17 21 24 23 24 25 30 25 27 31 18 27 33 35 23 17 22 12 6 11

GFSSGP_500_rhum_087.txt.gz
RH
24 52 70 88 96 98 99 97 74 98 74 42 18 16 32 44 28 35 33 30 24 23 24 30 25 25 26 27 22 25 26 30 34 34 36 42 50 51 50 56 66 79 68 69 74 70 64 64 67
22 65 80 80 97 98 99 98 84 100 84 35 15 18 34 30 28 31 32 27 27 30 31 32 38 44 42 54 38 36 36 36 39 62 53 55 55 58 68 74 76 78 80 87 95 84 85 82 83
35 65 65 80 98 97 98 97 76 86 67 19 18 17 25 23 30 30 26 27 29 32 33 36 42 57 56 50 58 53 52 59 38 36 61 66 43 75 66 70 80 74 75 66 66 70 58 58 52
62 61 83 90 97 97 97 97 86 59 38 17 12 16 23 24 31 27 33 38 30 33 34 40 56 60 56 63 62 58 58 66 51 54 63 56 59 59 68 78 81 76 66 72 51 48 46 48 52
63 92 96 100 93 96 98 74 49 46 27 18 12 14 21 26 29 29 27 27 33 36 46 54 57 54 52 53 51 52 52 55 59 53 51 51 54 63 74 82 90 66 53 52 55 62 62 62 59
78 97 95 90 97 90 90 58 61 96 43 15 12 13 18 26 30 31 32 28 28 40 52 52 45 46 42 37 28 27 31 42 48 40 34 40 49 60 71 80 76 59 41 36 40 38 32 29 28
86 91 81 90 96 99 96 77 57 39 27 16 11 13 18 22 26 32 29 32 28 44 52 46 39 38 32 31 26 21 22 23 25 27 27 31 42 62 71 78 73 61 40 23 25 26 28 26 25
72 97 97 82 97 97 89 77 68 48 42 17 12 13 18 21 26 40 39 26 33 30 44 41 39 36 31 29 28 27 25 26 43 30 27 30 47 41 52 57 64 56 42 35 22 25 24 26 28
66 80 92 85 94 98 83 96 75 57 41 50 13 12 18 20 29 45 44 28 30 27 36 41 44 32 30 33 39 43 45 55 45 43 36 29 32 27 32 36 43 46 55 59 30 21 21 27 35
89 86 97 65 84 89 98 94 89 72 63 44 23 10 17 19 30 28 54 26 32 28 33 37 32 31 32 44 56 30 36 54 38 35 31 28 20 18 21 24 27 39 51 37 60 30 23 27 32
91 85 76 68 84 100 93 97 94 73 47 40 18 12 15 20 19 27 23 20 25 25 21 24 31 28 38 40 27 26 32 38 44 23 23 34 20 19 19 34 34 47 61 37 31 28 36 32 27
97 93 88 73 66 95 83 97 100 91 68 41 17 11 13 17 21 20 26 22 20 21 18 22 24 17 18 21 26 22 15 22 30 24 24 24 19 26 48 34 43 67 56 45 33 30 37 29 27
92 78 72 80 86 86 82 96 91 89 91 53 20 14 12 15 18 19 22 22 15 24 22 18 43 20 21 16 21 19 13 12 13 15 17 29 80 50 55 67 35 63 55 42 54 36 46 26 23
62 63 77 64 80 77 86 90 100 98 94 68 24 20 14 10 14 19 20 21 11 15 22 22 10 20 29 20 24 30 28 12 10 11 11 25 56 55 49 39 46 32 61 43 30 21 23 24 22
94 71 56 47 75 94 75 78 96 98 90 64 45 28 19 13 10 12 17 17 13 11 11 10 15 11 21 24 29 28 21 19 14 10 10 44 32 42 33 30 28 52 71 28 26 21 21 20 14
61 88 67 75 56 80 70 95 97 89 89 76 51 24 21 19 12 11 12 17 19 12 10 8 17 22 21 29 41 52 36 24 19 16 11 10 15 40 37 30 46 35 44 15 13 12 11 11 9
51 64 57 48 50 56 64 76 97 97 95 91 71 47 25 23 16 13 15 13 21 18 10 8 10 10 14 20 38 37 32 29 26 28 17 10 10 27 15 31 41 13 15 10 9 11 9 7 5
53 75 67 88 46 52 50 52 62 68 96 90 89 63 48 28 19 15 14 12 16 19 18 11 10 11 9 11 17 27 36 33 36 42 48 25 8 14 19 16 25 9 8 14 15 11 10 9 9
44 71 70 97 98 61 72 62 54 65 82 77 75 80 69 52 26 14 12 12 12 18 21 16 11 10 16 14 20 22 33 37 43 41 36 31 22 10 23 17 13 14 8 8 5 10 11 12 6
31 84 99 74 97 95 90 93 83 56 51 74 85 95 90 59 36 16 12 12 12 14 21 18 14 11 24 13 22 24 26 29 25 34 29 27 18 19 13 20 19 19 13 16 8 5 4 5 5
22 55 99 100 100 96 93 96 92 73 64 67 94 95 93 67 54 21 14 12 11 10 18 19 16 13 19 17 22 29 21 22 28 29 37 24 16 18 20 17 21 17 16 13 8 7 5 6 7
21 43 94 77 90 85 92 81 65 86 73 81 82 96 99 89 67 28 15 14 11 10 12 19 17 14 19 19 24 20 18 21 18 35 37 24 14 8 9 18 26 14 17 17 13 8 7 6 6
22 91 100 97 96 97 97 64 56 84 81 85 53 89 98 88 86 39 14 17 12 10 11 17 20 15 21 23 25 33 31 27 46 31 60 45 19 15 12 8 21 30 21 17 13 11 7 6 7
56 78 84 90 92 96 78 98 55 66 89 95 78 64 97 93 97 53 30 21 17 11 10 12 20 17 19 20 27 38 46 41 41 33 59 60 47 29 14 15 26 19 60 10 12 12 13 8 11
29 83 90 99 96 72 88 98 74 77 97 92 81 94 83 98 98 83 56 25 20 12 11 10 15 20 13 24 24 31 38 42 45 32 32 56 61 45 33 23 22 22 27 20 24 10 12 11 12
9 88 96 92 97 87 79 87 92 90 90 65 82 96 91 96 97 88 86 90 43 22 14 12 9 16 14 15 24 27 34 34 30 30 32 43 42 62 42 50 32 26 20 20 22 16 13 11 10
12 65 78 100 97 84 75 68 76 76 65 55 63 74 86 90 96 96 78 75 54 37 16 13 11 11 14 10 18 26 31 25 22 26 31 39 47 41 61 67 50 32 23 20 30 32 29 24 19
28 54 86 91 87 94 75 64 66 62 64 67 56 48 46 62 86 91 93 75 71 54 23 12 12 11 10 10 10 24 30 28 26 25 25 32 38 32 88 64 39 39 34 28 23 29 24 28 25
27 44 69 77 88 92 97 95 86 64 59 54 45 29 32 35 66 96 95 88 92 92 53 31 15 13 12 16 20 26 24 35 33 33 26 28 36 37 34 68 68 41 39 32 27 20 25 31 22
51 35 46 70 88 100 96 94 81 88 83 76 59 50 52 31 35 64 97 97 96 97 97 58 73 43 26 13 9 13 20 21 28 31 28 23 31 35 25 51 60 36 44 34 39 36 27 21 43

GFSSGP_500_rhum_093.txt.gz
RH
31 40 67 83 93 99 90 94 83 23 26 38 41 41 42 29 30 27 22 27 39 29 32 43 29 22 20 20 23 27 35 43 49 47 63 57 63 65 69 68 75 76 74 72 67 66 65 63 61
30 44 70 80 99 98 94 84 79 23 23 33 41 29 31 30 28 28 28 27 27 28 32 36 39 45 62 35 36 39 41 50 69 70 64 72 70 66 71 70 60 61 87 86 78 74 74 74 64
27 56 78 97 97 96 93 65 85 25 30 35 30 32 32 31 31 31 32 34 33 38 49 57 56 48 46 45 48 51 54 44 58 76 54 74 67 76 68 64 44 54 77 66 57 57 73 79 69
36 69 89 97 98 97 97 80 34 17 17 21 27 33 29 34 31 31 34 36 47 56 60 65 63 62 59 59 56 67 58 45 70 61 70 64 72 68 76 51 44 46 50 50 47 54 68 70 69
63 98 98 98 96 96 98 72 54 13 13 20 24 28 30 32 26 33 42 48 45 50 51 46 48 51 51 56 59 60 61 63 53 53 61 65 71 72 60 49 54 53 52 54 68 72 76 75 78
68 89 97 100 96 99 96 73 34 13 11 16 23 26 30 27 26 36 46 48 41 36 32 27 27 28 28 40 50 54 50 44 38 52 55 75 68 56 40 34 37 32 28 31 46 63 59 72 75
76 85 95 99 100 97 99 84 43 17 13 16 20 28 32 27 24 34 47 39 36 33 29 29 22 24 27 27 28 32 32 32 36 47 60 75 70 58 46 25 26 27 28 30 28 32 35 34 53
63 82 91 97 93 86 75 68 74 22 16 17 18 24 33 29 27 32 40 38 36 31 32 28 31 29 31 36 42 34 28 31 39 52 50 69 65 63 43 38 20 24 22 26 30 72 79 65 52
63 91 82 97 97 99 79 63 44 23 15 16 18 23 30 46 27 25 33 40 40 29 31 34 44 44 46 50 43 42 40 34 32 40 35 65 55 44 45 48 33 20 18 27 38 61 86 81 65
67 81 93 98 97 86 82 79 64 65 20 17 19 21 38 55 25 25 29 49 41 31 30 33 51 33 31 48 42 28 28 32 24 23 25 35 27 35 57 47 58 46 38 46 58 60 72 65 56
78 96 84 87 93 95 89 88 90 82 48 14 18 21 28 39 57 30 52 32 31 28 29 30 31 22 26 30 30 21 22 26 23 19 24 33 40 52 73 52 30 30 53 36 56 54 49 44 27
73 51 96 81 97 90 97 90 98 72 92 20 15 21 27 34 25 24 15 26 28 25 25 19 22 20 24 14 20 17 19 21 22 24 42 52 45 68 60 41 27 26 42 30 33 51 39 15 6
83 74 91 97 87 88 98 97 98 86 80 37 13 19 22 24 21 20 22 20 20 36 23 16 21 23 25 15 18 14 11 19 46 42 57 61 42 57 52 46 32 37 50 29 30 25 8 5 4
72 82 94 95 97 96 93 98 92 96 62 36 17 14 20 18 25 25 20 27 20 24 32 31 25 25 32 31 16 15 14 14 34 50 44 40 48 48 45 36 27 30 28 25 16 11 9 6 4
58 96 95 95 96 88 100 97 97 99 96 80 19 13 16 20 21 24 18 20 33 25 15 27 31 28 34 33 24 20 12 14 33 43 47 38 34 53 41 24 21 22 23 17 9 9 9 7 5
64 77 94 91 90 75 93 96 93 91 98 100 44 18 13 14 18 20 23 14 18 20 25 13 20 32 39 53 37 27 21 16 12 26 35 30 41 44 47 30 17 16 13 12 8 9 8 8 5
52 58 94 93 87 78 81 74 84 98 97 96 66 23 16 13 14 18 20 19 14 14 16 21 26 28 45 40 44 40 37 32 20 26 29 24 37 40 27 10 11 12 11 13 11 10 8 8 7
55 68 82 90 88 83 93 83 90 69 97 94 95 32 21 16 13 13 16 18 20 13 15 22 25 24 31 43 44 43 37 50 49 23 18 24 30 24 17 26 26 10 10 7 6 5 5 7 8
56 62 70 81 82 90 98 85 84 81 74 99 93 72 45 24 16 13 13 17 20 19 13 10 15 13 14 23 34 47 46 53 49 47 25 13 38 24 16 10 30 28 12 10 10 10 10 9 11
58 58 53 70 72 90 97 97 91 96 93 97 93 95 84 56 22 14 12 14 16 18 18 12 11 14 13 21 35 39 41 32 39 36 31 34 25 17 17 16 11 6 10 20 10 8 7 7 9
62 64 57 55 53 97 97 95 86 91 94 97 93 81 78 89 80 28 14 14 13 14 19 19 14 11 22 14 28 26 28 37 38 50 30 18 21 17 20 22 13 16 12 13 5 6 6 6 6
43 69 72 74 81 68 95 92 96 92 97 94 98 86 80 87 99 50 17 13 13 11 17 21 20 15 18 19 28 27 24 39 54 56 34 33 23 23 36 24 19 15 10 18 7 6 6 7 8
39 99 94 73 68 56 62 88 94 94 97 94 97 83 93 86 97 85 42 19 12 12 10 19 23 20 17 21 28 24 40 28 32 45 44 47 13 19 34 44 23 21 17 10 9 10 6 10 12
57 98 88 85 62 64 85 83 85 87 83 96 94 80 77 77 85 86 80 54 20 12 11 11 20 21 17 20 27 30 37 35 42 58 61 58 29 16 28 41 51 31 21 16 13 10 11 8 10
28 76 68 96 67 56 85 83 84 82 73 90 96 90 70 65 70 87 98 85 60 26 14 12 15 21 17 24 30 46 48 45 43 46 76 76 46 31 27 29 29 36 20 18 17 18 17 11 9
12 45 49 88 68 74 92 69 90 94 91 73 80 85 85 84 66 91 97 97 90 34 26 13 13 21 19 22 25 40 43 45 64 41 47 56 59 40 29 30 36 31 25 29 13 14 14 20 11
12 16 31 87 85 48 76 73 84 90 76 68 60 55 73 72 86 92 94 94 95 51 33 23 14 14 23 17 25 27 35 41 40 43 37 71 56 72 52 43 38 44 31 27 26 14 14 13 13
15 17 32 63 87 49 53 56 71 65 58 41 38 72 59 60 74 77 82 85 97 69 33 31 15 14 15 19 18 26 29 36 40 32 43 47 59 82 76 66 58 36 30 31 37 28 26 26 13
16 25 30 87 76 50 41 43 81 64 54 45 44 61 67 51 66 42 42 55 97 89 64 43 19 18 17 19 21 16 24 31 35 31 37 35 46 58 51 75 73 52 39 29 33 36 30 28 29
13 22 34 73 89 52 48 86 72 68 57 44 54 52 69 54 44 35 46 93 98 95 97 96 90 29 29 32 15 21 12 24 31 36 28 30 33 44 43 72 75 48 51 47 35 27 34 22 28

GFSSGP_500_rhum_096.txt.gz
RH
33 26 65 96 94 87 81 65 18 23 34 37 39 41 32 32 29 28 34 37 28 39 54 37 26 21 21 26 32 40 53 66 55 65 54 70 70 74 79 92 96 87 74 68 65 63 60 55 52
35 28 62 84 96 94 92 57 27 28 34 34 28 27 28 28 28 28 29 30 30 35 39 40 46 57 38 39 41 43 51 68 69 60 66 60 69 74 80 74 71 84 89 81 75 68 67 70 66
30 39 68 98 97 91 91 70 18 24 26 29 28 28 29 30 31 32 33 36 42 52 59 55 48 47 48 50 55 52 40 67 63 62 64 69 70 72 55 56 64 76 76 65 74 80 76 66 53
27 62 90 90 98 89 78 35 23 30 25 26 26 31 29 27 29 34 40 49 56 57 59 57 59 61 58 58 71 61 51 65 57 63 62 70 72 61 50 51 53 52 52 51 73 69 66 66 51
46 96 97 98 93 100 95 60 17 21 21 25 27 26 28 31 40 49 54 50 43 42 46 52 56 57 59 66 68 66 61 53 56 62 68 83 68 45 55 47 47 51 55 67 70 79 77 68 67
63 82 98 98 96 90 78 59 16 18 19 25 29 27 25 33 41 45 48 44 31 22 29 31 45 44 53 53 53 55 54 49 49 60 76 70 58 50 38 35 32 32 44 55 70 69 87 88 80
80 91 99 97 90 99 82 37 16 15 20 26 29 31 27 33 41 36 37 33 26 25 20 27 38 35 40 45 36 34 42 48 59 68 76 69 70 59 26 24 26 28 27 42 54 42 72 77 57
72 85 86 82 96 98 89 59 17 12 16 22 24 28 37 32 38 34 38 33 29 27 29 31 38 40 39 42 48 38 40 44 51 65 75 78 73 45 28 21 22 24 30 65 83 78 45 89 60
52 97 96 86 97 85 63 51 20 11 15 19 27 28 29 33 27 33 35 30 29 37 44 40 42 46 40 39 46 39 21 45 49 68 75 58 49 52 53 23 23 29 35 62 90 84 60 65 62
61 82 92 95 78 70 70 57 38 11 16 19 25 36 27 27 27 42 37 32 30 36 51 27 31 43 42 30 28 29 21 19 26 33 34 32 43 60 52 62 42 52 52 59 66 73 70 58 46
71 81 96 97 92 93 95 85 49 16 15 17 24 46 38 29 29 44 36 30 30 30 34 18 19 27 27 18 20 22 18 22 26 31 38 46 76 82 50 41 49 41 53 53 48 51 47 38 28
65 64 94 97 97 97 99 84 69 35 14 17 20 30 52 44 22 36 26 24 25 26 23 21 14 16 19 15 17 22 19 27 39 47 44 64 66 48 34 33 40 29 42 58 37 26 14 9 6
85 82 88 98 96 97 98 96 96 90 39 13 19 25 26 24 22 21 20 28 21 16 20 23 21 14 15 13 13 17 38 39 52 53 46 60 59 49 40 40 49 29 33 31 16 7 5 5 4
73 88 90 94 92 99 99 90 98 95 59 15 15 20 24 27 25 26 15 20 42 26 21 23 27 28 16 14 14 14 28 48 44 35 44 54 56 42 34 39 34 25 20 9 6 4 4 3 4
63 75 93 93 92 92 98 98 97 95 73 20 15 17 21 26 24 20 22 20 18 27 33 25 30 31 23 21 14 14 26 44 61 50 34 42 44 34 31 30 26 16 10 13 9 6 4 3 4
64 93 95 96 96 84 96 98 97 97 97 90 15 14 16 20 20 20 16 25 28 16 18 32 33 40 40 25 21 18 12 19 44 33 36 46 49 32 20 23 22 9 8 9 8 6 5 4 4
70 98 94 94 84 93 96 94 95 98 97 98 32 16 13 16 18 19 14 12 16 20 16 21 34 46 57 34 30 31 23 17 33 30 34 42 35 28 19 13 11 8 7 7 8 7 6 6 5
56 70 78 91 93 86 81 78 83 92 96 97 88 24 16 12 16 19 19 15 11 13 21 26 27 46 50 44 33 38 49 38 24 25 22 38 30 18 19 20 10 10 9 9 10 9 8 7 7
57 59 65 96 93 96 84 100 89 85 61 88 82 28 22 12 12 15 17 18 16 11 12 18 19 26 44 40 44 46 47 51 66 16 25 30 20 17 29 28 12 10 10 8 7 6 8 10 8
58 60 74 94 98 94 97 99 94 90 77 84 97 53 22 19 12 13 14 17 18 16 12 11 13 13 21 30 48 52 40 38 34 37 19 37 23 22 25 31 22 22 15 12 10 10 10 12 12
49 55 69 75 83 94 95 98 98 92 92 94 98 89 61 33 19 16 13 13 18 20 18 12 12 15 16 27 31 42 36 37 46 31 34 31 31 24 32 35 10 10 20 8 9 9 9 10 12
39 65 67 94 76 79 79 81 92 95 95 90 97 92 95 77 40 18 13 11 12 17 22 21 14 12 23 16 32 31 29 58 52 36 30 22 22 21 23 19 22 26 17 10 6 6 6 7 7
30 51 100 90 53 55 65 68 76 91 93 91 97 94 97 98 91 60 23 15 11 10 16 22 19 13 19 21 30 32 27 29 35 53 50 18 30 36 30 26 32 16 10 22 8 8 7 7 11
23 47 52 92 79 38 64 61 60 64 91 84 90 97 94 96 99 84 63 27 13 10 11 18 21 18 16 21 26 23 49 30 43 44 41 28 17 27 44 42 24 24 16 11 12 12 7 7 13
15 24 59 84 64 78 48 48 64 74 68 58 80 96 94 87 93 96 95 65 29 15 11 12 19 20 16 22 26 27 37 38 52 51 63 56 30 16 29 38 50 28 18 15 15 16 12 9 10
11 14 16 46 78 92 57 38 81 85 67 69 79 87 92 69 73 85 98 94 92 69 17 10 12 18 21 20 24 33 42 38 44 43 55 77 48 26 25 31 32 31 25 17 13 15 16 10 9
11 12 42 65 78 61 63 37 81 88 73 72 78 90 93 84 72 86 100 98 96 97 84 14 10 13 19 22 21 28 40 36 47 66 50 54 56 37 24 32 36 35 33 28 15 11 11 18 11
17 14 23 35 43 52 79 55 88 91 74 80 68 56 62 78 84 89 85 97 94 96 95 38 16 12 13 22 23 22 26 31 30 37 42 52 59 60 56 41 34 52 38 30 28 19 14 11 11
20 21 15 18 33 26 69 52 68 88 84 68 54 56 55 60 68 75 69 77 81 98 96 60 38 38 13 13 24 22 23 27 27 32 29 36 48 52 65 69 83 60 36 26 30 32 29 23 19
17 23 28 19 22 13 17 23 40 65 73 63 46 66 69 77 63 72 57 54 65 97 98 78 98 67 34 15 17 24 23 20 28 28 32 21 45 50 64 68 57 70 51 34 27 35 38 41 32

GFSSGP_500_rhum_102.txt.gz
RH
26 27 57 90 64 29 18 26 39 45 38 25 24 23 29 30 30 36 45 45 52 62 68 48 48 44 40 43 55 60 60 62 64 75 78 78 90 95 88 90 67 61 64 66 56 59 64 69 58
25 29 62 92 74 36 20 31 32 28 24 24 25 24 26 30 32 28 31 35 35 35 44 52 51 42 42 66 64 71 71 73 74 77 78 75 78 84 88 91 82 70 69 76 62 54 46 41 44
24 42 90 97 86 60 33 35 24 20 21 23 26 26 27 31 34 37 41 45 45 44 53 50 39 43 47 42 62 67 73 73 72 73 75 68 69 69 85 87 89 84 80 81 86 75 59 45 39
25 54 87 94 86 63 29 27 27 23 22 23 25 28 32 40 48 51 56 56 54 54 49 50 51 62 58 46 65 59 65 67 74 79 81 68 70 63 64 66 66 82 89 82 84 74 65 51 40
48 84 95 75 73 48 22 25 27 19 24 26 40 34 39 40 38 38 47 51 54 57 59 64 62 71 69 52 54 58 64 85 86 80 78 77 69 53 56 64 62 69 79 75 82 68 60 53 48
92 78 96 69 45 19 20 28 24 20 24 28 35 40 40 35 27 24 32 32 42 47 51 59 54 59 67 51 49 60 65 89 87 89 80 58 50 50 31 46 60 71 77 78 79 75 65 50 50
70 73 92 64 47 19 17 21 22 22 20 29 35 39 36 30 26 21 21 30 38 42 37 43 48 40 54 60 55 53 69 78 95 81 68 64 44 40 26 24 32 43 58 80 83 86 61 50 52
53 91 96 83 50 25 17 21 22 22 21 27 31 29 31 31 27 25 23 31 37 35 35 38 48 46 36 39 48 52 75 69 76 75 59 32 26 24 27 31 51 75 62 70 74 79 55 38 47
58 94 94 81 54 18 13 18 25 24 22 23 29 27 28 28 27 27 34 35 37 41 36 30 45 38 22 41 47 59 68 74 66 65 74 53 22 25 43 50 72 89 74 46 73 63 45 38 45
58 71 95 82 70 47 14 16 21 24 25 26 25 28 25 26 27 30 38 31 24 32 34 24 27 24 20 21 28 32 30 28 37 44 45 44 46 58 51 65 74 71 60 67 72 49 48 45 42
55 72 74 95 92 31 16 15 18 22 26 28 26 27 28 31 27 27 30 22 15 18 16 16 18 18 19 23 28 31 37 46 67 69 57 50 52 45 52 54 63 65 63 51 46 41 42 44 39
56 61 97 99 94 31 14 14 17 19 23 28 23 32 34 29 27 24 24 18 12 12 11 12 16 19 19 28 37 43 49 57 54 37 31 27 32 34 46 49 46 47 41 38 35 37 43 45 41
58 63 96 73 89 49 27 13 17 18 23 27 20 32 32 31 23 22 20 20 17 12 11 11 16 24 37 31 43 51 44 52 50 37 26 30 39 35 41 49 33 30 27 21 14 13 20 30 31
61 69 91 98 92 64 54 24 14 18 22 30 23 31 25 21 18 18 17 20 20 18 14 11 11 14 39 36 28 31 39 48 45 38 35 40 35 30 31 31 16 8 7 6 5 5 5 6 9
92 88 93 96 98 93 76 66 15 16 18 24 32 16 24 22 22 23 18 19 22 23 22 14 11 13 24 36 36 36 36 38 40 39 28 27 25 23 17 8 7 6 5 4 4 4 6 10 19
88 80 93 96 98 98 96 76 69 27 16 19 26 16 12 16 22 37 31 21 22 26 29 22 17 11 13 24 31 34 24 35 45 32 25 29 20 16 9 5 6 6 5 4 3 4 8 13 22
97 96 94 88 96 97 97 92 96 83 14 16 20 21 17 18 16 17 23 22 22 26 31 37 23 21 14 12 21 30 24 38 40 30 17 18 17 11 8 10 9 6 5 4 4 4 6 11 17
83 89 95 90 98 97 99 96 97 85 42 14 16 17 25 19 17 20 26 20 15 22 30 32 28 27 30 21 14 23 22 27 29 27 15 14 10 11 7 6 6 6 4 4 4 4 6 12 19
74 80 97 97 96 97 95 96 97 97 81 59 14 15 18 19 15 12 19 22 18 15 20 34 31 30 31 36 31 21 22 18 24 21 13 12 24 24 9 6 6 6 6 5 5 6 7 10 21
74 84 97 96 94 91 97 97 96 96 97 97 41 13 11 16 17 17 14 13 12 15 17 17 36 40 34 38 32 33 22 18 20 25 17 14 19 34 20 8 7 9 6 5 5 8 8 7 16
73 89 91 96 93 90 94 97 97 95 98 99 89 60 23 10 17 19 17 16 12 10 13 11 13 29 31 41 38 31 27 26 22 27 31 16 17 34 29 20 17 12 11 8 8 8 8 10 7
55 74 80 75 86 97 94 96 97 98 97 96 99 89 52 15 11 15 17 17 15 11 9 11 13 28 25 24 35 44 35 32 25 30 34 36 25 17 30 25 7 12 12 7 6 6 6 7 10
45 46 66 80 72 81 93 94 87 93 91 90 94 90 66 19 16 11 13 15 15 15 11 10 11 18 19 19 28 50 39 50 29 32 37 31 40 34 21 30 15 26 18 6 5 6 10 7 8
33 51 40 50 59 66 73 82 80 83 80 56 60 97 91 93 18 14 10 10 11 15 17 13 11 11 17 13 29 31 34 43 39 46 38 42 39 36 34 35 28 29 13 15 10 16 22 20 12
47 55 78 63 47 86 56 70 71 56 50 42 55 70 94 94 58 27 17 11 10 11 16 18 15 13 12 18 18 32 40 44 43 47 53 31 24 44 50 46 36 34 20 16 10 18 22 16 15
14 23 98 95 86 100 82 83 64 49 41 36 72 78 52 90 85 76 60 34 17 12 11 12 18 17 15 13 18 29 38 45 47 47 42 58 49 34 32 40 46 41 28 17 9 10 13 9 9
10 14 48 96 84 100 97 67 59 43 34 45 77 71 81 84 94 85 84 75 27 18 12 10 10 16 17 16 16 34 38 39 40 39 58 53 66 57 31 29 29 36 28 23 12 10 16 14 11
12 15 33 48 96 100 100 66 98 58 60 91 84 69 76 99 98 95 94 96 59 23 14 10 10 10 13 16 17 18 32 36 43 44 55 67 72 75 47 26 21 33 46 50 36 16 9 16 16
12 10 13 66 74 87 94 84 56 52 47 93 89 83 94 92 98 97 95 88 81 54 55 39 32 21 10 12 17 18 19 32 38 39 45 43 67 73 56 64 31 42 41 55 48 38 20 13 19
12 11 11 16 33 50 92 88 60 59 55 84 96 93 94 90 100 95 97 90 87 90 89 97 96 80 68 18 14 25 35 30 31 32 37 36 44 50 61 74 75 68 62 84 68 47 28 30 35

GFSSGP_500_rhum_105.txt.gz
RH
24 42 82 80 48 27 36 36 51 40 26 22 21 26 24 29 35 54 58 57 58 64 47 36 41 43 38 43 51 56 58 56 70 76 77 82 89 88 86 76 71 72 63 58 62 70 60 53 32
26 40 83 84 64 84 26 35 41 28 24 23 22 29 38 28 26 40 47 45 44 38 49 53 45 40 57 58 58 61 60 69 68 80 78 79 92 85 91 86 69 68 64 60 57 57 65 60 47
26 42 88 98 79 55 27 30 30 23 21 22 25 37 28 31 31 33 36 37 45 63 61 41 39 42 42 62 60 66 63 64 75 74 70 64 69 82 84 87 89 94 90 90 61 51 46 43 46
27 77 96 97 84 33 26 25 26 25 21 24 28 32 38 46 48 49 50 52 51 48 45 43 51 55 46 63 56 68 72 75 78 85 78 69 72 68 64 66 76 83 86 91 88 66 56 43 42
79 88 97 97 79 31 20 22 22 22 24 32 32 33 38 40 49 50 55 61 58 52 56 57 72 58 52 60 55 60 82 86 78 84 84 55 58 63 61 61 72 76 81 80 63 62 48 43 45
53 90 94 86 76 26 21 20 22 25 34 42 35 35 34 29 40 38 41 44 50 61 65 64 70 66 50 60 56 81 84 85 85 71 64 64 40 36 58 75 74 76 75 79 65 64 49 45 44
66 94 86 84 64 19 22 20 21 25 28 39 38 32 23 22 21 31 37 43 42 48 51 54 55 66 58 55 58 72 86 95 89 62 51 41 39 26 27 37 59 65 75 76 70 62 50 49 43
71 94 84 49 51 50 20 20 20 21 34 31 34 27 21 22 22 26 32 34 32 40 44 38 37 38 42 54 57 66 70 71 56 46 25 26 22 29 37 50 70 52 79 82 68 58 47 50 41
72 98 84 59 52 38 19 25 22 23 26 28 30 30 21 22 26 30 28 30 35 26 44 43 27 26 42 47 59 71 76 67 62 63 26 32 28 50 57 83 82 64 66 76 65 46 40 44 39
70 97 96 78 60 17 23 21 26 22 22 29 26 28 22 23 30 33 20 22 32 26 29 28 18 26 32 36 36 33 36 42 41 40 35 46 54 56 63 66 65 58 74 66 57 54 50 38 36
66 95 97 73 42 12 15 19 19 22 22 26 30 29 22 22 27 20 12 17 20 14 16 14 21 24 28 30 34 45 60 66 53 47 49 50 46 51 59 60 63 68 68 49 43 45 41 40 34
68 76 85 76 75 40 12 17 20 21 19 17 26 28 23 21 24 21 12 11 12 14 15 14 18 28 34 40 47 48 41 40 36 24 30 33 40 46 46 48 46 44 39 37 41 44 38 34 33
66 70 91 93 96 51 12 14 17 23 28 15 25 30 23 20 23 21 15 11 10 10 13 21 21 29 43 45 42 48 41 33 26 30 35 32 39 44 37 34 34 32 25 28 38 41 38 38 37
61 75 88 100 95 47 12 14 16 20 31 20 27 37 20 18 20 20 18 16 12 10 10 15 36 40 35 36 39 46 42 34 31 34 32 29 33 37 24 15 11 8 6 7 11 23 28 25 20
57 67 98 96 96 59 26 13 14 18 27 24 28 35 17 16 18 18 20 20 18 13 10 10 17 34 24 28 34 39 40 36 29 26 23 24 20 16 9 7 9 5 4 4 5 6 9 13 28
81 87 97 96 98 90 62 71 14 17 23 27 21 31 16 17 18 17 19 22 25 22 16 11 11 25 34 40 33 33 42 36 24 27 18 18 9 6 7 7 5 4 3 4 7 11 15 27 42
98 97 95 97 97 93 73 82 36 16 21 25 23 17 20 23 30 27 20 22 24 30 27 17 14 10 19 29 26 25 37 40 23 21 15 13 7 6 6 6 5 5 4 4 4 9 14 20 32
96 98 98 94 96 98 94 96 78 20 17 21 20 19 15 15 21 23 19 19 24 28 32 30 22 20 11 20 25 26 35 35 23 13 14 10 7 7 7 6 6 5 4 4 4 7 16 17 22
86 97 97 97 97 97 97 97 82 93 32 17 21 22 18 15 14 13 15 14 15 23 32 25 26 29 30 18 20 18 25 21 15 10 9 12 16 6 6 6 6 5 5 5 5 6 13 22 22
91 86 89 96 97 98 94 97 98 96 42 18 18 23 22 17 14 17 19 14 15 14 21 30 27 30 30 30 25 20 18 21 17 8 10 15 29 14 9 5 6 7 5 5 7 7 8 18 26
99 95 96 90 96 97 97 97 97 97 77 46 16 15 20 27 20 16 21 10 9 12 16 18 34 41 37 38 33 27 21 19 22 19 13 14 21 29 19 13 15 9 8 7 7 8 8 7 19
99 79 93 96 96 95 96 94 97 97 97 97 77 18 12 12 20 20 22 11 10 8 12 11 13 30 34 39 38 52 47 33 27 28 34 14 13 24 28 20 7 12 13 7 6 6 8 8 7
99 95 68 92 95 88 88 93 94 97 96 97 87 61 73 34 14 16 17 18 13 10 9 10 10 24 27 26 58 59 41 37 91 30 32 34 24 26 18 34 13 20 19 7 6 7 10 8 8
33 34 46 68 94 74 78 88 94 86 93 90 90 96 98 73 15 33 14 16 18 18 12 10 10 11 26 24 37 44 41 52 37 32 33 35 36 35 23 32 31 21 27 15 10 11 21 18 12
34 31 62 61 60 96 75 90 66 82 74 73 58 48 90 78 27 55 27 18 16 18 18 15 11 12 12 16 17 32 34 44 48 51 49 58 32 36 50 44 41 36 32 19 12 14 25 18 25
28 35 82 96 87 98 63 65 62 66 57 56 42 51 70 68 54 48 21 31 14 14 54 19 18 15 13 12 18 20 30 38 49 40 57 59 47 36 33 37 51 45 35 28 15 11 16 12 10
53 58 75 90 92 90 93 91 60 72 49 46 33 37 75 79 82 68 25 17 99 17 15 14 16 18 17 15 13 23 28 37 42 49 62 67 50 56 46 36 32 41 38 30 22 11 11 15 11
60 97 94 75 98 94 97 74 97 72 56 42 36 45 67 67 60 97 75 51 46 21 14 13 11 11 14 16 17 14 24 37 38 50 39 54 77 54 93 32 24 24 42 49 48 33 12 9 16
12 27 64 88 83 82 91 79 94 52 57 79 71 68 62 61 83 95 94 95 85 46 20 14 11 11 10 11 18 19 15 24 31 39 45 50 56 75 76 68 67 63 37 47 69 51 50 19 13
77 50 56 67 83 75 73 92 94 76 63 50 90 77 77 66 97 98 98 97 96 79 49 41 19 17 14 12 10 12 19 17 23 31 37 38 44 54 70 56 66 72 71 62 73 83 54 33 30

GFSSGP_500_rhum_108.txt.gz
RH
32 79 87 66 80 51 40 49 46 32 38 31 29 25 28 43 50 67 72 47 61 44 36 40 39 36 40 44 56 63 54 56 70 68 71 62 65 67 71 66 60 57 55 61 63 58 49 34 38
26 57 76 95 56 36 32 41 37 27 25 22 29 35 26 27 36 41 46 52 53 46 51 43 46 56 60 61 60 55 60 65 71 73 74 80 86 84 87 78 65 65 64 60 65 66 61 42 36
26 68 94 98 100 52 28 24 27 25 23 23 72 34 32 28 30 31 32 41 56 58 42 38 40 43 56 46 52 59 53 62 66 64 69 69 82 81 82 89 90 74 66 63 54 53 59 49 40
34 69 98 97 98 36 28 21 25 26 23 27 31 36 40 43 42 45 45 46 47 56 41 50 47 44 56 50 59 60 56 60 72 69 64 61 63 67 74 79 85 88 87 75 57 47 42 45 42
93 66 96 97 61 30 21 19 23 23 25 33 30 32 38 42 42 47 50 52 57 54 54 62 49 42 50 46 48 59 66 78 77 69 49 57 58 55 60 66 73 82 79 85 64 50 41 41 46
62 90 97 98 55 24 21 19 21 28 53 59 32 25 29 38 36 39 46 50 57 59 64 65 55 47 52 50 63 79 79 74 64 65 50 37 33 51 58 57 63 67 73 60 59 46 39 43 40
54 100 90 85 98 53 22 19 92 32 38 32 28 23 22 26 35 46 38 43 60 47 56 67 66 57 59 55 74 89 86 84 54 44 35 27 22 25 31 51 60 73 76 67 54 47 44 39 39
74 92 87 84 83 20 22 24 63 27 40 27 26 23 20 23 28 28 33 34 60 40 38 46 55 50 54 57 65 81 72 58 46 24 22 23 38 41 56 65 51 75 77 67 52 48 46 38 43
73 85 97 55 48 23 20 17 33 37 60 32 30 22 22 24 29 25 39 26 23 44 40 29 35 43 50 63 69 71 64 64 36 21 48 49 51 63 76 67 58 76 85 66 44 47 43 40 46
94 93 88 54 56 22 18 22 21 30 25 67 28 25 24 26 26 18 20 29 23 35 35 31 31 36 39 46 50 48 42 37 25 42 79 47 54 51 55 58 51 72 68 57 48 46 37 39 40
72 98 97 78 81 26 18 30 24 35 21 25 26 23 24 23 12 10 17 13 17 17 21 28 27 29 33 42 46 51 38 41 35 44 45 42 50 59 61 53 69 86 48 55 55 45 70 36 39
67 96 97 95 63 22 20 19 24 40 19 21 22 20 22 21 13 10 14 9 11 12 13 28 32 40 41 40 43 54 45 28 27 31 35 38 41 48 91 54 59 40 45 63 46 39 35 31 37
87 97 75 80 63 34 13 17 51 18 18 20 23 21 22 20 15 11 9 9 9 13 17 28 36 36 40 43 36 22 22 26 33 56 37 40 33 27 48 46 38 28 66 46 42 39 30 35 31
58 93 82 96 94 97 54 14 19 25 23 16 23 22 20 19 16 15 11 9 8 11 21 36 32 34 32 34 34 37 29 34 35 45 88 45 25 21 45 13 91 20 26 39 37 37 35 29 25
57 74 77 99 93 96 73 12 14 22 29 18 25 28 18 18 18 17 16 14 9 8 12 30 31 21 30 34 33 27 23 30 26 24 48 35 10 11 27 6 4 5 5 9 22 27 23 19 34
56 66 71 82 89 97 50 9 13 17 24 24 23 32 17 18 18 20 21 20 18 11 8 18 30 32 32 29 35 29 18 21 22 19 12 8 7 10 7 7 4 4 6 8 9 10 12 30 38
64 97 97 88 93 98 51 62 14 15 21 26 21 33 19 16 17 19 21 24 26 21 14 9 13 22 26 21 26 30 12 14 12 12 7 5 7 8 6 6 4 4 4 7 21 14 19 34 37
94 95 97 99 93 96 94 94 60 14 19 25 20 24 25 18 23 18 19 23 26 29 23 19 12 12 24 21 27 26 12 9 8 6 7 7 7 6 13 6 4 12 4 6 11 16 16 24 33
96 89 97 98 97 97 90 97 99 43 16 20 23 17 21 22 26 26 16 14 23 26 22 22 25 20 15 21 18 23 15 12 8 5 5 6 5 4 5 4 7 48 28 5 7 13 21 20 19
85 87 96 96 96 97 97 97 98 89 18 18 21 21 18 16 14 14 14 14 12 20 24 22 27 27 26 17 18 18 22 11 8 7 15 17 8 6 10 12 26 13 8 6 6 8 16 22 26
82 89 92 97 96 97 97 96 97 96 95 21 16 20 30 19 41 16 16 17 12 13 17 20 26 30 34 34 23 20 18 21 13 10 10 17 27 19 28 13 21 10 8 6 6 8 9 13 20
97 97 90 80 97 96 96 97 98 97 90 92 24 18 26 16 24 19 12 17 8 11 14 14 28 34 42 34 31 47 40 22 23 23 14 14 19 29 26 10 7 21 35 16 6 6 11 10 9
96 98 95 72 95 95 95 96 97 97 92 94 20 25 26 29 75 23 21 14 11 8 11 11 10 30 31 90 56 59 36 58 38 46 46 43 15 17 16 29 13 21 25 18 7 11 13 11 12
87 97 80 73 94 94 94 90 96 94 96 94 88 26 17 66 62 41 51 27 13 10 8 11 11 25 35 38 60 70 65 79 66 86 65 50 36 36 27 23 30 19 28 20 10 13 20 16 14
97 82 99 73 89 94 94 73 81 77 82 93 96 88 81 36 61 21 15 15 15 13 12 10 10 12 23 25 26 53 61 59 69 84 69 62 39 43 49 44 40 36 36 31 15 13 26 17 22
69 75 96 94 80 87 97 99 92 80 70 63 84 66 89 96 96 98 31 33 12 16 81 22 12 10 17 17 24 24 41 37 46 59 59 76 60 41 48 45 51 42 40 25 24 11 12 16 10
83 59 87 95 88 97 90 86 97 69 65 57 58 54 47 70 72 60 72 62 88 26 14 29 18 14 12 15 18 23 23 29 43 53 48 72 98 83 46 36 32 36 30 27 26 12 19 18 29
92 98 72 86 89 86 72 79 91 89 68 53 46 38 40 66 75 72 92 68 97 75 10 90 95 22 12 16 18 16 16 24 35 41 61 69 96 80 90 43 27 23 38 42 40 31 19 12 12
28 51 79 90 88 82 75 95 98 78 93 72 47 40 53 53 55 59 68 38 54 63 69 34 81 52 10 11 14 17 15 14 27 36 45 44 66 77 72 74 62 58 41 44 50 52 53 36 16
60 58 86 75 68 83 92 96 82 81 90 81 90 43 37 34 38 74 79 84 98 77 60 37 16 14 11 10 11 13 17 16 14 18 27 36 35 42 61 80 67 65 63 53 57 68 55 36 25

GFSSGP_500_rhum_111.txt.gz
RH
42 86 86 93 73 34 54 60 26 42 44 29 94 25 36 54 55 63 58 54 40 34 34 33 34 37 43 51 53 50 54 53 52 57 59 60 61 67 64 62 54 49 49 52 53 47 35 39 38
26 49 91 91 58 32 44 43 26 26 24 37 37 27 29 35 40 59 63 52 49 48 40 48 53 56 56 54 56 54 62 66 66 68 76 78 76 76 77 71 64 62 57 58 60 52 41 35 35
34 76 96 97 68 26 40 25 29 22 27 36 55 32 29 32 33 38 45 58 58 40 39 40 45 54 48 52 56 53 52 58 57 64 67 70 74 67 70 77 72 62 60 58 59 59 49 39 34
66 83 98 96 92 25 29 29 21 22 27 31 35 38 37 40 37 44 71 55 59 43 51 44 41 51 48 54 56 55 54 64 62 59 55 58 57 60 69 80 84 82 71 57 48 51 50 42 36
55 86 91 99 25 30 26 24 20 21 35 23 28 34 33 39 51 46 56 64 68 55 60 43 34 35 38 44 51 56 70 70 64 57 55 52 51 58 59 70 83 81 81 64 51 42 43 43 36
48 95 98 86 67 28 25 18 58 28 78 24 22 31 32 36 37 42 46 56 60 49 53 48 39 42 42 51 72 70 68 63 54 51 32 32 46 57 54 64 70 69 70 67 49 38 39 44 35
59 95 98 98 32 26 24 22 30 38 30 24 22 22 25 30 54 41 40 38 40 44 49 56 48 49 53 69 78 73 75 53 38 31 22 22 27 34 46 59 72 73 58 51 43 41 39 38 42
68 98 95 98 38 25 23 51 45 34 32 22 21 22 24 28 55 37 36 66 45 37 30 36 47 50 58 72 85 87 61 44 23 23 38 51 51 53 54 57 69 73 64 49 44 41 40 42 45
67 98 94 96 72 23 27 92 26 40 38 25 23 22 24 29 23 36 27 27 38 36 26 41 45 50 63 66 58 57 48 30 60 76 66 64 71 76 62 65 74 74 51 44 46 38 45 46 41
70 97 97 96 98 28 35 80 33 40 29 24 23 22 24 30 16 21 23 20 36 49 27 33 37 43 57 62 53 47 45 73 85 73 63 55 68 71 53 59 75 61 46 45 48 52 43 43 36
62 92 98 98 68 62 25 25 27 43 30 41 21 21 23 11 7 11 9 13 15 32 27 30 33 42 39 46 48 40 43 46 59 55 54 66 64 63 58 70 71 57 51 50 63 77 42 44 37
62 73 80 79 73 34 26 45 28 52 21 25 21 21 20 11 9 10 9 9 11 23 29 37 37 35 46 47 37 32 26 36 35 40 53 67 87 48 57 88 91 64 60 50 62 41 36 39 24
53 95 90 97 78 92 76 27 96 25 22 21 22 18 19 11 8 9 8 10 15 22 32 30 34 30 29 31 24 24 29 50 45 44 44 40 75 57 62 72 66 48 45 41 35 30 34 28 28
54 85 88 92 97 79 54 92 25 29 18 18 20 21 17 12 13 11 7 8 16 24 33 27 28 30 28 22 26 26 29 54 54 62 33 33 43 61 59 46 55 42 44 31 33 35 32 22 27
68 65 80 88 88 85 88 37 41 24 22 16 20 22 17 16 14 15 11 8 9 22 32 16 29 31 32 32 20 20 20 32 61 31 31 47 29 8 26 5 10 22 30 29 30 31 25 34 35
96 98 80 88 98 96 97 69 14 19 27 20 19 27 16 18 18 17 18 14 8 10 25 20 26 27 30 27 19 16 28 18 15 11 9 26 17 8 6 4 6 13 14 37 20 20 14 16 37
74 96 85 87 92 92 97 98 18 14 22 25 16 27 15 16 19 21 21 22 17 9 9 19 24 21 22 33 28 17 13 15 8 8 8 8 9 11 18 9 26 12 18 23 13 16 22 30 30
96 67 99 97 95 92 97 61 32 14 17 22 20 26 18 15 17 21 22 23 26 18 14 9 17 22 21 28 25 14 12 10 7 5 6 12 10 6 5 9 24 18 8 15 16 12 17 38 34
84 64 80 94 97 99 97 86 92 30 15 18 18 20 25 16 19 17 18 23 23 22 21 20 11 16 19 20 22 17 10 6 6 6 7 6 5 8 6 8 42 16 8 10 13 19 20 19 28
88 84 75 83 97 98 98 97 98 89 25 13 11 16 19 16 22 26 17 12 19 23 22 25 26 18 15 17 18 15 13 7 5 7 8 5 11 7 19 26 37 17 6 6 6 13 21 25 23
98 87 90 81 95 96 98 97 99 92 97 29 12 13 12 13 17 22 18 13 12 18 24 24 28 26 27 17 22 16 13 8 21 15 23 23 15 24 21 32 34 18 11 12 8 8 10 19 26
96 99 96 98 81 93 96 98 97 99 93 88 22 15 13 9 10 11 14 16 13 13 17 24 32 37 42 30 26 22 26 21 30 16 20 15 24 27 19 9 25 44 22 10 6 11 13 7 16
87 94 91 89 89 91 96 96 96 98 81 89 55 11 15 15 11 11 12 18 14 12 15 13 29 34 39 46 55 56 48 43 34 40 47 40 16 19 20 27 9 30 20 13 8 15 15 16 12
81 96 92 92 96 88 87 90 96 91 90 92 86 35 13 14 21 18 13 9 20 9 10 10 13 25 38 49 60 62 62 63 72 68 85 64 42 31 31 23 27 23 32 13 8 27 19 13 13
97 93 96 95 93 92 95 85 85 79 79 83 96 92 32 31 23 28 19 23 14 10 9 9 10 19 37 42 47 66 68 69 65 82 71 84 69 59 39 46 34 32 34 32 14 17 23 19 18
74 95 97 87 96 90 82 96 99 82 74 74 92 96 68 31 18 56 87 41 26 11 14 10 10 11 21 26 32 39 52 74 62 69 74 72 64 45 53 54 45 34 34 23 17 11 17 18 10
63 66 66 88 78 85 77 78 96 88 77 68 95 97 72 65 68 25 51 85 23 20 18 16 12 11 11 17 18 28 33 53 44 50 55 65 80 69 55 48 45 41 35 26 23 12 22 21 33
71 76 60 70 83 83 96 88 90 94 75 74 64 74 54 65 79 68 73 87 97 37 19 29 72 18 15 14 16 17 20 35 31 44 44 49 79 94 83 55 33 35 35 36 34 26 16 17 18
45 26 51 61 70 79 78 77 91 86 96 81 78 48 56 60 71 66 82 88 65 79 48 34 40 73 38 19 19 18 18 19 18 33 44 62 56 88 75 79 71 39 30 38 50 52 52 41 18
61 32 65 58 63 95 100 86 84 90 82 93 98 84 69 74 69 57 60 85 87 100 93 97 69 77 76 35 16 15 22 18 18 15 26 32 37 46 63 64 80 74 67 66 58 61 63 50 43

GFSSGP_500_rhum_114.txt.gz
RH
40 77 95 93 41 21 18 22 29 28 42 75 31 50 62 69 52 61 58 32 32 35 53 51 40 45 48 51 56 65 64 69 69 58 52 56 64 63 61 57 52 49 46 46 42 40 41 30 32
40 91 99 92 48 15 17 20 24 26 50 36 29 36 42 45 51 49 50 47 41 41 48 50 51 51 51 53 54 56 55 66 63 67 75 78 80 81 77 71 64 60 58 59 50 39 36 38 39
72 97 97 98 47 16 25 19 22 25 39 49 34 31 31 35 37 43 52 44 32 36 37 42 44 39 47 56 59 56 59 62 60 61 71 79 76 70 76 71 65 61 58 64 59 46 35 41 55
66 88 98 99 62 22 20 23 26 29 34 40 41 36 34 38 42 52 59 49 41 46 41 40 48 50 59 59 57 55 60 68 64 57 64 66 68 77 88 90 79 67 60 54 60 51 40 36 53
53 99 98 98 40 17 15 29 28 59 35 40 42 42 44 49 52 64 64 72 54 52 44 42 44 47 49 54 63 78 78 70 62 60 60 66 64 69 78 85 85 80 67 50 48 49 41 43 50
51 78 86 70 20 15 19 35 32 67 33 29 34 49 53 51 56 57 64 63 58 56 49 41 44 45 59 82 80 78 72 59 63 43 47 58 57 53 68 76 71 80 64 48 41 44 41 45 56
47 97 96 84 21 16 29 28 45 42 34 24 21 34 63 63 48 45 46 43 52 52 51 47 45 51 71 81 76 77 73 45 31 26 24 28 44 56 72 74 70 63 62 46 43 43 37 55 45
69 71 96 87 25 21 25 86 37 39 31 25 24 29 29 63 32 42 59 53 31 30 46 48 49 58 83 78 85 70 44 23 23 38 47 40 42 44 64 71 75 54 44 40 41 42 40 48 29
76 98 91 94 23 22 21 67 34 41 34 25 22 27 28 22 35 24 44 56 29 34 43 43 52 60 61 60 56 46 31 68 75 64 70 74 70 58 65 72 73 52 48 46 43 45 44 40 24
61 97 98 90 34 18 44 92 38 54 32 26 22 28 27 16 24 26 29 57 45 33 36 42 50 60 64 58 51 53 75 78 67 55 60 82 66 62 78 74 55 47 44 49 46 47 43 29 15
68 97 96 96 40 77 29 53 29 46 96 26 25 22 21 12 14 20 19 36 33 34 32 42 37 41 49 45 41 43 55 54 57 77 78 67 53 72 66 58 49 65 53 55 49 44 37 20 21
52 88 97 93 91 73 30 17 20 65 30 26 27 23 16 10 8 11 11 19 27 40 38 35 46 45 49 45 32 35 36 43 56 62 86 57 58 76 77 59 56 63 63 69 47 50 31 23 27
50 82 94 85 97 73 74 22 30 60 35 22 25 22 17 9 10 10 13 19 28 32 38 34 31 32 32 30 44 33 41 50 47 44 68 63 68 77 58 59 56 53 57 44 43 38 27 27 24
52 97 94 95 100 66 84 26 28 83 58 22 19 17 23 12 9 9 16 21 26 28 34 33 27 23 27 28 45 53 42 71 34 41 41 68 62 69 49 52 35 34 48 32 36 32 25 26 22
53 75 82 88 95 90 69 30 30 42 24 19 20 19 20 16 12 8 9 21 31 22 30 30 30 30 26 23 30 27 55 62 31 58 35 26 13 19 28 48 39 38 32 33 34 23 20 26 22
54 90 94 97 97 94 94 79 33 32 44 18 20 18 18 19 16 15 8 10 26 20 24 30 28 26 22 20 26 21 40 25 20 32 23 20 19 12 26 45 70 71 35 34 26 30 42 40 24
49 89 96 96 98 93 96 96 69 25 35 24 16 24 16 19 20 21 18 10 11 25 27 28 24 30 30 19 21 19 10 10 12 23 9 18 24 32 23 21 43 51 43 20 21 29 46 52 40
96 92 95 97 100 98 98 97 88 32 22 26 22 23 15 18 20 23 25 20 12 9 17 22 22 23 27 19 13 12 8 7 11 13 9 13 12 10 30 22 14 24 26 23 30 41 38 36 33
62 75 78 93 96 98 100 97 93 29 15 19 23 18 22 15 18 21 23 25 23 18 10 13 24 25 27 22 16 10 10 6 7 8 9 11 10 7 28 26 22 22 19 19 28 30 40 41 40
58 88 92 68 88 96 99 98 99 83 20 13 15 15 28 15 17 16 20 25 26 24 22 18 15 21 21 24 13 12 8 7 6 6 6 7 8 21 34 31 12 7 10 22 23 26 25 32 30
58 83 91 78 85 86 98 98 98 97 74 27 12 15 20 18 19 23 16 17 25 27 25 25 24 19 18 17 22 16 9 13 15 21 12 10 14 22 27 30 17 10 11 19 12 19 22 23 26
94 97 97 82 88 80 90 94 98 96 100 74 15 12 15 19 17 27 19 16 13 23 27 29 31 35 27 20 22 17 22 18 31 22 16 26 27 19 12 32 29 28 11 11 20 11 12 10 17
81 93 96 90 95 99 92 89 98 96 80 80 88 46 13 14 16 21 20 12 16 12 17 28 38 40 45 41 45 49 49 37 39 33 31 19 20 29 31 9 23 29 20 9 14 18 15 15 11
73 89 96 96 93 95 96 95 96 92 99 98 95 86 33 15 12 14 15 12 13 13 12 13 30 41 50 68 65 65 54 64 56 69 61 61 44 26 37 34 22 32 22 8 14 24 16 14 15
60 66 92 93 95 95 96 95 95 92 82 75 72 91 69 16 13 19 23 51 16 20 9 10 11 21 37 63 62 77 79 91 71 80 82 72 58 47 36 35 49 27 33 26 12 25 20 19 13
72 86 97 96 98 94 96 96 97 92 67 80 73 69 91 78 18 16 21 21 27 22 17 8 10 12 31 43 44 63 78 82 70 85 75 77 78 54 65 58 48 37 37 25 15 16 24 18 10
56 78 87 89 80 84 90 90 94 96 79 66 69 80 84 100 52 34 17 32 50 49 20 16 9 9 13 28 29 33 46 68 64 55 51 69 78 78 56 54 48 44 45 30 25 13 14 16 22
39 69 73 66 64 72 94 93 88 83 89 72 98 97 96 86 74 64 29 24 88 64 51 28 16 11 10 12 20 22 31 50 44 39 48 52 58 69 82 60 41 35 36 33 29 25 18 21 26
56 30 67 60 57 50 70 77 82 81 95 92 94 97 97 80 100 82 63 27 33 62 47 35 19 19 15 12 12 13 16 22 33 27 39 43 67 79 84 74 39 41 29 44 53 54 48 41 29
99 50 85 57 78 61 78 69 81 81 91 88 86 94 92 78 66 61 70 64 66 58 94 73 30 30 63 29 24 14 15 19 20 18 24 42 50 51 74 80 88 79 74 72 64 67 71 69 60

GFSSGP_500_rhum_117.txt.gz
RH
44 85 97 86 37 21 18 22 32 81 75 40 73 64 54 62 59 45 38 38 65 91 83 63 64 71 58 60 74 73 76 77 73 63 59 59 60 57 55 52 46 45 46 44 46 45 45 54 57
60 96 99 78 26 19 18 23 38 60 35 39 46 42 59 53 56 51 52 46 41 39 42 41 48 51 59 61 60 68 68 77 83 93 87 74 74 73 72 62 56 62 56 46 39 42 38 47 78
72 91 97 62 21 16 23 26 31 38 49 35 37 32 30 51 53 58 54 47 40 48 51 50 46 52 60 61 64 65 64 68 68 77 90 85 73 74 72 65 68 62 64 53 38 44 43 51 70
61 77 92 87 43 16 22 30 34 38 39 38 36 36 38 39 48 57 60 44 46 37 38 49 51 51 56 57 56 55 66 64 63 67 74 67 68 80 78 70 63 60 62 62 46 36 52 62 70
50 98 99 83 48 16 23 59 68 34 36 42 42 46 53 54 71 74 74 55 44 36 35 46 50 53 53 55 65 74 74 62 56 59 60 58 59 69 85 82 73 61 52 58 49 38 45 59 49
40 66 76 48 22 18 29 41 46 35 33 40 50 48 56 60 53 70 64 57 67 50 45 49 48 65 75 76 81 76 65 66 50 54 58 55 54 73 82 83 80 62 49 47 48 41 57 55 35
48 89 89 86 53 19 33 78 42 32 34 37 48 72 68 61 53 49 52 49 55 54 49 53 68 84 84 78 78 70 57 46 34 30 33 46 52 71 72 69 82 55 46 44 46 48 64 36 20
60 90 99 85 65 17 32 61 37 31 28 28 36 31 81 44 51 60 48 40 48 52 50 55 77 92 88 89 70 42 24 24 41 47 37 40 56 72 75 62 55 51 47 45 43 57 54 23 33
48 95 98 86 78 17 59 47 35 32 29 28 28 26 38 40 33 57 53 34 43 46 50 58 66 79 82 68 44 36 76 73 66 74 86 75 67 70 77 68 53 45 43 42 41 54 39 18 33
42 71 88 81 40 23 22 34 52 38 29 30 27 26 30 35 28 54 62 46 40 44 46 58 60 55 58 63 70 94 84 65 61 81 78 68 68 78 77 70 51 53 45 46 46 53 37 27 27
46 81 92 96 35 19 66 51 57 44 34 26 28 15 16 17 18 39 44 38 36 42 37 46 52 50 54 66 69 72 56 61 73 67 60 68 77 85 72 65 54 57 48 49 43 26 20 30 23
49 70 96 97 60 77 33 46 29 89 29 26 25 13 14 13 15 47 29 42 39 34 45 42 45 46 36 48 51 44 46 62 77 63 56 70 64 62 56 58 64 54 55 47 34 22 29 26 23
41 74 98 99 96 79 66 22 19 35 40 24 23 17 15 14 14 16 41 32 41 37 30 41 40 36 51 46 47 47 42 56 74 61 62 73 77 65 57 55 69 68 58 46 28 25 29 24 27
41 70 95 96 96 93 74 48 32 75 63 26 22 19 13 11 12 18 26 32 34 37 28 25 32 28 38 51 55 71 40 40 60 53 56 66 53 62 52 53 58 53 49 45 30 25 24 23 24
44 82 83 98 98 94 75 70 65 61 90 29 25 18 17 13 9 16 24 29 33 34 32 32 26 26 28 32 45 59 30 43 34 16 25 29 42 48 39 41 51 43 40 36 31 24 22 24 22
64 96 96 99 96 84 72 71 46 71 32 26 27 20 18 17 12 11 23 32 28 32 32 30 30 21 21 26 41 45 28 33 25 25 22 23 25 41 39 39 33 33 37 32 27 29 26 22 21
70 93 97 97 97 95 90 83 73 47 25 19 24 22 21 20 19 13 10 26 19 28 31 35 35 23 18 23 20 29 17 27 16 16 20 24 25 43 63 52 41 35 32 30 32 39 33 22 21
65 87 96 97 96 96 97 97 97 81 61 27 19 19 20 21 22 22 12 10 25 28 29 27 32 35 20 14 14 10 13 20 10 11 17 16 27 36 27 55 43 26 28 26 40 51 53 49 27
92 77 96 93 97 97 99 90 97 86 43 18 18 24 21 19 21 24 24 15 11 17 24 23 26 33 20 12 10 6 6 11 14 15 14 14 20 33 18 22 32 30 25 29 36 41 38 37 38
68 90 96 95 95 92 92 98 98 96 58 11 20 19 20 18 20 22 25 25 19 14 13 25 24 27 25 20 11 9 7 8 17 9 9 13 21 38 22 10 11 14 21 26 22 30 41 38 41
64 54 93 98 96 83 84 97 98 92 83 52 12 21 24 21 17 18 21 24 20 23 23 16 20 19 24 16 15 8 6 8 10 18 22 27 31 39 37 21 10 11 20 16 18 18 29 30 34
100 58 72 95 86 76 80 89 91 98 87 67 14 15 21 29 18 16 14 13 21 21 25 26 20 18 20 22 18 12 16 24 37 24 26 33 34 32 37 32 29 16 10 19 13 12 21 25 26
100 76 88 88 83 69 77 94 75 72 90 76 30 15 18 26 29 21 22 16 13 15 24 28 31 38 24 28 22 22 19 28 24 24 19 18 26 29 25 12 44 36 20 10 15 14 12 11 19
79 65 85 92 93 86 100 86 66 71 88 78 83 36 14 25 30 25 19 21 15 14 15 27 33 42 44 45 49 58 44 48 39 41 44 48 29 23 24 26 23 33 23 11 18 18 16 17 20
56 63 78 95 100 99 97 84 67 97 98 96 89 92 88 45 26 26 21 18 17 20 16 16 23 36 46 69 71 62 59 83 75 82 78 78 63 40 33 28 38 28 33 22 10 31 18 16 18
46 62 79 86 98 96 94 89 90 94 96 96 94 85 84 95 23 29 22 19 17 20 18 13 15 17 30 44 57 69 72 79 76 88 77 74 73 65 48 53 44 40 32 31 26 18 24 15 11
57 69 74 94 92 92 95 92 85 93 93 80 71 73 64 84 37 26 33 31 48 24 16 13 11 14 15 35 47 51 72 63 63 77 69 66 71 65 56 56 54 40 34 28 23 17 12 15 17
62 92 75 70 94 70 92 96 96 97 89 94 79 83 69 80 60 37 31 34 35 29 29 14 15 11 12 14 29 30 34 48 66 54 45 50 65 70 73 76 56 50 39 28 22 23 16 20 21
44 51 59 66 74 60 58 89 93 93 73 88 71 84 75 86 92 62 49 30 37 60 57 46 28 15 12 13 12 19 22 27 47 43 35 40 45 43 72 80 66 42 36 37 42 42 35 31 24
53 69 49 58 52 52 39 64 62 79 74 70 79 62 88 98 98 88 74 64 32 56 83 74 66 31 16 15 14 13 13 14 17 27 27 28 38 48 57 85 79 61 61 45 60 59 65 69 63

GFSSGP_500_rhum_123.txt.gz
RH
95 94 68 34 32 31 47 57 32 42 63 58 56 45 32 49 79 93 94 90 87 92 96 96 96 95 96 95 85 83 82 74 79 72 69 78 58 52 49 51 50 50 54 48 40 30 51 80 86
93 93 74 40 27 26 43 44 62 52 38 58 55 48 44 39 37 39 43 50 52 50 66 79 89 77 73 83 75 77 71 69 63 62 64 73 68 59 56 53 52 45 48 55 68 60 67 67 60
72 95 95 39 27 25 31 38 31 35 36 34 39 52 50 44 39 39 40 49 52 54 54 55 58 59 60 70 66 68 73 80 83 83 79 75 66 63 54 52 53 44 59 79 80 76 76 66 36
77 94 73 51 26 25 28 33 34 36 34 34 35 41 49 55 43 40 46 45 45 48 49 55 54 51 52 54 58 63 66 71 86 90 84 80 80 69 66 59 54 44 52 56 70 82 86 80 41
60 88 78 39 25 34 24 27 35 42 40 39 41 50 59 58 53 46 44 42 43 42 44 45 44 46 58 69 63 69 61 64 65 69 76 78 73 78 65 62 64 51 45 58 67 77 80 46 46
45 83 75 50 24 39 22 20 24 41 46 47 53 53 63 65 60 55 60 50 44 44 45 49 57 72 77 74 67 59 59 62 63 64 71 82 84 74 65 62 65 59 48 56 66 81 78 42 43
42 87 96 63 26 34 26 21 22 24 40 69 51 50 51 57 65 53 58 56 52 50 52 64 70 77 68 64 53 43 46 52 58 59 68 81 78 79 70 58 56 57 45 50 67 66 41 39 31
43 74 96 97 43 36 31 18 18 22 25 44 59 51 46 57 53 43 53 52 52 61 72 74 79 83 57 50 48 35 38 49 44 61 66 65 65 72 68 60 51 52 46 50 58 37 28 33 22
41 55 90 99 97 30 46 21 17 22 25 31 33 31 45 58 43 40 47 50 56 85 92 84 79 73 66 55 75 80 69 70 63 56 59 60 59 69 70 48 46 49 48 57 41 28 29 24 19
62 83 96 88 97 29 53 28 17 20 19 25 21 27 48 58 46 46 51 48 60 64 80 56 52 67 81 95 92 67 79 81 89 67 57 61 61 52 52 55 48 45 60 55 31 26 29 22 19
51 79 98 100 75 36 45 33 20 20 13 14 19 19 43 58 45 39 42 50 53 54 46 47 77 74 64 62 69 74 72 61 70 70 67 68 70 56 46 47 51 57 70 50 25 32 24 22 20
38 53 76 100 99 47 53 36 23 19 15 8 10 14 32 46 39 36 38 36 39 42 44 52 46 43 49 64 74 56 61 67 62 66 74 77 71 57 47 46 43 60 67 38 27 30 22 23 24
43 53 90 97 97 34 88 36 23 27 13 10 10 13 33 30 39 32 35 31 32 34 36 45 45 46 46 53 67 69 60 66 67 62 58 57 58 52 46 44 44 52 51 23 27 26 23 25 24
54 58 93 96 90 71 56 35 38 29 18 9 8 10 19 44 33 38 26 30 29 31 44 40 46 50 41 50 55 54 60 55 60 56 58 54 64 60 46 46 44 33 18 19 27 22 21 23 22
73 71 78 98 98 93 65 36 51 31 23 14 10 9 18 29 31 33 26 21 24 26 41 40 49 52 38 43 40 49 54 50 46 45 51 52 60 54 54 54 44 33 20 27 25 22 23 24 23
66 77 61 67 95 96 85 58 52 79 42 19 15 8 12 20 26 30 28 24 19 21 28 41 34 50 37 34 31 25 29 32 43 40 31 40 49 50 47 44 41 31 25 26 25 24 22 21 22
68 69 68 53 80 97 88 73 72 74 70 24 17 14 9 14 25 28 28 26 20 15 19 24 30 46 35 36 23 22 25 30 43 54 46 33 37 44 45 42 38 35 29 26 26 25 22 21 24
21 26 55 64 95 97 96 88 95 92 89 25 18 17 15 8 20 23 27 25 20 16 15 20 21 19 28 28 17 16 17 17 38 41 35 50 38 31 29 32 35 28 29 35 29 26 23 24 26
19 17 24 51 97 97 97 93 81 79 81 38 21 17 18 15 8 19 18 23 24 22 14 16 17 12 24 19 16 10 13 12 19 33 40 22 44 39 25 24 28 24 29 39 46 47 43 32 28
25 18 48 66 89 97 96 79 77 71 62 42 24 19 19 20 17 10 15 20 19 19 21 14 12 7 10 15 20 15 17 15 13 21 36 21 18 22 27 20 14 13 20 31 32 41 42 39 36
31 66 70 80 84 95 97 96 86 87 98 80 21 24 20 22 20 19 11 12 18 18 19 13 10 9 6 7 9 11 11 10 14 28 40 39 20 12 10 14 20 20 17 17 23 24 26 28 29
36 56 34 72 82 83 87 97 90 97 98 61 34 24 26 21 22 15 17 15 12 19 19 20 14 16 9 7 9 8 11 20 32 40 33 30 34 20 16 11 13 17 16 15 16 17 20 23 22
44 37 97 63 73 79 87 93 92 96 97 61 33 30 25 23 20 22 21 19 18 14 15 18 19 16 11 9 12 15 15 38 34 26 34 40 29 17 33 39 19 11 15 19 12 12 15 19 20
53 86 77 72 59 74 73 89 93 87 97 97 76 48 27 24 20 18 15 21 21 22 20 20 16 17 16 14 9 9 17 42 26 20 23 25 25 24 22 17 35 28 13 20 16 15 14 11 12
48 80 79 78 91 80 80 93 91 94 94 95 95 87 26 26 26 17 17 17 24 24 24 29 36 28 20 23 18 23 25 24 35 37 47 42 50 36 29 34 24 33 25 11 20 18 14 14 16
51 57 50 68 79 88 99 99 92 87 88 81 79 94 50 20 23 27 20 26 24 20 22 29 35 41 42 44 52 52 50 63 81 47 65 83 66 49 38 37 46 47 35 27 17 18 21 16 16
58 52 53 47 50 78 97 98 94 80 68 64 76 86 43 20 18 23 31 24 32 27 17 17 28 38 42 47 64 61 61 64 70 78 79 79 76 64 56 54 50 37 32 35 24 23 18 16 11
63 72 68 90 71 74 99 96 100 97 99 98 93 98 92 59 21 19 23 26 26 29 20 15 14 16 24 29 36 50 48 60 68 64 68 79 67 69 62 69 72 52 36 30 23 22 15 13 14
64 83 83 96 76 93 96 95 95 95 95 97 96 96 96 96 96 78 28 23 28 27 24 18 15 13 13 13 17 31 39 37 37 47 49 58 49 54 67 56 52 77 54 36 33 36 32 21 22
71 76 94 95 95 88 96 95 99 95 96 98 94 96 94 89 76 91 97 26 93 38 22 18 18 17 12 11 12 14 24 27 26 26 27 42 46 34 29 38 47 79 74 50 32 50 45 56 49

GFSSGP_500_rhum_129.txt.gz
RH
43 22 23 45 72 82 84 56 60 59 46 40 75 83 90 85 98 98 88 83 91 91 94 88 88 88 97 98 97 96 92 92 91 84 71 64 66 74 86 85 73 47 57 54 68 70 74 88 93
72 33 25 97 94 79 70 57 42 54 48 45 50 64 79 83 83 87 88 88 92 95 96 93 96 98 97 96 95 89 93 88 81 69 61 64 58 61 72 55 57 56 48 46 67 80 95 91 59
96 65 24 80 93 96 38 39 36 31 35 47 46 40 39 38 43 52 48 52 63 59 70 87 89 71 82 92 86 86 82 78 84 80 64 59 63 59 58 64 60 61 57 61 77 85 78 77 49
82 39 40 97 43 34 30 33 32 31 34 38 48 50 39 37 38 40 42 50 48 49 56 69 74 64 56 69 76 88 85 83 83 76 74 69 62 59 63 62 60 68 77 84 85 73 40 37 42
67 44 41 60 28 45 29 35 36 38 39 50 50 58 50 44 38 29 26 33 43 50 49 63 75 54 48 52 77 85 90 91 86 85 72 69 68 60 60 51 59 79 88 87 92 94 42 49 39
71 59 96 98 50 29 25 34 43 46 50 53 57 58 53 51 53 37 34 33 45 55 43 46 63 64 66 69 66 74 79 79 79 80 81 79 72 64 59 50 46 62 79 90 93 87 47 39 33
96 83 95 90 42 33 26 25 64 57 44 48 50 52 42 46 60 52 41 42 43 54 49 62 75 70 74 65 60 57 55 56 60 71 75 75 77 69 64 53 44 58 70 84 79 48 46 26 17
72 89 82 51 55 45 27 25 29 64 53 46 52 47 32 33 48 49 42 46 64 65 74 78 77 67 49 50 61 59 58 56 62 71 76 76 69 62 65 59 48 59 67 75 91 49 36 21 14
39 92 96 61 34 36 29 25 27 29 47 36 57 56 35 34 43 47 49 64 73 73 78 71 76 78 73 61 61 56 53 55 68 70 76 82 71 62 62 57 45 52 69 63 48 41 22 16 20
56 95 94 86 99 34 40 32 25 22 32 27 52 48 35 38 42 48 63 78 74 77 84 92 58 78 88 88 83 72 57 66 72 68 77 76 66 58 53 52 45 54 58 34 32 30 20 19 21
59 92 88 94 78 38 38 39 23 19 24 27 47 38 35 37 41 50 60 84 78 75 65 63 85 83 74 74 84 80 75 58 64 66 64 76 59 50 50 48 48 58 37 29 30 22 20 24 20
55 62 90 78 88 41 45 29 27 16 22 22 44 35 26 32 40 50 49 49 54 54 76 77 64 58 57 55 58 71 79 58 59 66 57 56 60 54 47 46 57 46 29 28 26 20 23 22 19
57 72 91 80 88 31 39 41 97 12 12 18 42 35 22 26 33 42 46 49 56 70 67 57 64 59 57 61 54 59 64 63 64 69 63 50 46 47 45 50 53 34 23 29 22 21 23 20 21
71 61 62 90 91 37 46 29 23 16 11 14 34 34 25 22 29 34 36 43 44 42 42 44 55 67 62 56 57 55 59 62 66 68 60 48 47 49 52 59 54 26 27 25 20 22 22 22 24
56 69 81 89 98 46 84 60 32 20 11 12 35 32 25 21 25 32 34 36 44 46 42 46 55 54 47 46 47 53 52 53 55 57 46 40 41 43 61 58 36 19 28 20 21 23 24 24 26
30 64 93 99 96 96 45 73 63 26 12 9 16 37 26 23 22 29 32 38 42 51 46 46 45 47 42 40 35 43 50 53 59 64 50 38 37 41 44 26 12 20 22 18 19 22 24 24 23
33 38 94 93 88 92 73 88 53 22 16 9 12 29 27 20 17 20 26 30 35 44 45 32 38 33 27 39 40 37 37 45 53 57 43 40 44 40 26 18 20 25 20 20 18 20 20 20 22
98 97 38 74 90 80 78 78 90 20 18 21 9 16 23 22 17 17 20 21 34 42 43 30 29 24 26 31 46 48 40 32 44 45 45 49 46 39 31 30 26 86 26 18 17 18 20 21 24
69 96 63 75 78 67 60 90 95 34 54 31 15 8 17 22 22 18 18 19 17 24 35 33 26 19 20 26 47 44 41 44 30 42 41 40 37 36 36 33 30 98 88 19 20 22 27 32 36
83 93 50 25 50 25 17 66 95 50 78 36 20 15 8 20 21 23 17 18 17 17 26 31 35 31 18 17 21 37 40 33 41 31 28 32 35 34 35 32 27 28 25 24 24 24 26 28 29
40 51 94 41 80 75 50 93 95 71 90 72 28 16 16 9 20 19 22 20 22 15 20 22 32 29 16 17 12 17 27 28 21 30 34 29 21 22 24 23 26 22 26 33 36 34 29 94 27
99 87 87 19 40 84 89 95 97 98 84 71 42 21 17 16 10 19 16 19 19 21 14 12 33 36 26 16 26 31 32 34 25 13 11 12 15 14 13 11 11 12 14 14 13 13 13 15 20
96 90 41 23 50 76 88 90 96 99 96 93 69 30 20 17 17 10 18 18 17 19 17 10 8 28 31 25 28 21 29 41 33 33 26 11 10 12 15 14 11 8 9 21 11 12 15 17 14
70 56 25 29 76 55 54 90 97 96 98 85 81 39 21 20 18 19 12 12 16 18 21 14 9 11 25 21 28 36 23 38 32 37 28 28 25 24 18 12 12 14 15 12 10 10 10 16 15
53 76 99 96 96 95 83 88 86 96 95 81 76 66 28 22 20 20 18 16 13 14 21 21 14 11 8 10 44 31 22 44 29 39 34 34 20 18 24 31 32 19 15 17 15 24 15 14 18
49 94 97 96 84 95 95 78 96 87 87 98 83 97 56 24 22 20 21 24 20 18 15 16 18 15 12 10 14 22 28 50 45 48 47 35 34 25 23 38 36 36 32 32 24 24 22 12 13
97 96 89 97 93 62 95 89 51 82 82 85 97 97 90 21 25 21 21 22 24 22 24 20 18 15 14 16 18 17 35 62 58 72 51 78 72 56 42 38 41 44 40 34 28 29 21 17 12
43 66 85 60 94 96 94 96 85 95 72 79 88 96 71 28 26 24 22 20 20 20 23 24 27 33 23 23 28 39 48 59 70 76 73 82 76 66 60 56 51 62 54 41 39 35 25 17 13
50 91 65 87 97 68 93 96 75 90 83 73 76 87 91 52 81 41 27 22 18 16 16 19 25 30 34 36 40 53 56 57 61 67 75 69 70 64 78 72 65 70 70 70 54 54 35 28 24
95 69 92 83 98 70 89 96 76 77 88 81 88 66 92 96 73 90 56 29 19 17 16 15 14 17 20 28 33 36 46 59 58 60 65 72 59 54 59 62 56 53 50 64 63 61 58 57 47

GFSSGP_500_rhum_132.txt.gz
RH
26 26 57 85 84 89 60 45 95 44 44 75 81 91 96 97 91 84 77 77 87 82 83 82 84 93 98 96 97 96 98 96 93 83 82 84 72 68 77 86 81 60 62 59 66 73 85 85 77
47 41 78 86 96 87 50 46 51 42 43 94 59 67 74 75 90 82 83 82 88 90 88 89 85 90 98 98 96 96 87 88 86 81 75 73 79 84 78 75 56 51 52 76 71 87 88 59 58
67 31 74 89 97 78 26 27 29 29 46 43 37 34 37 62 74 79 74 69 71 85 88 86 87 96 97 96 95 92 90 90 87 80 77 71 74 74 62 61 57 52 58 75 86 82 77 51 40
51 64 98 97 94 25 20 25 29 30 32 41 49 38 34 36 40 40 44 96 95 58 59 66 63 72 84 88 85 82 79 81 77 69 62 62 63 59 68 59 66 64 86 78 61 44 42 43 33
27 31 90 22 83 14 14 23 37 97 41 48 53 46 37 34 34 29 34 38 77 48 51 60 62 52 63 76 88 87 83 87 88 79 68 64 57 58 61 56 74 88 90 96 82 47 50 38 30
67 95 65 80 34 19 16 23 38 40 94 49 54 47 41 38 34 31 32 82 52 70 41 53 58 47 55 66 76 76 84 76 77 72 69 68 63 55 55 50 71 87 93 96 90 62 42 31 13
81 94 97 94 40 25 18 27 26 48 36 60 54 40 36 49 48 47 37 36 84 36 42 64 66 63 68 65 66 69 63 64 63 67 70 70 66 59 52 44 60 76 91 92 61 47 28 15 12
95 94 83 91 97 87 20 19 20 45 53 44 39 43 31 33 38 48 51 42 47 51 64 77 72 72 59 52 50 47 44 43 44 51 60 63 70 62 55 44 52 71 81 82 60 32 18 14 14
44 76 74 59 40 32 30 22 17 19 43 43 95 39 33 34 35 58 53 57 63 62 69 70 56 56 63 59 58 48 43 45 56 49 59 66 62 58 58 48 54 69 76 84 42 21 14 18 16
98 96 92 85 98 86 32 23 23 16 35 27 47 33 34 37 36 59 70 65 66 60 96 80 79 69 76 72 66 54 51 54 45 39 55 62 59 59 58 48 48 64 66 68 36 17 20 19 16
96 87 96 82 99 86 40 32 20 14 22 31 96 33 33 37 49 60 78 69 70 75 80 94 94 86 78 88 85 66 69 58 50 50 50 48 59 55 52 42 55 58 34 39 21 17 20 18 14
40 50 94 92 96 72 89 34 21 92 37 28 44 38 30 34 41 44 56 64 50 57 70 60 70 65 77 54 65 76 57 48 50 59 68 58 78 68 49 42 49 35 29 26 18 18 18 16 16
70 67 97 80 56 92 34 35 92 31 11 22 36 28 28 31 32 51 41 47 61 68 61 61 53 55 81 84 76 59 50 38 53 53 85 67 52 47 43 53 39 28 27 21 17 16 16 17 18
72 57 63 84 80 75 98 45 62 16 9 23 32 26 25 24 31 50 46 51 47 44 50 62 60 52 51 46 56 54 48 44 55 55 51 50 49 44 44 45 26 24 26 19 18 18 17 18 19
16 68 58 62 97 38 71 66 20 22 10 20 29 24 21 22 33 32 37 37 38 42 45 55 67 59 48 52 46 83 72 51 53 53 44 45 46 44 51 48 24 26 20 19 20 20 20 20 20
24 32 68 92 98 88 69 94 36 21 10 12 31 28 21 22 28 30 35 38 34 38 45 51 50 45 38 37 42 49 50 52 51 40 38 44 52 57 51 30 22 24 18 19 19 20 20 20 17
84 38 80 82 82 86 82 85 75 85 20 9 16 31 24 19 21 25 32 35 37 35 36 32 35 36 34 30 39 56 47 52 52 37 35 39 49 39 24 63 30 23 39 40 18 20 19 16 15
96 100 98 96 49 86 84 87 79 65 65 15 9 24 24 26 16 18 23 39 38 37 24 27 23 29 40 36 30 47 55 43 44 34 36 39 27 14 20 40 32 60 54 40 26 14 15 15 16
94 88 96 97 72 76 67 60 98 87 37 35 10 10 23 20 18 15 14 23 38 33 28 30 23 26 37 46 42 39 36 35 38 39 41 100 35 24 40 47 40 65 81 42 15 15 17 18 20
81 96 78 97 60 34 43 35 86 96 78 30 42 9 13 21 23 17 11 14 19 27 34 26 20 16 20 44 36 38 28 25 33 38 40 33 31 34 88 66 92 89 77 29 17 21 33 44 41
67 86 86 65 80 40 55 73 35 46 79 96 51 33 11 16 22 19 13 10 13 18 26 27 28 22 15 28 39 41 25 31 24 23 32 34 34 36 45 32 35 73 90 57 21 18 31 50 54
69 52 58 49 76 60 63 96 86 85 73 98 75 56 22 11 20 20 17 11 10 13 21 24 31 27 17 16 21 40 31 16 16 23 22 17 19 20 17 17 17 20 49 53 28 16 24 37 73
92 63 80 58 100 26 42 81 82 94 56 96 74 46 54 21 10 19 15 16 12 10 10 15 32 28 24 17 36 46 33 40 21 11 13 12 11 12 12 8 8 9 10 22 19 21 20 19 29
56 63 68 82 49 29 35 80 54 85 85 88 55 70 76 29 14 12 14 15 15 13 11 8 9 28 40 30 38 31 47 77 42 47 28 14 12 11 11 11 10 13 13 28 20 16 17 13 16
24 31 92 87 95 93 73 78 72 87 97 91 94 92 80 24 17 40 10 11 14 15 15 12 8 8 24 28 25 45 43 56 42 35 24 18 21 24 23 16 20 12 18 14 16 32 23 23 27
87 99 92 93 93 97 88 62 98 87 93 98 96 88 77 32 18 31 16 11 11 14 16 16 15 10 13 9 36 35 25 46 32 35 37 30 26 20 31 47 34 36 30 27 23 23 16 14 28
86 96 85 97 95 89 91 75 96 86 91 76 75 78 70 51 24 84 21 14 12 12 12 13 14 16 14 8 11 29 28 45 44 49 49 48 42 36 56 76 42 32 23 21 16 15 9 13 28
64 88 94 88 87 97 81 63 92 77 70 98 88 79 84 78 67 18 16 18 14 12 14 13 13 13 14 13 14 15 32 57 52 59 63 56 57 34 96 54 35 30 20 22 26 20 15 20 9
84 29 54 93 99 95 81 93 91 96 88 80 75 53 80 88 93 25 22 17 18 15 14 15 14 17 21 16 18 24 35 46 60 64 88 64 59 61 56 49 49 52 50 38 44 44 40 36 39
66 79 38 46 73 95 96 64 98 95 93 85 76 59 60 98 98 89 27 29 18 16 12 13 17 17 21 25 28 33 45 45 48 55 68 77 65 64 61 71 70 59 48 50 52 55 50 56 57

GFSSGP_500_rhum_135.txt.gz
RH
54 92 94 96 72 42 48 57 43 47 72 79 79 93 89 92 77 69 78 78 72 76 81 87 84 92 93 96 97 98 97 96 93 89 86 83 80 76 81 84 76 71 58 60 61 78 72 55 52
56 52 91 95 73 57 48 99 45 36 91 59 69 73 72 71 79 76 80 76 84 89 83 83 92 90 89 93 98 96 97 95 93 89 89 77 73 68 75 75 70 79 78 77 86 74 68 62 38
66 91 93 74 78 33 40 34 28 25 31 35 31 29 32 60 78 73 77 72 87 87 80 86 84 89 89 99 93 91 85 85 85 80 74 73 76 73 62 52 49 56 70 83 83 59 41 29 27
73 96 96 63 81 30 36 31 31 34 25 43 44 36 32 32 37 40 53 71 74 48 72 79 63 86 88 92 81 76 84 85 82 78 75 74 71 62 59 57 59 60 67 67 64 40 36 27 18
84 86 71 82 69 31 52 79 98 92 60 42 48 40 34 28 28 29 41 53 52 52 72 63 67 75 84 81 80 81 80 75 70 65 62 62 56 59 57 62 70 81 75 49 37 42 31 22 14
78 82 77 51 37 38 73 67 52 44 51 43 34 37 34 31 27 25 32 66 50 37 55 57 40 44 54 81 86 83 81 82 77 72 65 60 56 58 54 70 84 80 83 65 50 38 24 13 8
90 97 97 78 52 32 22 20 24 40 47 37 28 33 34 43 42 47 32 52 65 32 37 55 46 53 56 76 80 77 73 75 76 69 68 65 58 53 49 63 79 79 82 68 48 28 12 11 9
99 98 98 99 97 67 29 25 24 20 34 36 46 25 32 31 40 49 96 58 61 38 49 61 63 67 67 66 63 67 71 66 67 68 64 62 58 50 45 58 70 78 79 44 26 15 13 12 12
94 98 93 65 90 48 40 30 17 15 28 46 78 28 34 37 36 50 58 64 93 66 67 67 68 51 57 54 53 52 48 48 51 52 52 58 59 52 45 58 68 70 72 45 18 14 15 14 15
90 95 98 93 83 88 51 39 18 15 22 35 44 24 38 39 49 57 54 64 58 71 91 91 76 69 60 62 52 50 44 62 63 51 66 60 56 54 47 58 67 73 57 26 15 16 17 15 10
88 92 91 98 97 58 62 80 32 18 20 37 57 27 34 39 54 58 55 60 68 83 94 96 86 77 74 71 69 62 48 59 55 61 68 62 58 55 48 59 68 58 42 20 16 19 16 12 12
98 59 93 98 96 81 91 57 21 67 46 31 36 30 31 41 42 63 61 59 75 88 90 86 80 84 79 79 81 71 59 46 51 66 57 63 56 49 43 56 48 50 33 19 19 18 14 14 15
89 78 95 80 93 95 57 32 64 57 11 29 45 25 31 39 40 40 45 52 60 69 68 68 98 84 84 91 72 71 51 48 49 61 61 85 89 51 58 49 31 29 25 20 22 17 15 17 18
78 73 72 77 93 78 79 50 45 12 11 26 33 23 28 33 46 47 48 55 47 68 69 52 47 63 79 89 67 56 42 45 45 79 66 62 51 52 49 47 43 32 21 18 20 18 19 19 20
26 48 72 68 95 97 45 56 44 18 10 20 30 28 48 33 38 33 34 35 42 43 55 56 45 46 38 41 58 60 49 50 46 46 59 51 48 48 48 59 36 36 42 19 18 21 22 21 20
94 31 57 77 90 96 79 68 85 38 8 19 33 25 27 38 29 29 30 35 40 43 44 39 36 38 39 41 59 66 46 50 45 46 47 45 44 52 56 42 39 61 26 18 19 19 20 23 18
99 92 89 94 92 81 77 82 93 57 12 10 28 27 23 21 25 32 27 31 37 35 32 33 33 24 27 43 84 69 62 57 45 41 51 48 52 64 61 31 48 24 19 20 21 20 21 18 18
81 94 92 96 96 61 84 96 97 93 92 29 15 31 26 20 20 26 30 33 29 21 30 31 37 42 27 42 32 40 54 63 82 40 49 52 61 50 74 42 42 20 32 51 25 21 40 15 19
74 64 85 97 88 78 78 79 80 58 94 50 8 28 26 27 16 15 22 38 37 23 24 23 25 36 41 31 37 54 54 65 38 46 46 45 33 44 88 83 43 36 55 66 44 72 46 56 31
100 91 67 87 96 61 53 45 51 52 96 90 28 11 20 23 17 16 14 24 28 27 24 23 20 27 42 34 30 27 39 37 43 58 52 60 34 57 68 63 88 82 69 68 76 61 71 74 58
70 97 93 70 56 60 88 68 87 54 79 78 48 15 19 20 24 17 13 15 21 24 21 20 18 13 30 34 28 31 30 36 41 42 41 42 34 38 47 85 86 90 75 66 66 91 71 55 57
77 82 69 40 49 39 86 59 95 94 86 70 68 24 10 13 22 20 14 14 15 16 20 21 25 15 20 30 37 39 32 35 28 35 34 34 34 41 43 35 50 85 74 62 74 72 59 43 52
88 92 80 87 43 49 71 45 51 66 60 68 77 61 77 80 30 22 21 15 12 15 17 24 25 24 16 27 38 37 28 16 22 29 29 21 20 17 18 17 19 28 40 54 23 29 34 27 48
32 40 26 50 60 52 64 39 29 67 66 96 85 74 76 62 12 14 17 18 12 12 11 16 21 25 24 24 36 36 49 40 22 20 24 21 12 13 10 8 9 15 23 29 23 16 23 20 28
25 20 28 57 100 87 69 55 37 44 50 81 84 96 53 36 28 23 22 13 17 14 12 8 9 25 36 30 37 41 51 54 40 44 26 25 20 16 13 16 25 18 19 18 17 30 34 25 37
18 44 99 52 86 97 82 97 88 45 82 78 71 93 64 44 52 28 11 12 15 16 17 10 7 7 14 22 28 38 38 45 41 42 33 27 25 25 38 37 64 45 44 37 32 29 27 21 24
37 95 96 100 83 85 88 96 99 57 84 81 95 95 90 94 30 69 42 92 11 13 16 16 12 8 9 12 9 37 29 41 37 35 38 33 39 31 46 64 70 52 44 39 40 29 32 25 32
39 37 68 90 60 71 70 94 97 87 92 96 82 90 96 92 64 91 81 50 12 11 12 13 13 12 10 11 8 14 30 32 44 49 47 42 47 81 80 92 79 60 57 49 47 49 53 38 36
72 61 31 43 92 73 78 98 88 84 92 94 97 92 96 91 64 61 61 99 15 14 15 14 12 12 12 11 12 13 14 39 56 56 63 73 73 74 67 69 66 66 75 65 63 67 69 64 52
57 64 53 49 33 35 75 86 96 86 97 95 84 74 85 72 93 87 78 54 27 17 14 18 16 14 15 14 15 17 22 31 44 56 68 80 85 76 78 74 76 74 68 65 68 62 64 68 61

GFSSGP_500_rhum_138.txt.gz
RH
79 76 85 67 54 34 33 38 46 78 62 73 77 79 92 92 72 69 73 73 67 68 72 80 94 93 89 96 96 96 97 98 97 98 92 81 79 81 82 85 79 73 68 51 60 60 47 46 50
50 63 85 76 36 26 17 25 46 98 54 52 56 70 74 92 89 76 69 73 82 81 81 90 90 99 93 89 94 96 97 98 98 90 85 87 83 81 86 82 72 62 64 76 76 77 65 43 50
69 79 86 76 18 18 27 24 30 44 46 40 36 45 53 86 89 76 80 87 81 83 86 90 95 94 89 86 97 97 97 97 96 96 96 80 75 84 73 71 76 81 76 85 58 48 33 34 36
90 95 56 39 16 36 36 58 45 48 50 48 42 38 37 41 44 50 57 70 65 72 79 84 90 90 86 97 95 94 91 94 94 94 81 78 80 60 55 49 60 78 83 77 45 36 26 19 22
88 77 92 35 16 39 55 68 59 69 53 52 46 43 38 34 33 40 73 57 55 70 73 81 82 98 98 98 95 93 93 87 85 82 75 82 68 69 72 69 70 72 61 53 41 30 20 14 16
95 97 59 32 23 83 40 55 52 58 63 48 40 49 40 31 26 31 45 40 40 50 65 56 68 85 91 86 85 86 88 78 71 66 71 62 63 68 65 77 86 84 48 45 37 27 14 8 7
95 97 92 92 64 32 26 24 54 65 53 54 40 29 45 42 45 38 76 57 46 47 54 43 43 73 86 91 94 96 98 84 79 73 64 60 59 60 75 82 84 80 54 41 26 13 9 8 10
96 97 97 97 87 72 66 44 72 36 51 69 37 36 37 42 46 59 61 80 65 52 52 51 57 59 65 80 87 89 83 79 74 70 69 61 53 52 65 77 81 67 63 33 17 12 10 10 14
96 93 97 92 96 66 25 51 88 27 44 63 40 38 34 40 49 51 65 85 61 50 58 59 65 62 64 67 70 78 78 76 74 72 70 62 52 50 49 63 73 64 40 23 13 13 12 15 11
86 96 97 84 82 44 34 37 25 27 41 49 38 41 37 52 60 59 62 76 77 81 63 62 49 52 57 54 61 51 50 59 63 68 68 63 55 46 47 60 64 66 27 15 16 15 16 11 10
94 96 96 95 90 61 72 53 93 54 42 56 31 38 46 53 65 74 69 72 87 79 93 72 73 57 59 59 59 49 63 62 64 79 66 61 56 52 56 62 68 74 25 17 17 17 12 12 11
88 90 95 87 94 96 89 38 92 47 85 39 28 33 39 43 71 73 72 90 95 92 96 96 87 72 71 72 73 60 56 51 80 86 67 61 56 51 60 65 50 31 19 19 19 15 13 14 13
74 95 96 80 95 96 87 67 74 27 28 30 28 29 35 39 46 49 54 72 76 82 78 95 95 93 87 78 82 71 58 47 66 63 59 58 56 47 51 59 55 32 21 18 19 14 14 16 16
81 95 84 90 92 87 88 67 77 25 16 28 22 27 46 49 52 56 62 71 74 64 59 66 63 75 98 82 78 57 57 52 62 58 61 58 59 46 51 48 47 37 40 24 23 19 17 17 19
56 74 71 90 96 95 54 81 77 29 10 26 28 32 43 44 44 36 47 45 53 63 56 49 51 52 46 60 60 46 43 53 68 58 77 62 57 54 48 50 36 25 27 22 20 22 22 20 20
62 64 65 62 81 98 94 98 97 65 9 19 32 31 91 37 36 39 40 44 45 53 50 47 44 42 47 77 65 57 60 46 52 57 52 48 46 58 55 37 36 53 43 29 21 21 20 19 17
95 97 92 91 95 78 88 95 97 82 26 11 31 34 33 40 34 38 37 42 39 40 42 35 29 28 47 72 72 53 49 47 44 42 47 51 52 53 50 37 51 48 28 22 18 20 21 19 23
76 90 90 72 95 87 87 87 97 97 66 77 20 20 27 29 29 34 43 38 30 36 37 38 32 31 46 51 64 54 54 49 41 40 47 56 60 60 42 30 46 23 20 21 20 22 24 27 48
24 83 76 60 94 87 82 81 92 73 48 73 32 23 23 17 24 28 37 42 36 27 24 30 42 37 30 56 54 49 66 88 43 47 60 65 70 80 71 32 50 22 31 55 71 32 35 46 56
58 76 68 73 88 80 86 39 42 66 58 69 31 15 20 18 15 21 27 44 44 28 27 28 39 44 31 31 31 40 58 53 40 52 48 56 50 77 66 64 34 32 60 64 70 82 78 83 79
82 67 61 37 38 47 74 69 73 100 81 92 84 65 19 21 17 18 19 24 38 35 28 20 20 40 41 36 32 33 44 46 45 58 56 54 38 45 62 55 56 52 63 62 68 86 73 77 67
100 89 92 40 16 21 36 81 64 86 82 85 64 66 39 23 22 16 20 16 24 32 32 21 17 27 34 40 35 32 29 44 41 42 49 39 40 44 50 49 69 68 64 53 57 70 60 48 51
77 56 75 40 31 27 45 53 64 66 73 83 72 64 68 20 21 21 22 15 18 27 38 27 30 17 27 41 46 19 28 32 36 34 34 33 37 44 32 31 24 36 58 51 35 38 47 32 57
45 73 99 72 41 35 29 48 58 42 51 71 70 66 61 49 62 24 21 16 18 20 24 30 35 27 19 26 45 38 28 15 20 28 23 17 16 13 28 15 14 14 18 31 24 15 29 28 31
24 36 49 64 99 46 33 26 54 50 37 40 66 85 94 85 83 48 37 21 22 20 18 21 37 32 31 30 40 36 48 44 30 19 20 17 14 13 12 28 14 15 18 18 17 30 26 26 46
34 27 21 28 63 36 62 49 74 76 57 46 88 94 92 96 85 27 21 24 23 24 22 16 14 25 42 41 36 44 51 46 34 38 28 25 21 21 19 18 34 28 25 28 26 29 32 19 34
44 30 30 24 29 47 60 75 67 95 97 57 78 88 94 90 52 52 51 39 21 25 22 17 15 10 10 31 42 28 40 38 48 37 34 24 22 22 42 59 52 44 36 29 36 32 24 18 26
60 58 46 46 40 33 34 56 64 92 79 88 99 94 94 92 67 68 60 54 15 18 21 18 20 17 10 12 16 18 40 33 42 43 43 43 36 52 53 66 80 50 44 42 43 42 48 37 36
59 57 60 51 32 24 21 49 60 88 74 72 88 98 97 94 71 78 67 66 55 45 15 14 18 22 22 17 15 10 23 38 29 47 60 59 61 70 69 70 65 56 64 62 59 64 62 63 62
64 81 64 69 41 47 26 28 49 85 91 81 98 97 98 97 83 89 88 98 81 52 27 14 14 15 18 21 19 16 13 19 27 48 72 83 96 89 84 82 85 82 72 68 68 68 58 51 62

GFSSGP_500_rhum_144.txt.gz
RH
60 64 84 59 29 42 44 71 54 62 71 78 80 84 74 65 68 74 71 76 69 66 70 82 87 79 87 87 80 87 93 89 98 98 91 89 91 90 86 90 90 87 53 51 64 48 43 44 24
80 84 84 47 24 26 29 72 57 47 44 46 56 72 83 83 76 74 75 72 67 72 73 77 86 85 86 88 94 94 99 98 97 97 96 95 93 94 94 89 87 88 75 79 58 48 53 58 37
93 86 56 18 25 28 30 43 38 40 43 40 38 36 50 82 80 75 78 81 76 81 81 88 94 94 90 99 97 98 98 97 97 97 93 96 96 96 96 95 95 95 95 81 66 65 61 72 70
98 90 65 22 51 66 42 54 49 42 40 37 39 32 35 41 53 64 60 69 81 82 86 90 89 98 97 99 97 98 97 96 96 93 94 96 96 96 93 95 94 91 65 60 49 51 67 73 56
94 72 41 28 61 74 66 54 46 51 38 36 37 31 31 34 39 57 65 71 86 85 88 94 97 95 98 96 96 97 97 96 95 94 94 93 93 80 76 81 82 83 61 37 33 41 44 46 32
74 91 59 37 33 33 46 59 39 36 36 32 34 32 32 34 34 35 53 65 83 81 92 97 96 96 96 94 98 97 96 96 96 94 95 91 93 86 74 73 81 76 50 30 19 18 24 17 9
87 96 76 55 33 20 25 34 36 37 42 28 29 43 37 48 50 44 52 47 44 64 66 92 96 96 96 94 95 89 87 85 90 93 95 90 87 76 78 81 69 59 42 26 18 13 10 9 11
60 90 76 83 74 29 27 32 31 40 48 30 31 36 35 44 55 54 81 64 49 54 72 62 89 96 95 83 88 87 81 77 75 83 83 76 69 76 79 81 64 47 34 25 15 8 13 15 12
77 80 74 94 79 62 42 48 35 33 29 33 35 39 43 47 56 75 78 73 58 60 77 73 84 90 88 89 90 87 83 78 73 69 69 64 66 75 81 82 65 43 29 14 10 10 12 13 8
77 84 89 96 78 68 36 34 37 46 40 32 37 46 62 62 58 70 79 64 48 68 78 74 74 80 77 82 82 87 82 80 78 70 63 59 65 72 77 73 53 36 17 15 13 13 13 9 8
91 98 97 94 79 63 54 67 56 36 35 31 40 50 64 72 66 71 64 69 75 72 69 56 65 60 59 66 69 73 75 69 70 67 61 55 55 68 79 68 58 50 28 16 13 14 10 9 10
93 90 94 96 92 72 72 76 82 82 30 30 32 38 68 82 69 84 95 95 86 66 61 66 62 60 52 52 48 52 62 64 64 66 60 51 50 54 68 74 57 35 16 14 15 11 10 12 13
96 97 97 92 96 85 63 52 80 47 32 28 31 42 54 69 56 69 90 86 83 80 84 85 77 70 63 57 56 72 67 58 64 69 61 52 48 64 69 70 77 24 17 16 15 11 13 14 15
88 86 89 94 96 95 89 92 35 37 35 23 39 48 49 55 67 80 83 66 66 96 69 80 88 88 78 75 65 67 54 70 73 62 56 54 52 67 51 36 44 24 18 19 14 14 15 16 19
94 90 83 87 75 94 92 89 40 20 30 30 40 69 52 59 72 82 76 77 55 48 48 65 90 85 77 80 68 59 47 65 66 61 58 52 52 63 63 54 33 26 20 23 20 18 19 21 48
94 95 88 77 81 82 95 96 86 27 26 44 74 49 39 38 55 66 68 58 54 55 49 49 56 78 75 72 52 60 53 55 55 60 57 51 45 58 58 46 37 33 22 23 20 24 22 22 30
78 97 88 80 74 78 90 96 96 53 29 31 41 54 36 37 49 57 52 52 64 43 38 49 69 68 53 49 40 46 74 58 68 77 70 58 50 52 48 36 27 28 33 26 21 22 24 25 32
96 98 88 77 78 90 88 80 88 90 94 76 38 29 35 39 39 48 47 45 58 39 29 38 59 76 70 58 60 45 54 60 55 64 59 54 52 53 53 37 50 44 31 18 19 22 28 41 43
86 90 70 57 82 95 88 70 97 91 93 71 60 29 28 32 30 39 43 59 47 46 34 36 43 53 56 60 63 58 46 45 50 53 47 43 49 55 40 43 50 30 19 27 53 54 36 43 66
14 17 27 45 86 82 79 62 83 96 86 93 76 25 22 33 32 36 35 37 32 48 40 34 31 42 46 56 72 72 51 45 47 47 53 47 49 52 36 39 41 23 25 59 61 56 72 70 72
21 44 34 36 64 76 82 82 81 90 97 96 28 18 28 36 28 32 39 40 26 27 34 37 36 30 36 44 64 77 73 43 55 63 60 62 72 74 75 64 45 40 23 56 60 71 65 70 63
64 44 22 26 32 45 82 86 70 85 90 97 85 66 61 59 27 21 21 38 36 27 23 39 40 38 33 44 57 66 47 46 57 55 43 58 56 56 64 56 46 34 39 63 65 71 61 52 45
42 29 19 15 21 27 32 56 69 65 79 77 89 84 69 47 29 23 17 21 34 29 20 18 42 33 38 34 50 48 45 52 59 58 41 39 54 55 46 52 66 68 50 64 53 40 42 44 36
20 32 24 22 22 30 36 33 66 77 70 70 73 96 90 84 38 24 21 16 21 31 24 17 30 44 50 34 32 44 56 53 53 52 38 36 38 46 56 36 44 69 63 55 43 23 22 34 30
30 18 22 21 14 28 36 24 38 76 72 70 52 51 66 58 75 42 24 13 16 24 31 23 19 33 42 35 22 26 36 38 34 34 33 27 20 13 27 19 19 25 24 34 23 25 29 30 38
49 33 20 22 19 14 12 12 20 36 50 66 67 59 42 54 88 34 23 22 14 15 26 29 30 18 27 46 40 39 20 24 28 28 22 15 12 12 10 21 17 15 19 19 17 25 29 28 47
54 42 38 32 28 24 17 14 13 17 34 52 50 63 64 51 85 47 76 78 22 15 17 23 29 27 24 34 40 48 55 59 20 24 19 16 19 17 18 20 41 39 45 33 26 29 27 22 24
40 53 52 44 31 27 25 20 22 24 22 34 51 69 60 53 88 95 95 71 44 21 18 16 20 28 33 35 40 47 55 43 43 36 29 28 27 25 27 64 72 73 45 30 28 42 36 38 28
40 29 32 45 40 43 30 32 22 20 16 18 37 66 67 51 93 98 95 83 92 67 38 18 16 14 22 40 41 39 44 48 51 46 43 37 37 39 42 68 69 84 60 43 40 43 52 52 54
29 31 23 23 32 28 25 42 34 36 31 25 21 39 60 76 84 98 97 90 100 83 60 37 18 18 15 10 16 31 31 34 39 41 44 44 49 52 56 76 63 70 51 46 55 53 56 58 53

GFSSGP_500_rhum_147.txt.gz
RH
85 73 77 30 37 34 46 47 56 71 73 76 81 62 61 69 65 68 70 77 68 64 63 76 84 92 93 92 92 92 90 97 92 99 96 89 86 80 80 84 88 72 46 55 54 38 39 26 20
87 56 49 20 30 26 57 62 41 40 39 39 54 77 86 77 65 65 66 67 63 62 67 71 80 80 88 88 90 91 92 98 98 97 95 89 82 88 88 84 86 70 66 61 51 46 51 25 25
90 69 33 26 24 24 41 43 37 41 41 37 35 45 59 78 78 71 69 70 73 72 76 80 83 81 79 83 87 87 89 97 94 96 95 88 85 85 89 88 88 91 87 76 63 70 69 76 51
88 89 38 45 47 46 49 40 42 38 39 35 32 34 40 56 68 74 81 82 79 77 84 90 85 78 80 87 88 94 95 94 97 96 92 86 85 92 96 96 90 76 68 72 65 70 76 68 38
97 65 43 38 60 57 49 58 34 41 32 29 31 30 27 29 39 61 62 71 73 75 80 88 85 84 90 87 97 98 98 97 97 96 93 94 96 96 91 79 72 64 41 33 48 56 57 44 12
68 90 59 40 42 29 29 46 35 34 33 30 29 34 27 21 27 48 53 63 77 81 90 96 92 98 95 90 95 96 97 97 97 93 96 93 92 91 69 70 79 67 43 27 27 26 24 10 9
77 75 71 50 44 25 22 28 40 36 48 28 30 38 37 32 33 54 53 46 65 68 74 97 98 97 92 93 96 98 97 96 95 96 96 89 85 72 74 77 72 62 34 21 15 11 8 9 11
54 84 78 58 55 28 32 46 35 32 39 28 32 34 35 39 40 64 79 50 48 68 70 91 97 97 97 97 97 96 96 94 95 93 78 66 75 80 81 65 49 42 29 19 9 12 15 13 7
74 87 71 82 74 50 28 34 33 25 26 33 35 35 39 43 57 69 76 58 57 68 71 76 95 95 92 94 92 82 73 70 71 66 62 62 74 82 82 78 55 41 25 12 9 12 14 8 7
81 76 82 80 76 30 24 36 32 29 26 33 37 55 58 53 58 80 71 55 47 60 56 73 86 78 76 82 79 72 70 72 65 66 62 62 67 77 82 74 47 32 12 10 11 14 9 9 10
79 93 95 98 63 50 35 64 43 19 27 32 45 53 56 65 77 75 71 68 58 63 64 66 68 64 61 60 60 61 58 61 67 65 61 58 62 74 74 73 58 41 17 14 14 10 10 11 11
99 94 96 86 67 70 62 78 69 26 24 30 39 44 54 63 77 86 88 76 77 63 50 59 56 48 55 56 62 65 68 73 71 63 57 53 66 83 73 56 41 25 16 14 15 10 12 13 15
92 97 92 93 77 58 51 40 68 28 24 33 41 41 50 52 77 92 89 92 68 62 70 63 61 56 55 45 45 61 67 66 65 61 54 51 67 75 69 70 56 21 16 17 12 12 15 18 20
91 93 84 96 92 81 64 43 62 36 23 42 47 45 53 64 78 87 67 80 90 93 91 86 74 68 61 50 58 62 55 56 60 63 55 50 57 67 63 64 41 17 17 17 14 17 19 28 32
92 81 80 79 96 97 96 58 31 30 26 32 47 41 56 69 78 74 63 68 83 57 70 86 85 78 72 60 54 56 56 67 66 64 58 50 59 46 39 56 28 18 19 17 18 20 23 37 39
95 88 76 81 84 88 96 99 33 34 38 47 40 32 36 59 59 68 68 40 43 47 50 50 72 74 71 69 53 49 66 72 61 59 56 49 54 49 43 40 31 22 21 20 22 21 22 23 29
73 88 77 75 74 77 95 96 39 28 38 31 45 30 34 47 57 56 42 46 51 40 48 61 64 68 70 49 56 53 59 56 56 50 47 45 51 55 49 37 31 20 21 19 20 23 27 34 41
94 93 88 69 73 85 91 92 82 83 89 53 31 32 31 37 47 40 39 48 38 30 40 65 66 50 45 39 45 61 53 58 65 58 56 43 46 52 44 32 30 35 22 18 20 27 34 46 61
96 94 80 62 61 94 94 90 98 98 97 98 64 27 28 32 43 42 38 46 46 26 33 38 70 65 54 50 38 53 61 53 60 56 56 51 51 54 46 42 46 32 18 22 27 40 37 61 77
66 60 31 23 58 80 83 79 97 98 100 99 87 48 23 29 34 40 54 36 43 36 30 39 51 52 51 44 39 40 46 48 50 48 47 55 54 52 39 47 41 20 21 57 57 61 77 78 64
16 23 30 36 37 84 79 72 87 86 96 98 76 32 22 30 28 38 39 29 32 38 34 30 32 42 48 48 50 44 40 41 44 47 45 47 56 62 37 44 39 23 27 56 62 78 82 69 57
30 48 37 24 32 56 76 85 82 96 99 88 40 25 23 32 23 30 39 41 26 26 39 28 26 31 42 56 56 43 41 46 52 54 59 72 75 76 67 63 46 45 32 48 67 76 65 58 45
45 32 27 20 19 26 43 58 60 71 94 100 92 89 59 68 39 17 20 33 39 27 29 36 33 27 36 53 60 67 43 50 58 58 67 59 57 57 64 53 52 44 40 67 64 58 42 42 38
29 25 22 16 13 34 28 30 39 34 63 76 90 95 94 80 48 35 17 20 35 32 21 36 37 30 31 44 50 47 46 52 53 42 41 45 52 44 46 49 66 65 47 59 55 46 25 34 33
23 18 20 46 20 33 42 45 43 48 50 59 61 68 76 94 77 34 21 21 23 33 26 18 35 36 45 28 40 44 52 49 57 59 42 40 41 45 44 38 69 76 68 50 34 22 24 31 27
49 40 33 25 20 15 12 11 14 22 39 58 55 57 59 57 55 74 48 22 18 25 29 24 22 38 42 25 26 37 33 43 48 48 32 30 21 14 32 17 20 24 20 25 17 28 30 37 42
61 43 34 27 23 20 21 15 13 13 15 26 27 32 48 55 41 62 78 19 19 18 24 28 27 22 32 44 36 26 22 24 27 30 28 17 14 13 13 28 20 18 21 20 21 34 45 44 42
48 49 42 41 36 27 22 27 30 16 13 14 18 24 33 36 49 48 72 22 28 22 15 21 27 34 24 25 45 43 21 32 30 22 21 17 18 17 20 23 39 39 44 33 30 41 45 45 41
54 46 34 30 26 28 17 25 27 25 14 18 18 12 28 59 74 62 56 40 82 42 16 16 19 27 34 28 33 40 50 40 29 32 31 28 25 23 23 52 69 73 66 38 38 50 43 51 53
31 29 22 22 24 21 18 16 21 36 33 27 29 22 16 50 63 66 63 88 91 74 43 24 16 15 19 30 37 37 44 47 45 45 42 37 33 32 34 44 57 65 70 41 40 40 42 54 57